<?xml version="1.0" encoding="UTF-8" standalone="no" ?>
<gpx xmlns="http://www.topografix.com/GPX/1/1" xmlns:xsi="http://www.w3.org/2001/XMLSchema-instance" xsi:schemaLocation="http://www.topografix.com/GPX/1/1 http://www.topografix.com/GPX/1/1/gpx.xsd" version="1.1" creator="VisuGPX - https://www.visugpx.com">
  <metadata>
    <name>Epercieux</name>
    <desc><![CDATA[Un petit tour en bord de Loire sur les terres des Sparcirots.]]></desc>
  </metadata>
  <trk>
    <name><![CDATA[20190415184939-1WN4R]]></name>
    <trkseg>
      <trkpt lat="45.79122" lon="4.21072">
        <ele>381.306</ele>
        <time>2019-04-15T12:21:48Z</time>
      </trkpt>
      <trkpt lat="45.79122" lon="4.21072">
        <ele>381.275</ele>
        <time>2019-04-15T12:21:53Z</time>
      </trkpt>
      <trkpt lat="45.79122" lon="4.21072">
        <ele>381.25</ele>
        <time>2019-04-15T12:21:59Z</time>
      </trkpt>
      <trkpt lat="45.79122" lon="4.21072">
        <ele>381.259</ele>
        <time>2019-04-15T12:22:05Z</time>
      </trkpt>
      <trkpt lat="45.79122" lon="4.21072">
        <ele>381.275</ele>
        <time>2019-04-15T12:22:11Z</time>
      </trkpt>
      <trkpt lat="45.79122" lon="4.21072">
        <ele>381.24</ele>
        <time>2019-04-15T12:22:16Z</time>
      </trkpt>
      <trkpt lat="45.79122" lon="4.21072">
        <ele>381.117</ele>
        <time>2019-04-15T12:22:22Z</time>
      </trkpt>
      <trkpt lat="45.79122" lon="4.21072">
        <ele>381.092</ele>
        <time>2019-04-15T12:22:28Z</time>
      </trkpt>
      <trkpt lat="45.79122" lon="4.21072">
        <ele>381.146</ele>
        <time>2019-04-15T12:22:34Z</time>
      </trkpt>
      <trkpt lat="45.79122" lon="4.21072">
        <ele>381.094</ele>
        <time>2019-04-15T12:22:40Z</time>
      </trkpt>
      <trkpt lat="45.79122" lon="4.21072">
        <ele>380.985</ele>
        <time>2019-04-15T12:22:45Z</time>
      </trkpt>
      <trkpt lat="45.79122" lon="4.21072">
        <ele>381.002</ele>
        <time>2019-04-15T12:22:50Z</time>
      </trkpt>
      <trkpt lat="45.79122" lon="4.21072">
        <ele>380.987</ele>
        <time>2019-04-15T12:22:56Z</time>
      </trkpt>
      <trkpt lat="45.79122" lon="4.21072">
        <ele>381.001</ele>
        <time>2019-04-15T12:23:01Z</time>
      </trkpt>
      <trkpt lat="45.79122" lon="4.21072">
        <ele>381.011</ele>
        <time>2019-04-15T12:23:07Z</time>
      </trkpt>
      <trkpt lat="45.79122" lon="4.21072">
        <ele>380.98</ele>
        <time>2019-04-15T12:23:13Z</time>
      </trkpt>
      <trkpt lat="45.79122" lon="4.21072">
        <ele>381.014</ele>
        <time>2019-04-15T12:23:19Z</time>
      </trkpt>
      <trkpt lat="45.79122" lon="4.21072">
        <ele>381.081</ele>
        <time>2019-04-15T12:23:25Z</time>
      </trkpt>
      <trkpt lat="45.79122" lon="4.21072">
        <ele>381.106</ele>
        <time>2019-04-15T12:23:31Z</time>
      </trkpt>
      <trkpt lat="45.79122" lon="4.21072">
        <ele>381.145</ele>
        <time>2019-04-15T12:23:37Z</time>
      </trkpt>
      <trkpt lat="45.79122" lon="4.21072">
        <ele>381.288</ele>
        <time>2019-04-15T12:23:42Z</time>
      </trkpt>
      <trkpt lat="45.79122" lon="4.21072">
        <ele>381.441</ele>
        <time>2019-04-15T12:23:49Z</time>
      </trkpt>
      <trkpt lat="45.79122" lon="4.21072">
        <ele>381.487</ele>
        <time>2019-04-15T12:23:55Z</time>
      </trkpt>
      <trkpt lat="45.79122" lon="4.21072">
        <ele>381.491</ele>
        <time>2019-04-15T12:24:00Z</time>
      </trkpt>
      <trkpt lat="45.79122" lon="4.21072">
        <ele>381.497</ele>
        <time>2019-04-15T12:24:06Z</time>
      </trkpt>
      <trkpt lat="45.79122" lon="4.21072">
        <ele>381.556</ele>
        <time>2019-04-15T12:24:12Z</time>
      </trkpt>
      <trkpt lat="45.79122" lon="4.21072">
        <ele>381.581</ele>
        <time>2019-04-15T12:24:17Z</time>
      </trkpt>
      <trkpt lat="45.79122" lon="4.21072">
        <ele>381.65</ele>
        <time>2019-04-15T12:24:23Z</time>
      </trkpt>
      <trkpt lat="45.79122" lon="4.21072">
        <ele>381.663</ele>
        <time>2019-04-15T12:24:28Z</time>
      </trkpt>
      <trkpt lat="45.79122" lon="4.21072">
        <ele>381.614</ele>
        <time>2019-04-15T12:24:34Z</time>
      </trkpt>
      <trkpt lat="45.79122" lon="4.21072">
        <ele>381.592</ele>
        <time>2019-04-15T12:24:40Z</time>
      </trkpt>
      <trkpt lat="45.79122" lon="4.21072">
        <ele>381.615</ele>
        <time>2019-04-15T12:24:45Z</time>
      </trkpt>
      <trkpt lat="45.79122" lon="4.21072">
        <ele>381.642</ele>
        <time>2019-04-15T12:24:51Z</time>
      </trkpt>
      <trkpt lat="45.79113" lon="4.21075">
        <ele>381.671</ele>
        <time>2019-04-15T12:24:57Z</time>
      </trkpt>
      <trkpt lat="45.79113" lon="4.21075">
        <ele>381.872</ele>
        <time>2019-04-15T12:25:02Z</time>
      </trkpt>
      <trkpt lat="45.79107" lon="4.21081">
        <ele>381.868</ele>
        <time>2019-04-15T12:25:08Z</time>
      </trkpt>
      <trkpt lat="45.79101" lon="4.21095">
        <ele>382.232</ele>
        <time>2019-04-15T12:25:13Z</time>
      </trkpt>
      <trkpt lat="45.79094" lon="4.211">
        <ele>382.381</ele>
        <time>2019-04-15T12:25:19Z</time>
      </trkpt>
      <trkpt lat="45.79086" lon="4.21098">
        <ele>382.844</ele>
        <time>2019-04-15T12:25:25Z</time>
      </trkpt>
      <trkpt lat="45.7908" lon="4.21099">
        <ele>383.109</ele>
        <time>2019-04-15T12:25:30Z</time>
      </trkpt>
      <trkpt lat="45.79073" lon="4.21099">
        <ele>383.477</ele>
        <time>2019-04-15T12:25:35Z</time>
      </trkpt>
      <trkpt lat="45.79066" lon="4.21102">
        <ele>383.917</ele>
        <time>2019-04-15T12:25:41Z</time>
      </trkpt>
      <trkpt lat="45.79062" lon="4.21102">
        <ele>383.869</ele>
        <time>2019-04-15T12:25:47Z</time>
      </trkpt>
      <trkpt lat="45.79056" lon="4.21106">
        <ele>384.12</ele>
        <time>2019-04-15T12:25:53Z</time>
      </trkpt>
      <trkpt lat="45.7905" lon="4.21109">
        <ele>384.572</ele>
        <time>2019-04-15T12:25:59Z</time>
      </trkpt>
      <trkpt lat="45.79042" lon="4.21113">
        <ele>385.734</ele>
        <time>2019-04-15T12:26:05Z</time>
      </trkpt>
      <trkpt lat="45.79036" lon="4.21115">
        <ele>386.661</ele>
        <time>2019-04-15T12:26:10Z</time>
      </trkpt>
      <trkpt lat="45.79028" lon="4.21117">
        <ele>387.479</ele>
        <time>2019-04-15T12:26:16Z</time>
      </trkpt>
      <trkpt lat="45.79022" lon="4.21119">
        <ele>387.9</ele>
        <time>2019-04-15T12:26:21Z</time>
      </trkpt>
      <trkpt lat="45.79016" lon="4.2112">
        <ele>388.624</ele>
        <time>2019-04-15T12:26:27Z</time>
      </trkpt>
      <trkpt lat="45.79008" lon="4.21123">
        <ele>388.539</ele>
        <time>2019-04-15T12:26:33Z</time>
      </trkpt>
      <trkpt lat="45.79003" lon="4.21124">
        <ele>388.323</ele>
        <time>2019-04-15T12:26:39Z</time>
      </trkpt>
      <trkpt lat="45.78997" lon="4.21118">
        <ele>388.359</ele>
        <time>2019-04-15T12:26:45Z</time>
      </trkpt>
      <trkpt lat="45.78991" lon="4.21115">
        <ele>388.909</ele>
        <time>2019-04-15T12:26:51Z</time>
      </trkpt>
      <trkpt lat="45.78987" lon="4.21111">
        <ele>388.912</ele>
        <time>2019-04-15T12:26:57Z</time>
      </trkpt>
      <trkpt lat="45.7898" lon="4.2111">
        <ele>389.069</ele>
        <time>2019-04-15T12:27:03Z</time>
      </trkpt>
      <trkpt lat="45.78973" lon="4.21107">
        <ele>389.526</ele>
        <time>2019-04-15T12:27:09Z</time>
      </trkpt>
      <trkpt lat="45.7897" lon="4.21103">
        <ele>389.215</ele>
        <time>2019-04-15T12:27:15Z</time>
      </trkpt>
      <trkpt lat="45.78969" lon="4.21092">
        <ele>388.733</ele>
        <time>2019-04-15T12:27:21Z</time>
      </trkpt>
      <trkpt lat="45.78968" lon="4.21081">
        <ele>387.476</ele>
        <time>2019-04-15T12:27:26Z</time>
      </trkpt>
      <trkpt lat="45.78966" lon="4.21069">
        <ele>385.687</ele>
        <time>2019-04-15T12:27:32Z</time>
      </trkpt>
      <trkpt lat="45.78963" lon="4.21056">
        <ele>384.823</ele>
        <time>2019-04-15T12:27:38Z</time>
      </trkpt>
      <trkpt lat="45.7896" lon="4.21046">
        <ele>384.155</ele>
        <time>2019-04-15T12:27:44Z</time>
      </trkpt>
      <trkpt lat="45.78957" lon="4.21045">
        <ele>383.605</ele>
        <time>2019-04-15T12:27:49Z</time>
      </trkpt>
      <trkpt lat="45.78956" lon="4.21045">
        <ele>382.924</ele>
        <time>2019-04-15T12:27:54Z</time>
      </trkpt>
      <trkpt lat="45.78952" lon="4.21042">
        <ele>382.734</ele>
        <time>2019-04-15T12:28:00Z</time>
      </trkpt>
      <trkpt lat="45.78944" lon="4.2104">
        <ele>382.544</ele>
        <time>2019-04-15T12:28:06Z</time>
      </trkpt>
      <trkpt lat="45.7894" lon="4.21036">
        <ele>382.08</ele>
        <time>2019-04-15T12:28:11Z</time>
      </trkpt>
      <trkpt lat="45.78937" lon="4.21033">
        <ele>381.533</ele>
        <time>2019-04-15T12:28:17Z</time>
      </trkpt>
      <trkpt lat="45.78934" lon="4.21028">
        <ele>380.958</ele>
        <time>2019-04-15T12:28:22Z</time>
      </trkpt>
      <trkpt lat="45.78928" lon="4.21023">
        <ele>380.48</ele>
        <time>2019-04-15T12:28:28Z</time>
      </trkpt>
      <trkpt lat="45.78925" lon="4.21019">
        <ele>380.066</ele>
        <time>2019-04-15T12:28:34Z</time>
      </trkpt>
      <trkpt lat="45.78922" lon="4.21014">
        <ele>379.111</ele>
        <time>2019-04-15T12:28:40Z</time>
      </trkpt>
      <trkpt lat="45.78916" lon="4.21004">
        <ele>377.941</ele>
        <time>2019-04-15T12:28:46Z</time>
      </trkpt>
      <trkpt lat="45.78912" lon="4.20998">
        <ele>376.676</ele>
        <time>2019-04-15T12:28:52Z</time>
      </trkpt>
      <trkpt lat="45.78907" lon="4.20989">
        <ele>376.161</ele>
        <time>2019-04-15T12:28:58Z</time>
      </trkpt>
      <trkpt lat="45.78903" lon="4.20983">
        <ele>375.792</ele>
        <time>2019-04-15T12:29:04Z</time>
      </trkpt>
      <trkpt lat="45.78896" lon="4.20974">
        <ele>375.325</ele>
        <time>2019-04-15T12:29:09Z</time>
      </trkpt>
      <trkpt lat="45.7889" lon="4.20966">
        <ele>374.464</ele>
        <time>2019-04-15T12:29:15Z</time>
      </trkpt>
      <trkpt lat="45.78886" lon="4.20959">
        <ele>373.925</ele>
        <time>2019-04-15T12:29:20Z</time>
      </trkpt>
      <trkpt lat="45.78881" lon="4.20953">
        <ele>373.039</ele>
        <time>2019-04-15T12:29:26Z</time>
      </trkpt>
      <trkpt lat="45.78875" lon="4.20945">
        <ele>372.058</ele>
        <time>2019-04-15T12:29:32Z</time>
      </trkpt>
      <trkpt lat="45.78867" lon="4.20936">
        <ele>371.902</ele>
        <time>2019-04-15T12:29:38Z</time>
      </trkpt>
      <trkpt lat="45.78862" lon="4.20931">
        <ele>372.216</ele>
        <time>2019-04-15T12:29:44Z</time>
      </trkpt>
      <trkpt lat="45.78859" lon="4.20922">
        <ele>373.192</ele>
        <time>2019-04-15T12:29:50Z</time>
      </trkpt>
      <trkpt lat="45.78859" lon="4.20912">
        <ele>374.092</ele>
        <time>2019-04-15T12:29:56Z</time>
      </trkpt>
      <trkpt lat="45.78858" lon="4.20902">
        <ele>373.818</ele>
        <time>2019-04-15T12:30:02Z</time>
      </trkpt>
      <trkpt lat="45.78857" lon="4.20893">
        <ele>373.012</ele>
        <time>2019-04-15T12:30:08Z</time>
      </trkpt>
      <trkpt lat="45.78855" lon="4.20884">
        <ele>371.901</ele>
        <time>2019-04-15T12:30:14Z</time>
      </trkpt>
      <trkpt lat="45.78855" lon="4.20875">
        <ele>370.912</ele>
        <time>2019-04-15T12:30:19Z</time>
      </trkpt>
      <trkpt lat="45.78855" lon="4.20867">
        <ele>370.09</ele>
        <time>2019-04-15T12:30:24Z</time>
      </trkpt>
      <trkpt lat="45.78853" lon="4.20859">
        <ele>369.75</ele>
        <time>2019-04-15T12:30:29Z</time>
      </trkpt>
      <trkpt lat="45.78849" lon="4.2085">
        <ele>369.938</ele>
        <time>2019-04-15T12:30:35Z</time>
      </trkpt>
      <trkpt lat="45.78848" lon="4.2084">
        <ele>369.726</ele>
        <time>2019-04-15T12:30:40Z</time>
      </trkpt>
      <trkpt lat="45.78845" lon="4.20829">
        <ele>369.029</ele>
        <time>2019-04-15T12:30:46Z</time>
      </trkpt>
      <trkpt lat="45.78842" lon="4.20825">
        <ele>369.174</ele>
        <time>2019-04-15T12:30:52Z</time>
      </trkpt>
      <trkpt lat="45.78839" lon="4.20816">
        <ele>368.861</ele>
        <time>2019-04-15T12:30:58Z</time>
      </trkpt>
      <trkpt lat="45.78835" lon="4.20808">
        <ele>368.632</ele>
        <time>2019-04-15T12:31:04Z</time>
      </trkpt>
      <trkpt lat="45.78828" lon="4.20798">
        <ele>367.784</ele>
        <time>2019-04-15T12:31:09Z</time>
      </trkpt>
      <trkpt lat="45.78824" lon="4.20794">
        <ele>367.11</ele>
        <time>2019-04-15T12:31:14Z</time>
      </trkpt>
      <trkpt lat="45.78818" lon="4.20789">
        <ele>367.127</ele>
        <time>2019-04-15T12:31:20Z</time>
      </trkpt>
      <trkpt lat="45.78814" lon="4.20782">
        <ele>366.148</ele>
        <time>2019-04-15T12:31:25Z</time>
      </trkpt>
      <trkpt lat="45.78809" lon="4.20776">
        <ele>366.087</ele>
        <time>2019-04-15T12:31:31Z</time>
      </trkpt>
      <trkpt lat="45.78805" lon="4.20772">
        <ele>366.471</ele>
        <time>2019-04-15T12:31:36Z</time>
      </trkpt>
      <trkpt lat="45.78799" lon="4.20762">
        <ele>366.683</ele>
        <time>2019-04-15T12:31:41Z</time>
      </trkpt>
      <trkpt lat="45.78792" lon="4.20754">
        <ele>366.393</ele>
        <time>2019-04-15T12:31:46Z</time>
      </trkpt>
      <trkpt lat="45.78789" lon="4.20749">
        <ele>366.085</ele>
        <time>2019-04-15T12:31:51Z</time>
      </trkpt>
      <trkpt lat="45.78788" lon="4.20745">
        <ele>366.121</ele>
        <time>2019-04-15T12:31:57Z</time>
      </trkpt>
      <trkpt lat="45.78782" lon="4.20739">
        <ele>366.615</ele>
        <time>2019-04-15T12:32:02Z</time>
      </trkpt>
      <trkpt lat="45.78777" lon="4.20732">
        <ele>367.052</ele>
        <time>2019-04-15T12:32:08Z</time>
      </trkpt>
      <trkpt lat="45.78773" lon="4.20727">
        <ele>367.649</ele>
        <time>2019-04-15T12:32:14Z</time>
      </trkpt>
      <trkpt lat="45.78772" lon="4.20719">
        <ele>368.212</ele>
        <time>2019-04-15T12:32:19Z</time>
      </trkpt>
      <trkpt lat="45.78766" lon="4.20706">
        <ele>368.704</ele>
        <time>2019-04-15T12:32:25Z</time>
      </trkpt>
      <trkpt lat="45.78762" lon="4.20694">
        <ele>369.091</ele>
        <time>2019-04-15T12:32:31Z</time>
      </trkpt>
      <trkpt lat="45.78758" lon="4.20686">
        <ele>370.018</ele>
        <time>2019-04-15T12:32:37Z</time>
      </trkpt>
      <trkpt lat="45.78754" lon="4.20678">
        <ele>370.459</ele>
        <time>2019-04-15T12:32:42Z</time>
      </trkpt>
      <trkpt lat="45.78751" lon="4.20671">
        <ele>370.891</ele>
        <time>2019-04-15T12:32:47Z</time>
      </trkpt>
      <trkpt lat="45.78747" lon="4.20662">
        <ele>371.072</ele>
        <time>2019-04-15T12:32:53Z</time>
      </trkpt>
      <trkpt lat="45.78741" lon="4.20656">
        <ele>371.118</ele>
        <time>2019-04-15T12:32:59Z</time>
      </trkpt>
      <trkpt lat="45.78736" lon="4.20648">
        <ele>371.1</ele>
        <time>2019-04-15T12:33:04Z</time>
      </trkpt>
      <trkpt lat="45.78734" lon="4.20639">
        <ele>370.861</ele>
        <time>2019-04-15T12:33:09Z</time>
      </trkpt>
      <trkpt lat="45.7873" lon="4.2063">
        <ele>370.786</ele>
        <time>2019-04-15T12:33:15Z</time>
      </trkpt>
      <trkpt lat="45.78727" lon="4.20619">
        <ele>371.115</ele>
        <time>2019-04-15T12:33:21Z</time>
      </trkpt>
      <trkpt lat="45.78726" lon="4.20612">
        <ele>371.364</ele>
        <time>2019-04-15T12:33:26Z</time>
      </trkpt>
      <trkpt lat="45.78723" lon="4.20603">
        <ele>371.851</ele>
        <time>2019-04-15T12:33:32Z</time>
      </trkpt>
      <trkpt lat="45.7872" lon="4.20602">
        <ele>371.853</ele>
        <time>2019-04-15T12:33:37Z</time>
      </trkpt>
      <trkpt lat="45.78721" lon="4.206">
        <ele>371.935</ele>
        <time>2019-04-15T12:33:43Z</time>
      </trkpt>
      <trkpt lat="45.78719" lon="4.2059">
        <ele>372.608</ele>
        <time>2019-04-15T12:33:49Z</time>
      </trkpt>
      <trkpt lat="45.78716" lon="4.2058">
        <ele>373.203</ele>
        <time>2019-04-15T12:33:54Z</time>
      </trkpt>
      <trkpt lat="45.78712" lon="4.20571">
        <ele>373.404</ele>
        <time>2019-04-15T12:34:00Z</time>
      </trkpt>
      <trkpt lat="45.78709" lon="4.20561">
        <ele>373.405</ele>
        <time>2019-04-15T12:34:06Z</time>
      </trkpt>
      <trkpt lat="45.78706" lon="4.20552">
        <ele>373.187</ele>
        <time>2019-04-15T12:34:11Z</time>
      </trkpt>
      <trkpt lat="45.78702" lon="4.20544">
        <ele>373.346</ele>
        <time>2019-04-15T12:34:17Z</time>
      </trkpt>
      <trkpt lat="45.78698" lon="4.20536">
        <ele>373.718</ele>
        <time>2019-04-15T12:34:23Z</time>
      </trkpt>
      <trkpt lat="45.78694" lon="4.20526">
        <ele>374.367</ele>
        <time>2019-04-15T12:34:29Z</time>
      </trkpt>
      <trkpt lat="45.78688" lon="4.20515">
        <ele>374.744</ele>
        <time>2019-04-15T12:34:35Z</time>
      </trkpt>
      <trkpt lat="45.78684" lon="4.20507">
        <ele>375.4</ele>
        <time>2019-04-15T12:34:41Z</time>
      </trkpt>
      <trkpt lat="45.7868" lon="4.20501">
        <ele>375.58</ele>
        <time>2019-04-15T12:34:46Z</time>
      </trkpt>
      <trkpt lat="45.78676" lon="4.20491">
        <ele>375.887</ele>
        <time>2019-04-15T12:34:52Z</time>
      </trkpt>
      <trkpt lat="45.78673" lon="4.20481">
        <ele>376.201</ele>
        <time>2019-04-15T12:34:58Z</time>
      </trkpt>
      <trkpt lat="45.7867" lon="4.20472">
        <ele>376.691</ele>
        <time>2019-04-15T12:35:04Z</time>
      </trkpt>
      <trkpt lat="45.78666" lon="4.20464">
        <ele>377.377</ele>
        <time>2019-04-15T12:35:09Z</time>
      </trkpt>
      <trkpt lat="45.78664" lon="4.20456">
        <ele>377.865</ele>
        <time>2019-04-15T12:35:14Z</time>
      </trkpt>
      <trkpt lat="45.7866" lon="4.20447">
        <ele>378.329</ele>
        <time>2019-04-15T12:35:20Z</time>
      </trkpt>
      <trkpt lat="45.78657" lon="4.20439">
        <ele>379.042</ele>
        <time>2019-04-15T12:35:25Z</time>
      </trkpt>
      <trkpt lat="45.78654" lon="4.20427">
        <ele>379.679</ele>
        <time>2019-04-15T12:35:31Z</time>
      </trkpt>
      <trkpt lat="45.78651" lon="4.20417">
        <ele>380.033</ele>
        <time>2019-04-15T12:35:37Z</time>
      </trkpt>
      <trkpt lat="45.78649" lon="4.20407">
        <ele>380.427</ele>
        <time>2019-04-15T12:35:42Z</time>
      </trkpt>
      <trkpt lat="45.78647" lon="4.20398">
        <ele>380.848</ele>
        <time>2019-04-15T12:35:48Z</time>
      </trkpt>
      <trkpt lat="45.78646" lon="4.20393">
        <ele>381.357</ele>
        <time>2019-04-15T12:35:53Z</time>
      </trkpt>
      <trkpt lat="45.78643" lon="4.20384">
        <ele>381.703</ele>
        <time>2019-04-15T12:35:59Z</time>
      </trkpt>
      <trkpt lat="45.78639" lon="4.20375">
        <ele>382.405</ele>
        <time>2019-04-15T12:36:05Z</time>
      </trkpt>
      <trkpt lat="45.78636" lon="4.20366">
        <ele>382.5</ele>
        <time>2019-04-15T12:36:10Z</time>
      </trkpt>
      <trkpt lat="45.78633" lon="4.20363">
        <ele>382.689</ele>
        <time>2019-04-15T12:36:15Z</time>
      </trkpt>
      <trkpt lat="45.78628" lon="4.2036">
        <ele>382.654</ele>
        <time>2019-04-15T12:36:20Z</time>
      </trkpt>
      <trkpt lat="45.78625" lon="4.20357">
        <ele>382.682</ele>
        <time>2019-04-15T12:36:25Z</time>
      </trkpt>
      <trkpt lat="45.7862" lon="4.2035">
        <ele>382.721</ele>
        <time>2019-04-15T12:36:31Z</time>
      </trkpt>
      <trkpt lat="45.78615" lon="4.20343">
        <ele>383.264</ele>
        <time>2019-04-15T12:36:36Z</time>
      </trkpt>
      <trkpt lat="45.7861" lon="4.20333">
        <ele>384.325</ele>
        <time>2019-04-15T12:36:42Z</time>
      </trkpt>
      <trkpt lat="45.78606" lon="4.20324">
        <ele>384.609</ele>
        <time>2019-04-15T12:36:48Z</time>
      </trkpt>
      <trkpt lat="45.78603" lon="4.20317">
        <ele>384.292</ele>
        <time>2019-04-15T12:36:54Z</time>
      </trkpt>
      <trkpt lat="45.78598" lon="4.20307">
        <ele>383.44</ele>
        <time>2019-04-15T12:37:00Z</time>
      </trkpt>
      <trkpt lat="45.78597" lon="4.20301">
        <ele>382.888</ele>
        <time>2019-04-15T12:37:05Z</time>
      </trkpt>
      <trkpt lat="45.78595" lon="4.20293">
        <ele>382.194</ele>
        <time>2019-04-15T12:37:11Z</time>
      </trkpt>
      <trkpt lat="45.78593" lon="4.20284">
        <ele>381.315</ele>
        <time>2019-04-15T12:37:17Z</time>
      </trkpt>
      <trkpt lat="45.78591" lon="4.20276">
        <ele>381.023</ele>
        <time>2019-04-15T12:37:23Z</time>
      </trkpt>
      <trkpt lat="45.78589" lon="4.20265">
        <ele>380.842</ele>
        <time>2019-04-15T12:37:29Z</time>
      </trkpt>
      <trkpt lat="45.78588" lon="4.20255">
        <ele>380.801</ele>
        <time>2019-04-15T12:37:34Z</time>
      </trkpt>
      <trkpt lat="45.78587" lon="4.20244">
        <ele>380.726</ele>
        <time>2019-04-15T12:37:40Z</time>
      </trkpt>
      <trkpt lat="45.78586" lon="4.20239">
        <ele>380.668</ele>
        <time>2019-04-15T12:37:45Z</time>
      </trkpt>
      <trkpt lat="45.78585" lon="4.20232">
        <ele>380.253</ele>
        <time>2019-04-15T12:37:50Z</time>
      </trkpt>
      <trkpt lat="45.78584" lon="4.20224">
        <ele>379.607</ele>
        <time>2019-04-15T12:37:56Z</time>
      </trkpt>
      <trkpt lat="45.78582" lon="4.20218">
        <ele>378.843</ele>
        <time>2019-04-15T12:38:02Z</time>
      </trkpt>
      <trkpt lat="45.7858" lon="4.20211">
        <ele>378.6</ele>
        <time>2019-04-15T12:38:07Z</time>
      </trkpt>
      <trkpt lat="45.78579" lon="4.20201">
        <ele>378</ele>
        <time>2019-04-15T12:38:13Z</time>
      </trkpt>
      <trkpt lat="45.7858" lon="4.2019">
        <ele>377.584</ele>
        <time>2019-04-15T12:38:19Z</time>
      </trkpt>
      <trkpt lat="45.78581" lon="4.20181">
        <ele>377.831</ele>
        <time>2019-04-15T12:38:25Z</time>
      </trkpt>
      <trkpt lat="45.78581" lon="4.20169">
        <ele>378.224</ele>
        <time>2019-04-15T12:38:31Z</time>
      </trkpt>
      <trkpt lat="45.78581" lon="4.2016">
        <ele>378.817</ele>
        <time>2019-04-15T12:38:36Z</time>
      </trkpt>
      <trkpt lat="45.78579" lon="4.2015">
        <ele>379.14</ele>
        <time>2019-04-15T12:38:41Z</time>
      </trkpt>
      <trkpt lat="45.78578" lon="4.2014">
        <ele>379.468</ele>
        <time>2019-04-15T12:38:47Z</time>
      </trkpt>
      <trkpt lat="45.78577" lon="4.2013">
        <ele>379.718</ele>
        <time>2019-04-15T12:38:53Z</time>
      </trkpt>
      <trkpt lat="45.78577" lon="4.2012">
        <ele>379.932</ele>
        <time>2019-04-15T12:38:58Z</time>
      </trkpt>
      <trkpt lat="45.78578" lon="4.20111">
        <ele>380.15</ele>
        <time>2019-04-15T12:39:04Z</time>
      </trkpt>
      <trkpt lat="45.78577" lon="4.201">
        <ele>379.845</ele>
        <time>2019-04-15T12:39:10Z</time>
      </trkpt>
      <trkpt lat="45.78577" lon="4.20094">
        <ele>379.723</ele>
        <time>2019-04-15T12:39:16Z</time>
      </trkpt>
      <trkpt lat="45.78576" lon="4.20084">
        <ele>379.224</ele>
        <time>2019-04-15T12:39:22Z</time>
      </trkpt>
      <trkpt lat="45.78573" lon="4.20075">
        <ele>378.766</ele>
        <time>2019-04-15T12:39:27Z</time>
      </trkpt>
      <trkpt lat="45.78571" lon="4.20063">
        <ele>378.21</ele>
        <time>2019-04-15T12:39:33Z</time>
      </trkpt>
      <trkpt lat="45.78569" lon="4.20051">
        <ele>377.841</ele>
        <time>2019-04-15T12:39:39Z</time>
      </trkpt>
      <trkpt lat="45.78567" lon="4.20042">
        <ele>377.66</ele>
        <time>2019-04-15T12:39:45Z</time>
      </trkpt>
      <trkpt lat="45.78567" lon="4.20042">
        <ele>377.29</ele>
        <time>2019-04-15T12:39:51Z</time>
      </trkpt>
      <trkpt lat="45.78567" lon="4.20042">
        <ele>376.849</ele>
        <time>2019-04-15T12:39:57Z</time>
      </trkpt>
      <trkpt lat="45.78566" lon="4.20042">
        <ele>376.514</ele>
        <time>2019-04-15T12:40:02Z</time>
      </trkpt>
      <trkpt lat="45.78566" lon="4.20043">
        <ele>376.673</ele>
        <time>2019-04-15T12:40:08Z</time>
      </trkpt>
      <trkpt lat="45.78565" lon="4.20043">
        <ele>376.667</ele>
        <time>2019-04-15T12:40:13Z</time>
      </trkpt>
      <trkpt lat="45.78563" lon="4.20043">
        <ele>376.65</ele>
        <time>2019-04-15T12:40:19Z</time>
      </trkpt>
      <trkpt lat="45.78565" lon="4.20042">
        <ele>376.891</ele>
        <time>2019-04-15T12:40:25Z</time>
      </trkpt>
      <trkpt lat="45.78566" lon="4.2004">
        <ele>376.888</ele>
        <time>2019-04-15T12:40:30Z</time>
      </trkpt>
      <trkpt lat="45.78566" lon="4.20037">
        <ele>377.003</ele>
        <time>2019-04-15T12:40:35Z</time>
      </trkpt>
      <trkpt lat="45.78566" lon="4.20037">
        <ele>376.907</ele>
        <time>2019-04-15T12:40:41Z</time>
      </trkpt>
      <trkpt lat="45.78566" lon="4.20036">
        <ele>376.552</ele>
        <time>2019-04-15T12:40:46Z</time>
      </trkpt>
      <trkpt lat="45.78561" lon="4.20032">
        <ele>376.106</ele>
        <time>2019-04-15T12:40:52Z</time>
      </trkpt>
      <trkpt lat="45.78555" lon="4.20027">
        <ele>375.218</ele>
        <time>2019-04-15T12:40:58Z</time>
      </trkpt>
      <trkpt lat="45.7855" lon="4.20019">
        <ele>374.41</ele>
        <time>2019-04-15T12:41:04Z</time>
      </trkpt>
      <trkpt lat="45.78547" lon="4.20016">
        <ele>373.87</ele>
        <time>2019-04-15T12:41:09Z</time>
      </trkpt>
      <trkpt lat="45.78543" lon="4.2001">
        <ele>373.851</ele>
        <time>2019-04-15T12:41:15Z</time>
      </trkpt>
      <trkpt lat="45.78538" lon="4.20002">
        <ele>373.687</ele>
        <time>2019-04-15T12:41:21Z</time>
      </trkpt>
      <trkpt lat="45.78533" lon="4.19995">
        <ele>373.579</ele>
        <time>2019-04-15T12:41:26Z</time>
      </trkpt>
      <trkpt lat="45.78528" lon="4.1999">
        <ele>373.548</ele>
        <time>2019-04-15T12:41:32Z</time>
      </trkpt>
      <trkpt lat="45.78522" lon="4.19984">
        <ele>373.354</ele>
        <time>2019-04-15T12:41:38Z</time>
      </trkpt>
      <trkpt lat="45.78517" lon="4.1998">
        <ele>373.354</ele>
        <time>2019-04-15T12:41:43Z</time>
      </trkpt>
      <trkpt lat="45.78512" lon="4.19975">
        <ele>373.176</ele>
        <time>2019-04-15T12:41:49Z</time>
      </trkpt>
      <trkpt lat="45.78506" lon="4.19971">
        <ele>372.88</ele>
        <time>2019-04-15T12:41:54Z</time>
      </trkpt>
      <trkpt lat="45.78502" lon="4.19965">
        <ele>372.969</ele>
        <time>2019-04-15T12:42:00Z</time>
      </trkpt>
      <trkpt lat="45.78495" lon="4.19958">
        <ele>373.128</ele>
        <time>2019-04-15T12:42:06Z</time>
      </trkpt>
      <trkpt lat="45.7849" lon="4.1995">
        <ele>373.2</ele>
        <time>2019-04-15T12:42:11Z</time>
      </trkpt>
      <trkpt lat="45.78486" lon="4.19941">
        <ele>373.659</ele>
        <time>2019-04-15T12:42:17Z</time>
      </trkpt>
      <trkpt lat="45.78483" lon="4.19933">
        <ele>374.1</ele>
        <time>2019-04-15T12:42:22Z</time>
      </trkpt>
      <trkpt lat="45.7848" lon="4.19921">
        <ele>374.447</ele>
        <time>2019-04-15T12:42:27Z</time>
      </trkpt>
      <trkpt lat="45.78479" lon="4.19911">
        <ele>374.758</ele>
        <time>2019-04-15T12:42:33Z</time>
      </trkpt>
      <trkpt lat="45.78479" lon="4.19902">
        <ele>375.012</ele>
        <time>2019-04-15T12:42:38Z</time>
      </trkpt>
      <trkpt lat="45.78479" lon="4.19891">
        <ele>375.47</ele>
        <time>2019-04-15T12:42:44Z</time>
      </trkpt>
      <trkpt lat="45.78477" lon="4.19879">
        <ele>376.532</ele>
        <time>2019-04-15T12:42:50Z</time>
      </trkpt>
      <trkpt lat="45.78478" lon="4.19871">
        <ele>377.42</ele>
        <time>2019-04-15T12:42:56Z</time>
      </trkpt>
      <trkpt lat="45.78479" lon="4.19861">
        <ele>377.227</ele>
        <time>2019-04-15T12:43:02Z</time>
      </trkpt>
      <trkpt lat="45.78478" lon="4.19853">
        <ele>377.112</ele>
        <time>2019-04-15T12:43:07Z</time>
      </trkpt>
      <trkpt lat="45.78475" lon="4.19842">
        <ele>376.999</ele>
        <time>2019-04-15T12:43:13Z</time>
      </trkpt>
      <trkpt lat="45.78474" lon="4.19833">
        <ele>376.774</ele>
        <time>2019-04-15T12:43:19Z</time>
      </trkpt>
      <trkpt lat="45.78473" lon="4.19825">
        <ele>376.617</ele>
        <time>2019-04-15T12:43:24Z</time>
      </trkpt>
      <trkpt lat="45.78472" lon="4.19817">
        <ele>376.468</ele>
        <time>2019-04-15T12:43:29Z</time>
      </trkpt>
      <trkpt lat="45.78469" lon="4.19805">
        <ele>376.442</ele>
        <time>2019-04-15T12:43:35Z</time>
      </trkpt>
      <trkpt lat="45.78466" lon="4.19794">
        <ele>376.229</ele>
        <time>2019-04-15T12:43:41Z</time>
      </trkpt>
      <trkpt lat="45.78464" lon="4.19786">
        <ele>376.378</ele>
        <time>2019-04-15T12:43:46Z</time>
      </trkpt>
      <trkpt lat="45.7846" lon="4.1978">
        <ele>376.411</ele>
        <time>2019-04-15T12:43:51Z</time>
      </trkpt>
      <trkpt lat="45.78456" lon="4.19773">
        <ele>376.209</ele>
        <time>2019-04-15T12:43:56Z</time>
      </trkpt>
      <trkpt lat="45.78451" lon="4.19766">
        <ele>375.679</ele>
        <time>2019-04-15T12:44:02Z</time>
      </trkpt>
      <trkpt lat="45.78444" lon="4.19758">
        <ele>375.415</ele>
        <time>2019-04-15T12:44:07Z</time>
      </trkpt>
      <trkpt lat="45.78438" lon="4.19752">
        <ele>375.088</ele>
        <time>2019-04-15T12:44:13Z</time>
      </trkpt>
      <trkpt lat="45.78431" lon="4.19746">
        <ele>374.893</ele>
        <time>2019-04-15T12:44:19Z</time>
      </trkpt>
      <trkpt lat="45.78426" lon="4.19741">
        <ele>374.454</ele>
        <time>2019-04-15T12:44:24Z</time>
      </trkpt>
      <trkpt lat="45.78421" lon="4.19735">
        <ele>374.002</ele>
        <time>2019-04-15T12:44:30Z</time>
      </trkpt>
      <trkpt lat="45.78415" lon="4.19727">
        <ele>373.585</ele>
        <time>2019-04-15T12:44:36Z</time>
      </trkpt>
      <trkpt lat="45.7841" lon="4.19719">
        <ele>373.501</ele>
        <time>2019-04-15T12:44:41Z</time>
      </trkpt>
      <trkpt lat="45.78404" lon="4.19708">
        <ele>373.374</ele>
        <time>2019-04-15T12:44:47Z</time>
      </trkpt>
      <trkpt lat="45.78398" lon="4.19701">
        <ele>373.337</ele>
        <time>2019-04-15T12:44:53Z</time>
      </trkpt>
      <trkpt lat="45.78394" lon="4.19693">
        <ele>373.11</ele>
        <time>2019-04-15T12:44:58Z</time>
      </trkpt>
      <trkpt lat="45.7839" lon="4.19684">
        <ele>373.017</ele>
        <time>2019-04-15T12:45:04Z</time>
      </trkpt>
      <trkpt lat="45.78388" lon="4.19674">
        <ele>373.453</ele>
        <time>2019-04-15T12:45:10Z</time>
      </trkpt>
      <trkpt lat="45.78385" lon="4.19663">
        <ele>373.973</ele>
        <time>2019-04-15T12:45:16Z</time>
      </trkpt>
      <trkpt lat="45.78383" lon="4.19654">
        <ele>374.255</ele>
        <time>2019-04-15T12:45:21Z</time>
      </trkpt>
      <trkpt lat="45.7838" lon="4.19643">
        <ele>374.779</ele>
        <time>2019-04-15T12:45:27Z</time>
      </trkpt>
      <trkpt lat="45.78379" lon="4.19635">
        <ele>375</ele>
        <time>2019-04-15T12:45:32Z</time>
      </trkpt>
      <trkpt lat="45.78378" lon="4.19627">
        <ele>375.104</ele>
        <time>2019-04-15T12:45:38Z</time>
      </trkpt>
      <trkpt lat="45.78377" lon="4.19616">
        <ele>375.378</ele>
        <time>2019-04-15T12:45:44Z</time>
      </trkpt>
      <trkpt lat="45.78376" lon="4.19608">
        <ele>375.284</ele>
        <time>2019-04-15T12:45:49Z</time>
      </trkpt>
      <trkpt lat="45.78374" lon="4.19598">
        <ele>375.177</ele>
        <time>2019-04-15T12:45:54Z</time>
      </trkpt>
      <trkpt lat="45.7837" lon="4.19585">
        <ele>374.712</ele>
        <time>2019-04-15T12:46:00Z</time>
      </trkpt>
      <trkpt lat="45.7837" lon="4.19575">
        <ele>374.364</ele>
        <time>2019-04-15T12:46:06Z</time>
      </trkpt>
      <trkpt lat="45.78369" lon="4.19564">
        <ele>374.244</ele>
        <time>2019-04-15T12:46:12Z</time>
      </trkpt>
      <trkpt lat="45.78368" lon="4.19555">
        <ele>374.374</ele>
        <time>2019-04-15T12:46:17Z</time>
      </trkpt>
      <trkpt lat="45.78368" lon="4.19542">
        <ele>374.841</ele>
        <time>2019-04-15T12:46:23Z</time>
      </trkpt>
      <trkpt lat="45.78367" lon="4.19531">
        <ele>375.001</ele>
        <time>2019-04-15T12:46:29Z</time>
      </trkpt>
      <trkpt lat="45.78367" lon="4.1952">
        <ele>374.644</ele>
        <time>2019-04-15T12:46:35Z</time>
      </trkpt>
      <trkpt lat="45.78366" lon="4.19511">
        <ele>374.115</ele>
        <time>2019-04-15T12:46:40Z</time>
      </trkpt>
      <trkpt lat="45.78365" lon="4.19501">
        <ele>373.766</ele>
        <time>2019-04-15T12:46:46Z</time>
      </trkpt>
      <trkpt lat="45.78364" lon="4.19491">
        <ele>373.762</ele>
        <time>2019-04-15T12:46:52Z</time>
      </trkpt>
      <trkpt lat="45.78363" lon="4.1948">
        <ele>373.787</ele>
        <time>2019-04-15T12:46:58Z</time>
      </trkpt>
      <trkpt lat="45.78362" lon="4.19471">
        <ele>373.286</ele>
        <time>2019-04-15T12:47:03Z</time>
      </trkpt>
      <trkpt lat="45.78362" lon="4.19459">
        <ele>372.783</ele>
        <time>2019-04-15T12:47:09Z</time>
      </trkpt>
      <trkpt lat="45.78361" lon="4.19449">
        <ele>372.768</ele>
        <time>2019-04-15T12:47:14Z</time>
      </trkpt>
      <trkpt lat="45.78361" lon="4.19439">
        <ele>372.947</ele>
        <time>2019-04-15T12:47:20Z</time>
      </trkpt>
      <trkpt lat="45.7836" lon="4.19429">
        <ele>373.144</ele>
        <time>2019-04-15T12:47:25Z</time>
      </trkpt>
      <trkpt lat="45.78359" lon="4.19419">
        <ele>373.273</ele>
        <time>2019-04-15T12:47:30Z</time>
      </trkpt>
      <trkpt lat="45.7836" lon="4.1941">
        <ele>373.157</ele>
        <time>2019-04-15T12:47:36Z</time>
      </trkpt>
      <trkpt lat="45.7836" lon="4.19401">
        <ele>372.968</ele>
        <time>2019-04-15T12:47:41Z</time>
      </trkpt>
      <trkpt lat="45.7836" lon="4.19391">
        <ele>372.85</ele>
        <time>2019-04-15T12:47:47Z</time>
      </trkpt>
      <trkpt lat="45.7836" lon="4.19382">
        <ele>373.036</ele>
        <time>2019-04-15T12:47:53Z</time>
      </trkpt>
      <trkpt lat="45.78359" lon="4.19369">
        <ele>373.367</ele>
        <time>2019-04-15T12:47:59Z</time>
      </trkpt>
      <trkpt lat="45.78359" lon="4.1936">
        <ele>373.748</ele>
        <time>2019-04-15T12:48:04Z</time>
      </trkpt>
      <trkpt lat="45.78359" lon="4.19349">
        <ele>374.107</ele>
        <time>2019-04-15T12:48:10Z</time>
      </trkpt>
      <trkpt lat="45.78358" lon="4.19337">
        <ele>374.591</ele>
        <time>2019-04-15T12:48:16Z</time>
      </trkpt>
      <trkpt lat="45.78358" lon="4.19327">
        <ele>374.999</ele>
        <time>2019-04-15T12:48:22Z</time>
      </trkpt>
      <trkpt lat="45.78357" lon="4.19318">
        <ele>375.165</ele>
        <time>2019-04-15T12:48:28Z</time>
      </trkpt>
      <trkpt lat="45.78357" lon="4.19307">
        <ele>375.219</ele>
        <time>2019-04-15T12:48:33Z</time>
      </trkpt>
      <trkpt lat="45.78357" lon="4.19296">
        <ele>375.368</ele>
        <time>2019-04-15T12:48:39Z</time>
      </trkpt>
      <trkpt lat="45.78356" lon="4.19285">
        <ele>375.265</ele>
        <time>2019-04-15T12:48:44Z</time>
      </trkpt>
      <trkpt lat="45.78354" lon="4.19276">
        <ele>375.097</ele>
        <time>2019-04-15T12:48:49Z</time>
      </trkpt>
      <trkpt lat="45.78353" lon="4.19268">
        <ele>374.795</ele>
        <time>2019-04-15T12:48:54Z</time>
      </trkpt>
      <trkpt lat="45.78352" lon="4.19256">
        <ele>374.645</ele>
        <time>2019-04-15T12:49:00Z</time>
      </trkpt>
      <trkpt lat="45.78351" lon="4.19244">
        <ele>374.026</ele>
        <time>2019-04-15T12:49:06Z</time>
      </trkpt>
      <trkpt lat="45.78351" lon="4.19235">
        <ele>373.765</ele>
        <time>2019-04-15T12:49:12Z</time>
      </trkpt>
      <trkpt lat="45.78351" lon="4.19227">
        <ele>373.643</ele>
        <time>2019-04-15T12:49:17Z</time>
      </trkpt>
      <trkpt lat="45.78349" lon="4.19216">
        <ele>373.287</ele>
        <time>2019-04-15T12:49:23Z</time>
      </trkpt>
      <trkpt lat="45.78348" lon="4.19206">
        <ele>373.009</ele>
        <time>2019-04-15T12:49:28Z</time>
      </trkpt>
      <trkpt lat="45.78349" lon="4.19194">
        <ele>373.046</ele>
        <time>2019-04-15T12:49:34Z</time>
      </trkpt>
      <trkpt lat="45.78346" lon="4.19183">
        <ele>373.14</ele>
        <time>2019-04-15T12:49:39Z</time>
      </trkpt>
      <trkpt lat="45.78346" lon="4.19174">
        <ele>373.261</ele>
        <time>2019-04-15T12:49:45Z</time>
      </trkpt>
      <trkpt lat="45.78345" lon="4.19164">
        <ele>373.594</ele>
        <time>2019-04-15T12:49:50Z</time>
      </trkpt>
      <trkpt lat="45.78344" lon="4.19151">
        <ele>374.389</ele>
        <time>2019-04-15T12:49:56Z</time>
      </trkpt>
      <trkpt lat="45.78341" lon="4.19139">
        <ele>374.441</ele>
        <time>2019-04-15T12:50:02Z</time>
      </trkpt>
      <trkpt lat="45.78339" lon="4.1913">
        <ele>374.436</ele>
        <time>2019-04-15T12:50:07Z</time>
      </trkpt>
      <trkpt lat="45.78338" lon="4.1912">
        <ele>374.455</ele>
        <time>2019-04-15T12:50:13Z</time>
      </trkpt>
      <trkpt lat="45.78338" lon="4.19109">
        <ele>374.479</ele>
        <time>2019-04-15T12:50:19Z</time>
      </trkpt>
      <trkpt lat="45.78337" lon="4.19098">
        <ele>374.609</ele>
        <time>2019-04-15T12:50:25Z</time>
      </trkpt>
      <trkpt lat="45.78336" lon="4.19094">
        <ele>374.648</ele>
        <time>2019-04-15T12:50:30Z</time>
      </trkpt>
      <trkpt lat="45.78336" lon="4.19088">
        <ele>374.511</ele>
        <time>2019-04-15T12:50:36Z</time>
      </trkpt>
      <trkpt lat="45.78337" lon="4.19078">
        <ele>373.766</ele>
        <time>2019-04-15T12:50:41Z</time>
      </trkpt>
      <trkpt lat="45.78335" lon="4.19069">
        <ele>372.94</ele>
        <time>2019-04-15T12:50:46Z</time>
      </trkpt>
      <trkpt lat="45.78335" lon="4.19059">
        <ele>371.82</ele>
        <time>2019-04-15T12:50:52Z</time>
      </trkpt>
      <trkpt lat="45.78339" lon="4.19053">
        <ele>371.44</ele>
        <time>2019-04-15T12:50:57Z</time>
      </trkpt>
      <trkpt lat="45.78339" lon="4.19052">
        <ele>371.26</ele>
        <time>2019-04-15T12:51:03Z</time>
      </trkpt>
      <trkpt lat="45.78334" lon="4.19043">
        <ele>371.017</ele>
        <time>2019-04-15T12:51:09Z</time>
      </trkpt>
      <trkpt lat="45.78333" lon="4.19031">
        <ele>370.435</ele>
        <time>2019-04-15T12:51:15Z</time>
      </trkpt>
      <trkpt lat="45.78331" lon="4.19021">
        <ele>370.107</ele>
        <time>2019-04-15T12:51:20Z</time>
      </trkpt>
      <trkpt lat="45.78329" lon="4.1901">
        <ele>370.181</ele>
        <time>2019-04-15T12:51:26Z</time>
      </trkpt>
      <trkpt lat="45.78327" lon="4.18998">
        <ele>370.002</ele>
        <time>2019-04-15T12:51:32Z</time>
      </trkpt>
      <trkpt lat="45.78325" lon="4.18989">
        <ele>369.218</ele>
        <time>2019-04-15T12:51:38Z</time>
      </trkpt>
      <trkpt lat="45.78321" lon="4.18983">
        <ele>368.595</ele>
        <time>2019-04-15T12:51:43Z</time>
      </trkpt>
      <trkpt lat="45.78314" lon="4.18975">
        <ele>367.944</ele>
        <time>2019-04-15T12:51:49Z</time>
      </trkpt>
      <trkpt lat="45.78305" lon="4.18968">
        <ele>367.169</ele>
        <time>2019-04-15T12:51:54Z</time>
      </trkpt>
      <trkpt lat="45.78298" lon="4.18966">
        <ele>366.02</ele>
        <time>2019-04-15T12:52:00Z</time>
      </trkpt>
      <trkpt lat="45.78293" lon="4.18963">
        <ele>365.316</ele>
        <time>2019-04-15T12:52:05Z</time>
      </trkpt>
      <trkpt lat="45.78286" lon="4.18957">
        <ele>365.02</ele>
        <time>2019-04-15T12:52:11Z</time>
      </trkpt>
      <trkpt lat="45.78284" lon="4.18959">
        <ele>364.852</ele>
        <time>2019-04-15T12:52:17Z</time>
      </trkpt>
      <trkpt lat="45.78279" lon="4.1896">
        <ele>365.085</ele>
        <time>2019-04-15T12:52:23Z</time>
      </trkpt>
      <trkpt lat="45.78272" lon="4.18953">
        <ele>364.632</ele>
        <time>2019-04-15T12:52:29Z</time>
      </trkpt>
      <trkpt lat="45.78267" lon="4.18952">
        <ele>363.979</ele>
        <time>2019-04-15T12:52:35Z</time>
      </trkpt>
      <trkpt lat="45.78259" lon="4.18947">
        <ele>363.371</ele>
        <time>2019-04-15T12:52:40Z</time>
      </trkpt>
      <trkpt lat="45.78254" lon="4.18942">
        <ele>363.595</ele>
        <time>2019-04-15T12:52:46Z</time>
      </trkpt>
      <trkpt lat="45.78249" lon="4.1894">
        <ele>363.619</ele>
        <time>2019-04-15T12:52:51Z</time>
      </trkpt>
      <trkpt lat="45.78244" lon="4.18936">
        <ele>363.41</ele>
        <time>2019-04-15T12:52:57Z</time>
      </trkpt>
      <trkpt lat="45.78237" lon="4.18931">
        <ele>363.04</ele>
        <time>2019-04-15T12:53:03Z</time>
      </trkpt>
      <trkpt lat="45.78231" lon="4.18927">
        <ele>362.159</ele>
        <time>2019-04-15T12:53:08Z</time>
      </trkpt>
      <trkpt lat="45.78225" lon="4.18926">
        <ele>361.21</ele>
        <time>2019-04-15T12:53:13Z</time>
      </trkpt>
      <trkpt lat="45.78218" lon="4.18922">
        <ele>360.661</ele>
        <time>2019-04-15T12:53:19Z</time>
      </trkpt>
      <trkpt lat="45.78211" lon="4.18916">
        <ele>360.413</ele>
        <time>2019-04-15T12:53:25Z</time>
      </trkpt>
      <trkpt lat="45.78206" lon="4.18913">
        <ele>359.862</ele>
        <time>2019-04-15T12:53:31Z</time>
      </trkpt>
      <trkpt lat="45.78203" lon="4.18912">
        <ele>359.608</ele>
        <time>2019-04-15T12:53:36Z</time>
      </trkpt>
      <trkpt lat="45.78202" lon="4.18912">
        <ele>359.782</ele>
        <time>2019-04-15T12:53:42Z</time>
      </trkpt>
      <trkpt lat="45.78197" lon="4.1891">
        <ele>359.329</ele>
        <time>2019-04-15T12:53:48Z</time>
      </trkpt>
      <trkpt lat="45.78192" lon="4.18907">
        <ele>358.975</ele>
        <time>2019-04-15T12:53:53Z</time>
      </trkpt>
      <trkpt lat="45.78188" lon="4.18904">
        <ele>358.639</ele>
        <time>2019-04-15T12:53:59Z</time>
      </trkpt>
      <trkpt lat="45.78187" lon="4.18905">
        <ele>358.728</ele>
        <time>2019-04-15T12:54:05Z</time>
      </trkpt>
      <trkpt lat="45.78187" lon="4.18906">
        <ele>358.936</ele>
        <time>2019-04-15T12:54:11Z</time>
      </trkpt>
      <trkpt lat="45.78185" lon="4.18904">
        <ele>359.876</ele>
        <time>2019-04-15T12:54:17Z</time>
      </trkpt>
      <trkpt lat="45.78181" lon="4.18899">
        <ele>359.605</ele>
        <time>2019-04-15T12:54:23Z</time>
      </trkpt>
      <trkpt lat="45.78174" lon="4.18893">
        <ele>359.048</ele>
        <time>2019-04-15T12:54:29Z</time>
      </trkpt>
      <trkpt lat="45.78167" lon="4.1889">
        <ele>358.931</ele>
        <time>2019-04-15T12:54:34Z</time>
      </trkpt>
      <trkpt lat="45.78159" lon="4.18888">
        <ele>358.662</ele>
        <time>2019-04-15T12:54:40Z</time>
      </trkpt>
      <trkpt lat="45.78153" lon="4.18887">
        <ele>358.652</ele>
        <time>2019-04-15T12:54:46Z</time>
      </trkpt>
      <trkpt lat="45.78145" lon="4.18885">
        <ele>358.632</ele>
        <time>2019-04-15T12:54:52Z</time>
      </trkpt>
      <trkpt lat="45.78139" lon="4.18884">
        <ele>358.563</ele>
        <time>2019-04-15T12:54:58Z</time>
      </trkpt>
      <trkpt lat="45.78132" lon="4.18885">
        <ele>358.785</ele>
        <time>2019-04-15T12:55:03Z</time>
      </trkpt>
      <trkpt lat="45.78124" lon="4.18885">
        <ele>358.736</ele>
        <time>2019-04-15T12:55:09Z</time>
      </trkpt>
      <trkpt lat="45.78118" lon="4.18888">
        <ele>358.816</ele>
        <time>2019-04-15T12:55:15Z</time>
      </trkpt>
      <trkpt lat="45.78114" lon="4.18891">
        <ele>359.224</ele>
        <time>2019-04-15T12:55:20Z</time>
      </trkpt>
      <trkpt lat="45.78108" lon="4.18893">
        <ele>359.28</ele>
        <time>2019-04-15T12:55:26Z</time>
      </trkpt>
      <trkpt lat="45.78099" lon="4.18892">
        <ele>359.026</ele>
        <time>2019-04-15T12:55:31Z</time>
      </trkpt>
      <trkpt lat="45.78092" lon="4.18889">
        <ele>359.289</ele>
        <time>2019-04-15T12:55:37Z</time>
      </trkpt>
      <trkpt lat="45.78083" lon="4.18889">
        <ele>359.504</ele>
        <time>2019-04-15T12:55:42Z</time>
      </trkpt>
      <trkpt lat="45.78075" lon="4.18889">
        <ele>358.975</ele>
        <time>2019-04-15T12:55:48Z</time>
      </trkpt>
      <trkpt lat="45.78069" lon="4.1889">
        <ele>358.268</ele>
        <time>2019-04-15T12:55:54Z</time>
      </trkpt>
      <trkpt lat="45.78062" lon="4.18893">
        <ele>357.989</ele>
        <time>2019-04-15T12:56:00Z</time>
      </trkpt>
      <trkpt lat="45.78055" lon="4.18895">
        <ele>358.14</ele>
        <time>2019-04-15T12:56:05Z</time>
      </trkpt>
      <trkpt lat="45.78047" lon="4.18894">
        <ele>358.073</ele>
        <time>2019-04-15T12:56:10Z</time>
      </trkpt>
      <trkpt lat="45.78041" lon="4.18895">
        <ele>358.014</ele>
        <time>2019-04-15T12:56:15Z</time>
      </trkpt>
      <trkpt lat="45.78034" lon="4.18897">
        <ele>357.98</ele>
        <time>2019-04-15T12:56:21Z</time>
      </trkpt>
      <trkpt lat="45.78028" lon="4.18899">
        <ele>357.716</ele>
        <time>2019-04-15T12:56:26Z</time>
      </trkpt>
      <trkpt lat="45.78022" lon="4.18897">
        <ele>357.272</ele>
        <time>2019-04-15T12:56:32Z</time>
      </trkpt>
      <trkpt lat="45.78014" lon="4.18894">
        <ele>356.99</ele>
        <time>2019-04-15T12:56:38Z</time>
      </trkpt>
      <trkpt lat="45.78007" lon="4.18891">
        <ele>357.027</ele>
        <time>2019-04-15T12:56:44Z</time>
      </trkpt>
      <trkpt lat="45.78002" lon="4.18889">
        <ele>357.303</ele>
        <time>2019-04-15T12:56:50Z</time>
      </trkpt>
      <trkpt lat="45.77998" lon="4.18887">
        <ele>357.516</ele>
        <time>2019-04-15T12:56:55Z</time>
      </trkpt>
      <trkpt lat="45.7799" lon="4.18884">
        <ele>357.711</ele>
        <time>2019-04-15T12:57:00Z</time>
      </trkpt>
      <trkpt lat="45.77985" lon="4.18882">
        <ele>358.499</ele>
        <time>2019-04-15T12:57:06Z</time>
      </trkpt>
      <trkpt lat="45.77982" lon="4.1888">
        <ele>359.13</ele>
        <time>2019-04-15T12:57:11Z</time>
      </trkpt>
      <trkpt lat="45.77978" lon="4.1888">
        <ele>359.992</ele>
        <time>2019-04-15T12:57:17Z</time>
      </trkpt>
      <trkpt lat="45.77975" lon="4.18878">
        <ele>360.727</ele>
        <time>2019-04-15T12:57:22Z</time>
      </trkpt>
      <trkpt lat="45.77974" lon="4.18873">
        <ele>360.916</ele>
        <time>2019-04-15T12:57:28Z</time>
      </trkpt>
      <trkpt lat="45.77975" lon="4.18872">
        <ele>361.368</ele>
        <time>2019-04-15T12:57:33Z</time>
      </trkpt>
      <trkpt lat="45.77975" lon="4.18872">
        <ele>363.061</ele>
        <time>2019-04-15T12:57:39Z</time>
      </trkpt>
      <trkpt lat="45.77973" lon="4.18875">
        <ele>363.147</ele>
        <time>2019-04-15T12:57:45Z</time>
      </trkpt>
      <trkpt lat="45.77972" lon="4.18871">
        <ele>363.234</ele>
        <time>2019-04-15T12:57:51Z</time>
      </trkpt>
      <trkpt lat="45.77973" lon="4.18868">
        <ele>363.379</ele>
        <time>2019-04-15T12:57:57Z</time>
      </trkpt>
      <trkpt lat="45.77972" lon="4.18869">
        <ele>363.449</ele>
        <time>2019-04-15T12:58:03Z</time>
      </trkpt>
      <trkpt lat="45.77974" lon="4.18869">
        <ele>363.483</ele>
        <time>2019-04-15T12:58:08Z</time>
      </trkpt>
      <trkpt lat="45.7797" lon="4.18874">
        <ele>363.568</ele>
        <time>2019-04-15T12:58:14Z</time>
      </trkpt>
      <trkpt lat="45.77969" lon="4.18874">
        <ele>363.795</ele>
        <time>2019-04-15T12:58:19Z</time>
      </trkpt>
      <trkpt lat="45.77969" lon="4.18874">
        <ele>363.861</ele>
        <time>2019-04-15T12:58:25Z</time>
      </trkpt>
      <trkpt lat="45.77969" lon="4.18874">
        <ele>364.029</ele>
        <time>2019-04-15T12:58:30Z</time>
      </trkpt>
      <trkpt lat="45.77969" lon="4.18874">
        <ele>364.438</ele>
        <time>2019-04-15T12:58:36Z</time>
      </trkpt>
      <trkpt lat="45.77969" lon="4.18874">
        <ele>364.845</ele>
        <time>2019-04-15T12:58:41Z</time>
      </trkpt>
      <trkpt lat="45.77969" lon="4.18874">
        <ele>365.17</ele>
        <time>2019-04-15T12:58:47Z</time>
      </trkpt>
      <trkpt lat="45.77969" lon="4.18874">
        <ele>365.53</ele>
        <time>2019-04-15T12:58:53Z</time>
      </trkpt>
      <trkpt lat="45.77969" lon="4.18874">
        <ele>365.894</ele>
        <time>2019-04-15T12:58:59Z</time>
      </trkpt>
      <trkpt lat="45.77969" lon="4.18874">
        <ele>366.08</ele>
        <time>2019-04-15T12:59:05Z</time>
      </trkpt>
      <trkpt lat="45.77969" lon="4.18874">
        <ele>366.124</ele>
        <time>2019-04-15T12:59:11Z</time>
      </trkpt>
      <trkpt lat="45.77969" lon="4.18874">
        <ele>366.188</ele>
        <time>2019-04-15T12:59:16Z</time>
      </trkpt>
      <trkpt lat="45.77969" lon="4.18874">
        <ele>366.316</ele>
        <time>2019-04-15T12:59:21Z</time>
      </trkpt>
      <trkpt lat="45.77969" lon="4.18874">
        <ele>366.617</ele>
        <time>2019-04-15T12:59:27Z</time>
      </trkpt>
      <trkpt lat="45.77969" lon="4.18874">
        <ele>366.947</ele>
        <time>2019-04-15T12:59:33Z</time>
      </trkpt>
      <trkpt lat="45.77969" lon="4.18874">
        <ele>367.27</ele>
        <time>2019-04-15T12:59:39Z</time>
      </trkpt>
      <trkpt lat="45.77969" lon="4.18874">
        <ele>367.495</ele>
        <time>2019-04-15T12:59:45Z</time>
      </trkpt>
      <trkpt lat="45.77969" lon="4.18874">
        <ele>368.198</ele>
        <time>2019-04-15T12:59:50Z</time>
      </trkpt>
      <trkpt lat="45.77969" lon="4.18871">
        <ele>370.407</ele>
        <time>2019-04-15T12:59:56Z</time>
      </trkpt>
      <trkpt lat="45.77966" lon="4.1886">
        <ele>372.311</ele>
        <time>2019-04-15T13:00:02Z</time>
      </trkpt>
      <trkpt lat="45.77963" lon="4.18854">
        <ele>373.252</ele>
        <time>2019-04-15T13:00:07Z</time>
      </trkpt>
      <trkpt lat="45.7796" lon="4.18849">
        <ele>374.409</ele>
        <time>2019-04-15T13:00:13Z</time>
      </trkpt>
      <trkpt lat="45.77956" lon="4.18847">
        <ele>374.685</ele>
        <time>2019-04-15T13:00:19Z</time>
      </trkpt>
      <trkpt lat="45.77953" lon="4.18845">
        <ele>374.254</ele>
        <time>2019-04-15T13:00:25Z</time>
      </trkpt>
      <trkpt lat="45.7795" lon="4.18842">
        <ele>373.515</ele>
        <time>2019-04-15T13:00:30Z</time>
      </trkpt>
      <trkpt lat="45.77945" lon="4.18838">
        <ele>372.491</ele>
        <time>2019-04-15T13:00:36Z</time>
      </trkpt>
      <trkpt lat="45.7794" lon="4.18829">
        <ele>371.364</ele>
        <time>2019-04-15T13:00:42Z</time>
      </trkpt>
      <trkpt lat="45.77936" lon="4.18823">
        <ele>370.888</ele>
        <time>2019-04-15T13:00:48Z</time>
      </trkpt>
      <trkpt lat="45.77934" lon="4.18814">
        <ele>370.358</ele>
        <time>2019-04-15T13:00:54Z</time>
      </trkpt>
      <trkpt lat="45.77929" lon="4.18804">
        <ele>370.106</ele>
        <time>2019-04-15T13:01:00Z</time>
      </trkpt>
      <trkpt lat="45.77923" lon="4.18799">
        <ele>369.588</ele>
        <time>2019-04-15T13:01:07Z</time>
      </trkpt>
      <trkpt lat="45.77918" lon="4.18796">
        <ele>369.189</ele>
        <time>2019-04-15T13:01:13Z</time>
      </trkpt>
      <trkpt lat="45.77914" lon="4.18794">
        <ele>368.845</ele>
        <time>2019-04-15T13:01:18Z</time>
      </trkpt>
      <trkpt lat="45.77908" lon="4.18789">
        <ele>368.718</ele>
        <time>2019-04-15T13:01:24Z</time>
      </trkpt>
      <trkpt lat="45.77902" lon="4.18784">
        <ele>368.514</ele>
        <time>2019-04-15T13:01:30Z</time>
      </trkpt>
      <trkpt lat="45.77896" lon="4.18782">
        <ele>368.239</ele>
        <time>2019-04-15T13:01:36Z</time>
      </trkpt>
      <trkpt lat="45.77892" lon="4.18778">
        <ele>368.202</ele>
        <time>2019-04-15T13:01:42Z</time>
      </trkpt>
      <trkpt lat="45.77881" lon="4.18774">
        <ele>367.946</ele>
        <time>2019-04-15T13:01:48Z</time>
      </trkpt>
      <trkpt lat="45.77876" lon="4.1877">
        <ele>367.724</ele>
        <time>2019-04-15T13:01:53Z</time>
      </trkpt>
      <trkpt lat="45.7787" lon="4.18766">
        <ele>367.499</ele>
        <time>2019-04-15T13:01:59Z</time>
      </trkpt>
      <trkpt lat="45.77865" lon="4.18762">
        <ele>367.329</ele>
        <time>2019-04-15T13:02:04Z</time>
      </trkpt>
      <trkpt lat="45.7786" lon="4.18755">
        <ele>367.642</ele>
        <time>2019-04-15T13:02:10Z</time>
      </trkpt>
      <trkpt lat="45.77854" lon="4.18755">
        <ele>368.095</ele>
        <time>2019-04-15T13:02:16Z</time>
      </trkpt>
      <trkpt lat="45.77849" lon="4.18751">
        <ele>368.317</ele>
        <time>2019-04-15T13:02:21Z</time>
      </trkpt>
      <trkpt lat="45.77845" lon="4.18749">
        <ele>368.591</ele>
        <time>2019-04-15T13:02:27Z</time>
      </trkpt>
      <trkpt lat="45.77839" lon="4.18747">
        <ele>368.31</ele>
        <time>2019-04-15T13:02:32Z</time>
      </trkpt>
      <trkpt lat="45.77833" lon="4.18748">
        <ele>368.133</ele>
        <time>2019-04-15T13:02:37Z</time>
      </trkpt>
      <trkpt lat="45.77827" lon="4.18748">
        <ele>367.734</ele>
        <time>2019-04-15T13:02:43Z</time>
      </trkpt>
      <trkpt lat="45.77824" lon="4.18748">
        <ele>367.249</ele>
        <time>2019-04-15T13:02:48Z</time>
      </trkpt>
      <trkpt lat="45.77815" lon="4.18748">
        <ele>366.906</ele>
        <time>2019-04-15T13:02:54Z</time>
      </trkpt>
      <trkpt lat="45.7781" lon="4.18751">
        <ele>366.785</ele>
        <time>2019-04-15T13:02:59Z</time>
      </trkpt>
      <trkpt lat="45.77804" lon="4.18752">
        <ele>366.315</ele>
        <time>2019-04-15T13:03:05Z</time>
      </trkpt>
      <trkpt lat="45.77798" lon="4.18756">
        <ele>365.772</ele>
        <time>2019-04-15T13:03:10Z</time>
      </trkpt>
      <trkpt lat="45.77792" lon="4.18761">
        <ele>365.655</ele>
        <time>2019-04-15T13:03:16Z</time>
      </trkpt>
      <trkpt lat="45.77786" lon="4.18765">
        <ele>365.701</ele>
        <time>2019-04-15T13:03:21Z</time>
      </trkpt>
      <trkpt lat="45.77781" lon="4.18771">
        <ele>365.868</ele>
        <time>2019-04-15T13:03:27Z</time>
      </trkpt>
      <trkpt lat="45.77777" lon="4.18777">
        <ele>366.172</ele>
        <time>2019-04-15T13:03:32Z</time>
      </trkpt>
      <trkpt lat="45.77773" lon="4.18783">
        <ele>366.262</ele>
        <time>2019-04-15T13:03:37Z</time>
      </trkpt>
      <trkpt lat="45.77766" lon="4.1879">
        <ele>366.606</ele>
        <time>2019-04-15T13:03:43Z</time>
      </trkpt>
      <trkpt lat="45.77761" lon="4.18794">
        <ele>366.539</ele>
        <time>2019-04-15T13:03:48Z</time>
      </trkpt>
      <trkpt lat="45.77754" lon="4.18799">
        <ele>366.565</ele>
        <time>2019-04-15T13:03:54Z</time>
      </trkpt>
      <trkpt lat="45.77748" lon="4.18801">
        <ele>366.304</ele>
        <time>2019-04-15T13:04:00Z</time>
      </trkpt>
      <trkpt lat="45.77742" lon="4.18803">
        <ele>366.182</ele>
        <time>2019-04-15T13:04:05Z</time>
      </trkpt>
      <trkpt lat="45.77735" lon="4.18803">
        <ele>366.164</ele>
        <time>2019-04-15T13:04:10Z</time>
      </trkpt>
      <trkpt lat="45.77726" lon="4.18799">
        <ele>365.855</ele>
        <time>2019-04-15T13:04:16Z</time>
      </trkpt>
      <trkpt lat="45.77721" lon="4.18796">
        <ele>366.026</ele>
        <time>2019-04-15T13:04:21Z</time>
      </trkpt>
      <trkpt lat="45.77714" lon="4.18794">
        <ele>365.986</ele>
        <time>2019-04-15T13:04:27Z</time>
      </trkpt>
      <trkpt lat="45.77707" lon="4.18793">
        <ele>366.251</ele>
        <time>2019-04-15T13:04:33Z</time>
      </trkpt>
      <trkpt lat="45.77699" lon="4.1879">
        <ele>366.337</ele>
        <time>2019-04-15T13:04:39Z</time>
      </trkpt>
      <trkpt lat="45.77691" lon="4.18789">
        <ele>366.297</ele>
        <time>2019-04-15T13:04:45Z</time>
      </trkpt>
      <trkpt lat="45.77685" lon="4.18789">
        <ele>366.161</ele>
        <time>2019-04-15T13:04:50Z</time>
      </trkpt>
      <trkpt lat="45.77678" lon="4.18789">
        <ele>365.778</ele>
        <time>2019-04-15T13:04:56Z</time>
      </trkpt>
      <trkpt lat="45.7767" lon="4.18792">
        <ele>365.431</ele>
        <time>2019-04-15T13:05:02Z</time>
      </trkpt>
      <trkpt lat="45.7766" lon="4.18796">
        <ele>365.102</ele>
        <time>2019-04-15T13:05:08Z</time>
      </trkpt>
      <trkpt lat="45.77655" lon="4.18799">
        <ele>364.828</ele>
        <time>2019-04-15T13:05:13Z</time>
      </trkpt>
      <trkpt lat="45.77649" lon="4.18803">
        <ele>364.458</ele>
        <time>2019-04-15T13:05:19Z</time>
      </trkpt>
      <trkpt lat="45.77643" lon="4.18805">
        <ele>364.332</ele>
        <time>2019-04-15T13:05:24Z</time>
      </trkpt>
      <trkpt lat="45.77637" lon="4.18801">
        <ele>364.344</ele>
        <time>2019-04-15T13:05:30Z</time>
      </trkpt>
      <trkpt lat="45.77628" lon="4.18795">
        <ele>364.522</ele>
        <time>2019-04-15T13:05:36Z</time>
      </trkpt>
      <trkpt lat="45.77619" lon="4.18793">
        <ele>364.375</ele>
        <time>2019-04-15T13:05:42Z</time>
      </trkpt>
      <trkpt lat="45.77612" lon="4.18791">
        <ele>364.589</ele>
        <time>2019-04-15T13:05:48Z</time>
      </trkpt>
      <trkpt lat="45.77604" lon="4.1879">
        <ele>364.537</ele>
        <time>2019-04-15T13:05:53Z</time>
      </trkpt>
      <trkpt lat="45.77596" lon="4.18788">
        <ele>364.799</ele>
        <time>2019-04-15T13:05:59Z</time>
      </trkpt>
      <trkpt lat="45.7759" lon="4.18788">
        <ele>364.792</ele>
        <time>2019-04-15T13:06:05Z</time>
      </trkpt>
      <trkpt lat="45.77584" lon="4.18786">
        <ele>364.834</ele>
        <time>2019-04-15T13:06:10Z</time>
      </trkpt>
      <trkpt lat="45.77578" lon="4.18784">
        <ele>364.927</ele>
        <time>2019-04-15T13:06:16Z</time>
      </trkpt>
      <trkpt lat="45.77571" lon="4.18782">
        <ele>365.493</ele>
        <time>2019-04-15T13:06:22Z</time>
      </trkpt>
      <trkpt lat="45.77565" lon="4.18779">
        <ele>365.825</ele>
        <time>2019-04-15T13:06:28Z</time>
      </trkpt>
      <trkpt lat="45.77558" lon="4.18777">
        <ele>365.719</ele>
        <time>2019-04-15T13:06:34Z</time>
      </trkpt>
      <trkpt lat="45.77553" lon="4.18777">
        <ele>365.768</ele>
        <time>2019-04-15T13:06:39Z</time>
      </trkpt>
      <trkpt lat="45.77547" lon="4.18776">
        <ele>365.976</ele>
        <time>2019-04-15T13:06:45Z</time>
      </trkpt>
      <trkpt lat="45.77543" lon="4.18777">
        <ele>366.335</ele>
        <time>2019-04-15T13:06:50Z</time>
      </trkpt>
      <trkpt lat="45.77531" lon="4.18778">
        <ele>367.108</ele>
        <time>2019-04-15T13:06:56Z</time>
      </trkpt>
      <trkpt lat="45.77525" lon="4.18779">
        <ele>367.947</ele>
        <time>2019-04-15T13:07:02Z</time>
      </trkpt>
      <trkpt lat="45.77521" lon="4.18781">
        <ele>368.26</ele>
        <time>2019-04-15T13:07:08Z</time>
      </trkpt>
      <trkpt lat="45.77512" lon="4.18788">
        <ele>368.148</ele>
        <time>2019-04-15T13:07:13Z</time>
      </trkpt>
      <trkpt lat="45.77503" lon="4.18792">
        <ele>368.103</ele>
        <time>2019-04-15T13:07:19Z</time>
      </trkpt>
      <trkpt lat="45.775" lon="4.18796">
        <ele>368.148</ele>
        <time>2019-04-15T13:07:24Z</time>
      </trkpt>
      <trkpt lat="45.77499" lon="4.18804">
        <ele>367.903</ele>
        <time>2019-04-15T13:07:30Z</time>
      </trkpt>
      <trkpt lat="45.77499" lon="4.18807">
        <ele>367.998</ele>
        <time>2019-04-15T13:07:36Z</time>
      </trkpt>
      <trkpt lat="45.77498" lon="4.18808">
        <ele>368.163</ele>
        <time>2019-04-15T13:07:42Z</time>
      </trkpt>
      <trkpt lat="45.77498" lon="4.1881">
        <ele>368.177</ele>
        <time>2019-04-15T13:07:47Z</time>
      </trkpt>
      <trkpt lat="45.77497" lon="4.18814">
        <ele>369.239</ele>
        <time>2019-04-15T13:07:53Z</time>
      </trkpt>
      <trkpt lat="45.77497" lon="4.18818">
        <ele>370.297</ele>
        <time>2019-04-15T13:07:59Z</time>
      </trkpt>
      <trkpt lat="45.77497" lon="4.18824">
        <ele>370.956</ele>
        <time>2019-04-15T13:08:04Z</time>
      </trkpt>
      <trkpt lat="45.77496" lon="4.18831">
        <ele>371.574</ele>
        <time>2019-04-15T13:08:10Z</time>
      </trkpt>
      <trkpt lat="45.77497" lon="4.18836">
        <ele>372.328</ele>
        <time>2019-04-15T13:08:16Z</time>
      </trkpt>
      <trkpt lat="45.77498" lon="4.18841">
        <ele>372.847</ele>
        <time>2019-04-15T13:08:22Z</time>
      </trkpt>
      <trkpt lat="45.775" lon="4.18847">
        <ele>373.442</ele>
        <time>2019-04-15T13:08:28Z</time>
      </trkpt>
      <trkpt lat="45.77499" lon="4.18849">
        <ele>373.532</ele>
        <time>2019-04-15T13:08:33Z</time>
      </trkpt>
      <trkpt lat="45.77497" lon="4.18846">
        <ele>373.581</ele>
        <time>2019-04-15T13:08:39Z</time>
      </trkpt>
      <trkpt lat="45.77497" lon="4.18844">
        <ele>373.925</ele>
        <time>2019-04-15T13:08:44Z</time>
      </trkpt>
      <trkpt lat="45.77496" lon="4.18838">
        <ele>372.934</ele>
        <time>2019-04-15T13:08:50Z</time>
      </trkpt>
      <trkpt lat="45.77496" lon="4.18835">
        <ele>372.779</ele>
        <time>2019-04-15T13:08:55Z</time>
      </trkpt>
      <trkpt lat="45.77497" lon="4.18834">
        <ele>372.61</ele>
        <time>2019-04-15T13:09:00Z</time>
      </trkpt>
      <trkpt lat="45.77498" lon="4.18835">
        <ele>371.967</ele>
        <time>2019-04-15T13:09:05Z</time>
      </trkpt>
      <trkpt lat="45.77497" lon="4.18836">
        <ele>371.21</ele>
        <time>2019-04-15T13:09:10Z</time>
      </trkpt>
      <trkpt lat="45.775" lon="4.1884">
        <ele>370.786</ele>
        <time>2019-04-15T13:09:16Z</time>
      </trkpt>
      <trkpt lat="45.77499" lon="4.18843">
        <ele>370.857</ele>
        <time>2019-04-15T13:09:22Z</time>
      </trkpt>
      <trkpt lat="45.77498" lon="4.18844">
        <ele>370.486</ele>
        <time>2019-04-15T13:09:28Z</time>
      </trkpt>
      <trkpt lat="45.77496" lon="4.18842">
        <ele>370.311</ele>
        <time>2019-04-15T13:09:33Z</time>
      </trkpt>
      <trkpt lat="45.77495" lon="4.18846">
        <ele>370.098</ele>
        <time>2019-04-15T13:09:39Z</time>
      </trkpt>
      <trkpt lat="45.77497" lon="4.18849">
        <ele>370.188</ele>
        <time>2019-04-15T13:09:44Z</time>
      </trkpt>
      <trkpt lat="45.77497" lon="4.18848">
        <ele>370.339</ele>
        <time>2019-04-15T13:09:50Z</time>
      </trkpt>
      <trkpt lat="45.77497" lon="4.18844">
        <ele>370.666</ele>
        <time>2019-04-15T13:09:56Z</time>
      </trkpt>
      <trkpt lat="45.77497" lon="4.1884">
        <ele>370.708</ele>
        <time>2019-04-15T13:10:01Z</time>
      </trkpt>
      <trkpt lat="45.77496" lon="4.18836">
        <ele>370.578</ele>
        <time>2019-04-15T13:10:06Z</time>
      </trkpt>
      <trkpt lat="45.77496" lon="4.18835">
        <ele>370.589</ele>
        <time>2019-04-15T13:10:12Z</time>
      </trkpt>
      <trkpt lat="45.77495" lon="4.18836">
        <ele>370.255</ele>
        <time>2019-04-15T13:10:18Z</time>
      </trkpt>
      <trkpt lat="45.77494" lon="4.18832">
        <ele>369.259</ele>
        <time>2019-04-15T13:10:24Z</time>
      </trkpt>
      <trkpt lat="45.77493" lon="4.18826">
        <ele>368.505</ele>
        <time>2019-04-15T13:10:30Z</time>
      </trkpt>
      <trkpt lat="45.77493" lon="4.18819">
        <ele>368.141</ele>
        <time>2019-04-15T13:10:36Z</time>
      </trkpt>
      <trkpt lat="45.77496" lon="4.18811">
        <ele>368.107</ele>
        <time>2019-04-15T13:10:41Z</time>
      </trkpt>
      <trkpt lat="45.77501" lon="4.18803">
        <ele>368.305</ele>
        <time>2019-04-15T13:10:46Z</time>
      </trkpt>
      <trkpt lat="45.77502" lon="4.18798">
        <ele>368.82</ele>
        <time>2019-04-15T13:10:52Z</time>
      </trkpt>
      <trkpt lat="45.77503" lon="4.18793">
        <ele>369.378</ele>
        <time>2019-04-15T13:10:57Z</time>
      </trkpt>
      <trkpt lat="45.77505" lon="4.18789">
        <ele>370.436</ele>
        <time>2019-04-15T13:11:03Z</time>
      </trkpt>
      <trkpt lat="45.77501" lon="4.18784">
        <ele>370.84</ele>
        <time>2019-04-15T13:11:08Z</time>
      </trkpt>
      <trkpt lat="45.77499" lon="4.18782">
        <ele>370.85</ele>
        <time>2019-04-15T13:11:13Z</time>
      </trkpt>
      <trkpt lat="45.77497" lon="4.18781">
        <ele>370.752</ele>
        <time>2019-04-15T13:11:19Z</time>
      </trkpt>
      <trkpt lat="45.77491" lon="4.1878">
        <ele>370.45</ele>
        <time>2019-04-15T13:11:25Z</time>
      </trkpt>
      <trkpt lat="45.77483" lon="4.18779">
        <ele>370.376</ele>
        <time>2019-04-15T13:11:31Z</time>
      </trkpt>
      <trkpt lat="45.77478" lon="4.18781">
        <ele>369.756</ele>
        <time>2019-04-15T13:11:37Z</time>
      </trkpt>
      <trkpt lat="45.77473" lon="4.18784">
        <ele>369.055</ele>
        <time>2019-04-15T13:11:43Z</time>
      </trkpt>
      <trkpt lat="45.77468" lon="4.18786">
        <ele>368.499</ele>
        <time>2019-04-15T13:11:48Z</time>
      </trkpt>
      <trkpt lat="45.77463" lon="4.18788">
        <ele>368.218</ele>
        <time>2019-04-15T13:11:53Z</time>
      </trkpt>
      <trkpt lat="45.77456" lon="4.18791">
        <ele>367.717</ele>
        <time>2019-04-15T13:11:59Z</time>
      </trkpt>
      <trkpt lat="45.77451" lon="4.18794">
        <ele>367.102</ele>
        <time>2019-04-15T13:12:05Z</time>
      </trkpt>
      <trkpt lat="45.77446" lon="4.18794">
        <ele>366.129</ele>
        <time>2019-04-15T13:12:11Z</time>
      </trkpt>
      <trkpt lat="45.77441" lon="4.18796">
        <ele>365.531</ele>
        <time>2019-04-15T13:12:17Z</time>
      </trkpt>
      <trkpt lat="45.77436" lon="4.18799">
        <ele>365.518</ele>
        <time>2019-04-15T13:12:23Z</time>
      </trkpt>
      <trkpt lat="45.7743" lon="4.18804">
        <ele>365.049</ele>
        <time>2019-04-15T13:12:29Z</time>
      </trkpt>
      <trkpt lat="45.77425" lon="4.18804">
        <ele>364.152</ele>
        <time>2019-04-15T13:12:34Z</time>
      </trkpt>
      <trkpt lat="45.7742" lon="4.18805">
        <ele>363.257</ele>
        <time>2019-04-15T13:12:40Z</time>
      </trkpt>
      <trkpt lat="45.77419" lon="4.18807">
        <ele>363.262</ele>
        <time>2019-04-15T13:12:46Z</time>
      </trkpt>
      <trkpt lat="45.77417" lon="4.1881">
        <ele>363.425</ele>
        <time>2019-04-15T13:12:51Z</time>
      </trkpt>
      <trkpt lat="45.77416" lon="4.18811">
        <ele>363.716</ele>
        <time>2019-04-15T13:12:56Z</time>
      </trkpt>
      <trkpt lat="45.77414" lon="4.18812">
        <ele>364.547</ele>
        <time>2019-04-15T13:13:02Z</time>
      </trkpt>
      <trkpt lat="45.77413" lon="4.18813">
        <ele>364.62</ele>
        <time>2019-04-15T13:13:08Z</time>
      </trkpt>
      <trkpt lat="45.77415" lon="4.18813">
        <ele>364.942</ele>
        <time>2019-04-15T13:13:13Z</time>
      </trkpt>
      <trkpt lat="45.77418" lon="4.18809">
        <ele>365.357</ele>
        <time>2019-04-15T13:13:19Z</time>
      </trkpt>
      <trkpt lat="45.77418" lon="4.18808">
        <ele>365.423</ele>
        <time>2019-04-15T13:13:24Z</time>
      </trkpt>
      <trkpt lat="45.77419" lon="4.18808">
        <ele>366.067</ele>
        <time>2019-04-15T13:13:30Z</time>
      </trkpt>
      <trkpt lat="45.7742" lon="4.18807">
        <ele>365.755</ele>
        <time>2019-04-15T13:13:35Z</time>
      </trkpt>
      <trkpt lat="45.7742" lon="4.18811">
        <ele>365.666</ele>
        <time>2019-04-15T13:13:41Z</time>
      </trkpt>
      <trkpt lat="45.77421" lon="4.1881">
        <ele>367.647</ele>
        <time>2019-04-15T13:13:47Z</time>
      </trkpt>
      <trkpt lat="45.77422" lon="4.1881">
        <ele>368.488</ele>
        <time>2019-04-15T13:13:53Z</time>
      </trkpt>
      <trkpt lat="45.77422" lon="4.18809">
        <ele>368.903</ele>
        <time>2019-04-15T13:13:59Z</time>
      </trkpt>
      <trkpt lat="45.77422" lon="4.18808">
        <ele>369.781</ele>
        <time>2019-04-15T13:14:05Z</time>
      </trkpt>
      <trkpt lat="45.77421" lon="4.18808">
        <ele>369.947</ele>
        <time>2019-04-15T13:14:10Z</time>
      </trkpt>
      <trkpt lat="45.77423" lon="4.18807">
        <ele>370.299</ele>
        <time>2019-04-15T13:14:16Z</time>
      </trkpt>
      <trkpt lat="45.77421" lon="4.18809">
        <ele>370.67</ele>
        <time>2019-04-15T13:14:22Z</time>
      </trkpt>
      <trkpt lat="45.77421" lon="4.18809">
        <ele>371.045</ele>
        <time>2019-04-15T13:14:27Z</time>
      </trkpt>
      <trkpt lat="45.77423" lon="4.18808">
        <ele>371.178</ele>
        <time>2019-04-15T13:14:33Z</time>
      </trkpt>
      <trkpt lat="45.77425" lon="4.18808">
        <ele>371.187</ele>
        <time>2019-04-15T13:14:38Z</time>
      </trkpt>
      <trkpt lat="45.77425" lon="4.18807">
        <ele>370.915</ele>
        <time>2019-04-15T13:14:44Z</time>
      </trkpt>
      <trkpt lat="45.77422" lon="4.1881">
        <ele>370.889</ele>
        <time>2019-04-15T13:14:49Z</time>
      </trkpt>
      <trkpt lat="45.77423" lon="4.1881">
        <ele>370.117</ele>
        <time>2019-04-15T13:14:55Z</time>
      </trkpt>
      <trkpt lat="45.77429" lon="4.18807">
        <ele>370.037</ele>
        <time>2019-04-15T13:15:00Z</time>
      </trkpt>
      <trkpt lat="45.77432" lon="4.18806">
        <ele>370.177</ele>
        <time>2019-04-15T13:15:05Z</time>
      </trkpt>
      <trkpt lat="45.77439" lon="4.18801">
        <ele>370.367</ele>
        <time>2019-04-15T13:15:11Z</time>
      </trkpt>
      <trkpt lat="45.77446" lon="4.18798">
        <ele>371.027</ele>
        <time>2019-04-15T13:15:16Z</time>
      </trkpt>
      <trkpt lat="45.77448" lon="4.18796">
        <ele>371.082</ele>
        <time>2019-04-15T13:15:22Z</time>
      </trkpt>
      <trkpt lat="45.77454" lon="4.1879">
        <ele>371.582</ele>
        <time>2019-04-15T13:15:27Z</time>
      </trkpt>
      <trkpt lat="45.77458" lon="4.18789">
        <ele>371.939</ele>
        <time>2019-04-15T13:15:33Z</time>
      </trkpt>
      <trkpt lat="45.77465" lon="4.18786">
        <ele>372.434</ele>
        <time>2019-04-15T13:15:38Z</time>
      </trkpt>
      <trkpt lat="45.77474" lon="4.18782">
        <ele>373.082</ele>
        <time>2019-04-15T13:15:44Z</time>
      </trkpt>
      <trkpt lat="45.77477" lon="4.1878">
        <ele>373.542</ele>
        <time>2019-04-15T13:15:49Z</time>
      </trkpt>
      <trkpt lat="45.77485" lon="4.18778">
        <ele>373.634</ele>
        <time>2019-04-15T13:15:54Z</time>
      </trkpt>
      <trkpt lat="45.77492" lon="4.18778">
        <ele>373.717</ele>
        <time>2019-04-15T13:15:59Z</time>
      </trkpt>
      <trkpt lat="45.77501" lon="4.18781">
        <ele>373.539</ele>
        <time>2019-04-15T13:16:05Z</time>
      </trkpt>
      <trkpt lat="45.77497" lon="4.1878">
        <ele>373.278</ele>
        <time>2019-04-15T13:16:11Z</time>
      </trkpt>
      <trkpt lat="45.77499" lon="4.18784">
        <ele>373.681</ele>
        <time>2019-04-15T13:16:16Z</time>
      </trkpt>
      <trkpt lat="45.77503" lon="4.18788">
        <ele>373.724</ele>
        <time>2019-04-15T13:16:22Z</time>
      </trkpt>
      <trkpt lat="45.77504" lon="4.18791">
        <ele>373.851</ele>
        <time>2019-04-15T13:16:27Z</time>
      </trkpt>
      <trkpt lat="45.77506" lon="4.18792">
        <ele>373.918</ele>
        <time>2019-04-15T13:16:33Z</time>
      </trkpt>
      <trkpt lat="45.77508" lon="4.18792">
        <ele>373.986</ele>
        <time>2019-04-15T13:16:39Z</time>
      </trkpt>
      <trkpt lat="45.77508" lon="4.18794">
        <ele>374.054</ele>
        <time>2019-04-15T13:16:45Z</time>
      </trkpt>
      <trkpt lat="45.77511" lon="4.18795">
        <ele>373.984</ele>
        <time>2019-04-15T13:16:50Z</time>
      </trkpt>
      <trkpt lat="45.77516" lon="4.18792">
        <ele>373.551</ele>
        <time>2019-04-15T13:16:55Z</time>
      </trkpt>
      <trkpt lat="45.77523" lon="4.18788">
        <ele>373.829</ele>
        <time>2019-04-15T13:17:01Z</time>
      </trkpt>
      <trkpt lat="45.77526" lon="4.18786">
        <ele>373.921</ele>
        <time>2019-04-15T13:17:07Z</time>
      </trkpt>
      <trkpt lat="45.77534" lon="4.18783">
        <ele>374.224</ele>
        <time>2019-04-15T13:17:13Z</time>
      </trkpt>
      <trkpt lat="45.7754" lon="4.1878">
        <ele>373.926</ele>
        <time>2019-04-15T13:17:19Z</time>
      </trkpt>
      <trkpt lat="45.77546" lon="4.1878">
        <ele>373.601</ele>
        <time>2019-04-15T13:17:24Z</time>
      </trkpt>
      <trkpt lat="45.77551" lon="4.1878">
        <ele>373.803</ele>
        <time>2019-04-15T13:17:30Z</time>
      </trkpt>
      <trkpt lat="45.77553" lon="4.1878">
        <ele>373.658</ele>
        <time>2019-04-15T13:17:35Z</time>
      </trkpt>
      <trkpt lat="45.77557" lon="4.1878">
        <ele>373.688</ele>
        <time>2019-04-15T13:17:40Z</time>
      </trkpt>
      <trkpt lat="45.77564" lon="4.18782">
        <ele>373.333</ele>
        <time>2019-04-15T13:17:46Z</time>
      </trkpt>
      <trkpt lat="45.77568" lon="4.18783">
        <ele>373.424</ele>
        <time>2019-04-15T13:17:51Z</time>
      </trkpt>
      <trkpt lat="45.77573" lon="4.18786">
        <ele>373.301</ele>
        <time>2019-04-15T13:17:57Z</time>
      </trkpt>
      <trkpt lat="45.77581" lon="4.1879">
        <ele>373.544</ele>
        <time>2019-04-15T13:18:03Z</time>
      </trkpt>
      <trkpt lat="45.77586" lon="4.18793">
        <ele>373.756</ele>
        <time>2019-04-15T13:18:09Z</time>
      </trkpt>
      <trkpt lat="45.77591" lon="4.18795">
        <ele>373.595</ele>
        <time>2019-04-15T13:18:15Z</time>
      </trkpt>
      <trkpt lat="45.77595" lon="4.18795">
        <ele>373.131</ele>
        <time>2019-04-15T13:18:20Z</time>
      </trkpt>
      <trkpt lat="45.77599" lon="4.18796">
        <ele>372.439</ele>
        <time>2019-04-15T13:18:26Z</time>
      </trkpt>
      <trkpt lat="45.77602" lon="4.18797">
        <ele>372.044</ele>
        <time>2019-04-15T13:18:31Z</time>
      </trkpt>
      <trkpt lat="45.77608" lon="4.18798">
        <ele>371.779</ele>
        <time>2019-04-15T13:18:37Z</time>
      </trkpt>
      <trkpt lat="45.77614" lon="4.18799">
        <ele>371.741</ele>
        <time>2019-04-15T13:18:43Z</time>
      </trkpt>
      <trkpt lat="45.77617" lon="4.18799">
        <ele>371.911</ele>
        <time>2019-04-15T13:18:48Z</time>
      </trkpt>
      <trkpt lat="45.77623" lon="4.188">
        <ele>371.718</ele>
        <time>2019-04-15T13:18:54Z</time>
      </trkpt>
      <trkpt lat="45.7763" lon="4.18803">
        <ele>371.734</ele>
        <time>2019-04-15T13:19:00Z</time>
      </trkpt>
      <trkpt lat="45.77634" lon="4.18806">
        <ele>371.542</ele>
        <time>2019-04-15T13:19:05Z</time>
      </trkpt>
      <trkpt lat="45.77642" lon="4.18809">
        <ele>370.756</ele>
        <time>2019-04-15T13:19:11Z</time>
      </trkpt>
      <trkpt lat="45.77647" lon="4.18809">
        <ele>370.041</ele>
        <time>2019-04-15T13:19:16Z</time>
      </trkpt>
      <trkpt lat="45.77653" lon="4.18804">
        <ele>369.151</ele>
        <time>2019-04-15T13:19:22Z</time>
      </trkpt>
      <trkpt lat="45.77659" lon="4.18799">
        <ele>368.569</ele>
        <time>2019-04-15T13:19:28Z</time>
      </trkpt>
      <trkpt lat="45.77666" lon="4.18796">
        <ele>367.843</ele>
        <time>2019-04-15T13:19:34Z</time>
      </trkpt>
      <trkpt lat="45.77673" lon="4.18794">
        <ele>367.866</ele>
        <time>2019-04-15T13:19:40Z</time>
      </trkpt>
      <trkpt lat="45.77678" lon="4.18792">
        <ele>368.242</ele>
        <time>2019-04-15T13:19:46Z</time>
      </trkpt>
      <trkpt lat="45.77686" lon="4.18792">
        <ele>368.733</ele>
        <time>2019-04-15T13:19:52Z</time>
      </trkpt>
      <trkpt lat="45.77691" lon="4.18792">
        <ele>368.779</ele>
        <time>2019-04-15T13:19:58Z</time>
      </trkpt>
      <trkpt lat="45.77694" lon="4.18793">
        <ele>369.001</ele>
        <time>2019-04-15T13:20:03Z</time>
      </trkpt>
      <trkpt lat="45.77699" lon="4.18796">
        <ele>369.26</ele>
        <time>2019-04-15T13:20:09Z</time>
      </trkpt>
      <trkpt lat="45.77705" lon="4.18798">
        <ele>369.248</ele>
        <time>2019-04-15T13:20:14Z</time>
      </trkpt>
      <trkpt lat="45.77711" lon="4.18799">
        <ele>369.716</ele>
        <time>2019-04-15T13:20:20Z</time>
      </trkpt>
      <trkpt lat="45.77715" lon="4.188">
        <ele>370.129</ele>
        <time>2019-04-15T13:20:25Z</time>
      </trkpt>
      <trkpt lat="45.77723" lon="4.18803">
        <ele>370.62</ele>
        <time>2019-04-15T13:20:31Z</time>
      </trkpt>
      <trkpt lat="45.77725" lon="4.18804">
        <ele>371.086</ele>
        <time>2019-04-15T13:20:36Z</time>
      </trkpt>
      <trkpt lat="45.77729" lon="4.18805">
        <ele>371.461</ele>
        <time>2019-04-15T13:20:42Z</time>
      </trkpt>
      <trkpt lat="45.77733" lon="4.18806">
        <ele>371.437</ele>
        <time>2019-04-15T13:20:48Z</time>
      </trkpt>
      <trkpt lat="45.77737" lon="4.18805">
        <ele>371.323</ele>
        <time>2019-04-15T13:20:53Z</time>
      </trkpt>
      <trkpt lat="45.77745" lon="4.18802">
        <ele>370.991</ele>
        <time>2019-04-15T13:20:59Z</time>
      </trkpt>
      <trkpt lat="45.77754" lon="4.18798">
        <ele>370.843</ele>
        <time>2019-04-15T13:21:05Z</time>
      </trkpt>
      <trkpt lat="45.7776" lon="4.18796">
        <ele>370.316</ele>
        <time>2019-04-15T13:21:10Z</time>
      </trkpt>
      <trkpt lat="45.77765" lon="4.18793">
        <ele>370.018</ele>
        <time>2019-04-15T13:21:16Z</time>
      </trkpt>
      <trkpt lat="45.77771" lon="4.18786">
        <ele>370.311</ele>
        <time>2019-04-15T13:21:22Z</time>
      </trkpt>
      <trkpt lat="45.77775" lon="4.18781">
        <ele>370.455</ele>
        <time>2019-04-15T13:21:28Z</time>
      </trkpt>
      <trkpt lat="45.7778" lon="4.18775">
        <ele>370.54</ele>
        <time>2019-04-15T13:21:33Z</time>
      </trkpt>
      <trkpt lat="45.77787" lon="4.18768">
        <ele>370.932</ele>
        <time>2019-04-15T13:21:39Z</time>
      </trkpt>
      <trkpt lat="45.77792" lon="4.18763">
        <ele>370.925</ele>
        <time>2019-04-15T13:21:44Z</time>
      </trkpt>
      <trkpt lat="45.77795" lon="4.18759">
        <ele>370.616</ele>
        <time>2019-04-15T13:21:49Z</time>
      </trkpt>
      <trkpt lat="45.77799" lon="4.18754">
        <ele>370.097</ele>
        <time>2019-04-15T13:21:54Z</time>
      </trkpt>
      <trkpt lat="45.77804" lon="4.1875">
        <ele>369.785</ele>
        <time>2019-04-15T13:22:00Z</time>
      </trkpt>
      <trkpt lat="45.77808" lon="4.18748">
        <ele>369.541</ele>
        <time>2019-04-15T13:22:05Z</time>
      </trkpt>
      <trkpt lat="45.77812" lon="4.18748">
        <ele>369.17</ele>
        <time>2019-04-15T13:22:11Z</time>
      </trkpt>
      <trkpt lat="45.77818" lon="4.1875">
        <ele>368.671</ele>
        <time>2019-04-15T13:22:17Z</time>
      </trkpt>
      <trkpt lat="45.77823" lon="4.18751">
        <ele>368.543</ele>
        <time>2019-04-15T13:22:22Z</time>
      </trkpt>
      <trkpt lat="45.77829" lon="4.18753">
        <ele>368.398</ele>
        <time>2019-04-15T13:22:27Z</time>
      </trkpt>
      <trkpt lat="45.77835" lon="4.18755">
        <ele>368.653</ele>
        <time>2019-04-15T13:22:33Z</time>
      </trkpt>
      <trkpt lat="45.7784" lon="4.18756">
        <ele>368.634</ele>
        <time>2019-04-15T13:22:38Z</time>
      </trkpt>
      <trkpt lat="45.77846" lon="4.18759">
        <ele>368.161</ele>
        <time>2019-04-15T13:22:44Z</time>
      </trkpt>
      <trkpt lat="45.7785" lon="4.18761">
        <ele>368.293</ele>
        <time>2019-04-15T13:22:49Z</time>
      </trkpt>
      <trkpt lat="45.77856" lon="4.18765">
        <ele>368.442</ele>
        <time>2019-04-15T13:22:55Z</time>
      </trkpt>
      <trkpt lat="45.7786" lon="4.18768">
        <ele>368.283</ele>
        <time>2019-04-15T13:23:00Z</time>
      </trkpt>
      <trkpt lat="45.77867" lon="4.1877">
        <ele>367.813</ele>
        <time>2019-04-15T13:23:05Z</time>
      </trkpt>
      <trkpt lat="45.77874" lon="4.18773">
        <ele>367.414</ele>
        <time>2019-04-15T13:23:11Z</time>
      </trkpt>
      <trkpt lat="45.77877" lon="4.18776">
        <ele>367.308</ele>
        <time>2019-04-15T13:23:16Z</time>
      </trkpt>
      <trkpt lat="45.77882" lon="4.18781">
        <ele>367.415</ele>
        <time>2019-04-15T13:23:22Z</time>
      </trkpt>
      <trkpt lat="45.77886" lon="4.18785">
        <ele>367.1</ele>
        <time>2019-04-15T13:23:28Z</time>
      </trkpt>
      <trkpt lat="45.77891" lon="4.18789">
        <ele>367.365</ele>
        <time>2019-04-15T13:23:34Z</time>
      </trkpt>
      <trkpt lat="45.77898" lon="4.18793">
        <ele>367.852</ele>
        <time>2019-04-15T13:23:40Z</time>
      </trkpt>
      <trkpt lat="45.77904" lon="4.18795">
        <ele>368.368</ele>
        <time>2019-04-15T13:23:45Z</time>
      </trkpt>
      <trkpt lat="45.77913" lon="4.18799">
        <ele>368.595</ele>
        <time>2019-04-15T13:23:51Z</time>
      </trkpt>
      <trkpt lat="45.77918" lon="4.18803">
        <ele>368.011</ele>
        <time>2019-04-15T13:23:57Z</time>
      </trkpt>
      <trkpt lat="45.77922" lon="4.18807">
        <ele>367.656</ele>
        <time>2019-04-15T13:24:02Z</time>
      </trkpt>
      <trkpt lat="45.77925" lon="4.18811">
        <ele>367.348</ele>
        <time>2019-04-15T13:24:08Z</time>
      </trkpt>
      <trkpt lat="45.7793" lon="4.18817">
        <ele>367.335</ele>
        <time>2019-04-15T13:24:13Z</time>
      </trkpt>
      <trkpt lat="45.77934" lon="4.18821">
        <ele>367.452</ele>
        <time>2019-04-15T13:24:19Z</time>
      </trkpt>
      <trkpt lat="45.77939" lon="4.1883">
        <ele>367.686</ele>
        <time>2019-04-15T13:24:25Z</time>
      </trkpt>
      <trkpt lat="45.77942" lon="4.18836">
        <ele>368.001</ele>
        <time>2019-04-15T13:24:31Z</time>
      </trkpt>
      <trkpt lat="45.77945" lon="4.1884">
        <ele>367.85</ele>
        <time>2019-04-15T13:24:36Z</time>
      </trkpt>
      <trkpt lat="45.77948" lon="4.18846">
        <ele>367.729</ele>
        <time>2019-04-15T13:24:41Z</time>
      </trkpt>
      <trkpt lat="45.77953" lon="4.18851">
        <ele>368.242</ele>
        <time>2019-04-15T13:24:47Z</time>
      </trkpt>
      <trkpt lat="45.77955" lon="4.18856">
        <ele>369.117</ele>
        <time>2019-04-15T13:24:52Z</time>
      </trkpt>
      <trkpt lat="45.77961" lon="4.18864">
        <ele>369.9</ele>
        <time>2019-04-15T13:24:58Z</time>
      </trkpt>
      <trkpt lat="45.77966" lon="4.18868">
        <ele>370.402</ele>
        <time>2019-04-15T13:25:03Z</time>
      </trkpt>
      <trkpt lat="45.77969" lon="4.18871">
        <ele>370.517</ele>
        <time>2019-04-15T13:25:08Z</time>
      </trkpt>
      <trkpt lat="45.77972" lon="4.18879">
        <ele>369.997</ele>
        <time>2019-04-15T13:25:14Z</time>
      </trkpt>
      <trkpt lat="45.77973" lon="4.18881">
        <ele>368.979</ele>
        <time>2019-04-15T13:25:19Z</time>
      </trkpt>
      <trkpt lat="45.77977" lon="4.18883">
        <ele>368.004</ele>
        <time>2019-04-15T13:25:24Z</time>
      </trkpt>
      <trkpt lat="45.77984" lon="4.18888">
        <ele>367.639</ele>
        <time>2019-04-15T13:25:30Z</time>
      </trkpt>
      <trkpt lat="45.77988" lon="4.18891">
        <ele>367.851</ele>
        <time>2019-04-15T13:25:36Z</time>
      </trkpt>
      <trkpt lat="45.77995" lon="4.18895">
        <ele>367.511</ele>
        <time>2019-04-15T13:25:41Z</time>
      </trkpt>
      <trkpt lat="45.78003" lon="4.18897">
        <ele>366.638</ele>
        <time>2019-04-15T13:25:47Z</time>
      </trkpt>
      <trkpt lat="45.78008" lon="4.18899">
        <ele>366.175</ele>
        <time>2019-04-15T13:25:52Z</time>
      </trkpt>
      <trkpt lat="45.78015" lon="4.18904">
        <ele>365.796</ele>
        <time>2019-04-15T13:25:58Z</time>
      </trkpt>
      <trkpt lat="45.7802" lon="4.18906">
        <ele>365.976</ele>
        <time>2019-04-15T13:26:04Z</time>
      </trkpt>
      <trkpt lat="45.78028" lon="4.18908">
        <ele>366.484</ele>
        <time>2019-04-15T13:26:10Z</time>
      </trkpt>
      <trkpt lat="45.78033" lon="4.18908">
        <ele>366.803</ele>
        <time>2019-04-15T13:26:16Z</time>
      </trkpt>
      <trkpt lat="45.78039" lon="4.18908">
        <ele>367.153</ele>
        <time>2019-04-15T13:26:22Z</time>
      </trkpt>
      <trkpt lat="45.78046" lon="4.18906">
        <ele>367.402</ele>
        <time>2019-04-15T13:26:27Z</time>
      </trkpt>
      <trkpt lat="45.78053" lon="4.18906">
        <ele>367.729</ele>
        <time>2019-04-15T13:26:33Z</time>
      </trkpt>
      <trkpt lat="45.78058" lon="4.18903">
        <ele>367.479</ele>
        <time>2019-04-15T13:26:39Z</time>
      </trkpt>
      <trkpt lat="45.78064" lon="4.18902">
        <ele>367.255</ele>
        <time>2019-04-15T13:26:45Z</time>
      </trkpt>
      <trkpt lat="45.7807" lon="4.18902">
        <ele>366.706</ele>
        <time>2019-04-15T13:26:51Z</time>
      </trkpt>
      <trkpt lat="45.78075" lon="4.189">
        <ele>366.355</ele>
        <time>2019-04-15T13:26:56Z</time>
      </trkpt>
      <trkpt lat="45.78082" lon="4.189">
        <ele>366.477</ele>
        <time>2019-04-15T13:27:02Z</time>
      </trkpt>
      <trkpt lat="45.78088" lon="4.189">
        <ele>366.363</ele>
        <time>2019-04-15T13:27:07Z</time>
      </trkpt>
      <trkpt lat="45.78097" lon="4.18899">
        <ele>366.233</ele>
        <time>2019-04-15T13:27:13Z</time>
      </trkpt>
      <trkpt lat="45.78104" lon="4.18897">
        <ele>366.279</ele>
        <time>2019-04-15T13:27:18Z</time>
      </trkpt>
      <trkpt lat="45.78112" lon="4.18895">
        <ele>366.233</ele>
        <time>2019-04-15T13:27:23Z</time>
      </trkpt>
      <trkpt lat="45.78116" lon="4.18895">
        <ele>365.941</ele>
        <time>2019-04-15T13:27:29Z</time>
      </trkpt>
      <trkpt lat="45.78122" lon="4.18894">
        <ele>365.831</ele>
        <time>2019-04-15T13:27:35Z</time>
      </trkpt>
      <trkpt lat="45.78128" lon="4.18892">
        <ele>365.904</ele>
        <time>2019-04-15T13:27:40Z</time>
      </trkpt>
      <trkpt lat="45.78134" lon="4.18891">
        <ele>366.11</ele>
        <time>2019-04-15T13:27:46Z</time>
      </trkpt>
      <trkpt lat="45.78144" lon="4.18892">
        <ele>365.93</ele>
        <time>2019-04-15T13:27:52Z</time>
      </trkpt>
      <trkpt lat="45.78149" lon="4.18892">
        <ele>365.812</ele>
        <time>2019-04-15T13:27:57Z</time>
      </trkpt>
      <trkpt lat="45.78152" lon="4.18892">
        <ele>365.739</ele>
        <time>2019-04-15T13:28:03Z</time>
      </trkpt>
      <trkpt lat="45.78157" lon="4.18895">
        <ele>366.182</ele>
        <time>2019-04-15T13:28:09Z</time>
      </trkpt>
      <trkpt lat="45.78162" lon="4.18897">
        <ele>366.142</ele>
        <time>2019-04-15T13:28:14Z</time>
      </trkpt>
      <trkpt lat="45.78168" lon="4.18899">
        <ele>366.512</ele>
        <time>2019-04-15T13:28:20Z</time>
      </trkpt>
      <trkpt lat="45.78174" lon="4.18901">
        <ele>366.959</ele>
        <time>2019-04-15T13:28:26Z</time>
      </trkpt>
      <trkpt lat="45.7818" lon="4.18907">
        <ele>366.856</ele>
        <time>2019-04-15T13:28:32Z</time>
      </trkpt>
      <trkpt lat="45.78186" lon="4.1891">
        <ele>366.91</ele>
        <time>2019-04-15T13:28:38Z</time>
      </trkpt>
      <trkpt lat="45.78194" lon="4.18914">
        <ele>366.974</ele>
        <time>2019-04-15T13:28:44Z</time>
      </trkpt>
      <trkpt lat="45.782" lon="4.18918">
        <ele>367.044</ele>
        <time>2019-04-15T13:28:49Z</time>
      </trkpt>
      <trkpt lat="45.78207" lon="4.18921">
        <ele>367.434</ele>
        <time>2019-04-15T13:28:55Z</time>
      </trkpt>
      <trkpt lat="45.78213" lon="4.18923">
        <ele>367.549</ele>
        <time>2019-04-15T13:29:00Z</time>
      </trkpt>
      <trkpt lat="45.78218" lon="4.18927">
        <ele>366.981</ele>
        <time>2019-04-15T13:29:06Z</time>
      </trkpt>
      <trkpt lat="45.78223" lon="4.18931">
        <ele>366.495</ele>
        <time>2019-04-15T13:29:12Z</time>
      </trkpt>
      <trkpt lat="45.78228" lon="4.18935">
        <ele>366.37</ele>
        <time>2019-04-15T13:29:18Z</time>
      </trkpt>
      <trkpt lat="45.78233" lon="4.18936">
        <ele>366.596</ele>
        <time>2019-04-15T13:29:24Z</time>
      </trkpt>
      <trkpt lat="45.78238" lon="4.1894">
        <ele>366.666</ele>
        <time>2019-04-15T13:29:30Z</time>
      </trkpt>
      <trkpt lat="45.78248" lon="4.18946">
        <ele>366.583</ele>
        <time>2019-04-15T13:29:36Z</time>
      </trkpt>
      <trkpt lat="45.78253" lon="4.1895">
        <ele>366.834</ele>
        <time>2019-04-15T13:29:42Z</time>
      </trkpt>
      <trkpt lat="45.78258" lon="4.18952">
        <ele>366.923</ele>
        <time>2019-04-15T13:29:47Z</time>
      </trkpt>
      <trkpt lat="45.78266" lon="4.18957">
        <ele>366.8</ele>
        <time>2019-04-15T13:29:53Z</time>
      </trkpt>
      <trkpt lat="45.78275" lon="4.18961">
        <ele>366.779</ele>
        <time>2019-04-15T13:29:59Z</time>
      </trkpt>
      <trkpt lat="45.78284" lon="4.18965">
        <ele>366.272</ele>
        <time>2019-04-15T13:30:05Z</time>
      </trkpt>
      <trkpt lat="45.7829" lon="4.1897">
        <ele>365.881</ele>
        <time>2019-04-15T13:30:10Z</time>
      </trkpt>
      <trkpt lat="45.78295" lon="4.18973">
        <ele>365.567</ele>
        <time>2019-04-15T13:30:16Z</time>
      </trkpt>
      <trkpt lat="45.78301" lon="4.18976">
        <ele>364.956</ele>
        <time>2019-04-15T13:30:22Z</time>
      </trkpt>
      <trkpt lat="45.78308" lon="4.1898">
        <ele>364.961</ele>
        <time>2019-04-15T13:30:27Z</time>
      </trkpt>
      <trkpt lat="45.78314" lon="4.18984">
        <ele>364.871</ele>
        <time>2019-04-15T13:30:32Z</time>
      </trkpt>
      <trkpt lat="45.7832" lon="4.18992">
        <ele>364.919</ele>
        <time>2019-04-15T13:30:38Z</time>
      </trkpt>
      <trkpt lat="45.78326" lon="4.19001">
        <ele>364.734</ele>
        <time>2019-04-15T13:30:44Z</time>
      </trkpt>
      <trkpt lat="45.78331" lon="4.19009">
        <ele>364.651</ele>
        <time>2019-04-15T13:30:50Z</time>
      </trkpt>
      <trkpt lat="45.78334" lon="4.19017">
        <ele>365.216</ele>
        <time>2019-04-15T13:30:56Z</time>
      </trkpt>
      <trkpt lat="45.78335" lon="4.19024">
        <ele>365.639</ele>
        <time>2019-04-15T13:31:01Z</time>
      </trkpt>
      <trkpt lat="45.78335" lon="4.19032">
        <ele>366.261</ele>
        <time>2019-04-15T13:31:07Z</time>
      </trkpt>
      <trkpt lat="45.78333" lon="4.19041">
        <ele>367.593</ele>
        <time>2019-04-15T13:31:13Z</time>
      </trkpt>
      <trkpt lat="45.78334" lon="4.19051">
        <ele>368.925</ele>
        <time>2019-04-15T13:31:19Z</time>
      </trkpt>
      <trkpt lat="45.78335" lon="4.19063">
        <ele>370.023</ele>
        <time>2019-04-15T13:31:25Z</time>
      </trkpt>
      <trkpt lat="45.78336" lon="4.19072">
        <ele>370.568</ele>
        <time>2019-04-15T13:31:31Z</time>
      </trkpt>
      <trkpt lat="45.78338" lon="4.19079">
        <ele>370.469</ele>
        <time>2019-04-15T13:31:36Z</time>
      </trkpt>
      <trkpt lat="45.78341" lon="4.19086">
        <ele>370.365</ele>
        <time>2019-04-15T13:31:42Z</time>
      </trkpt>
      <trkpt lat="45.78342" lon="4.19087">
        <ele>370.189</ele>
        <time>2019-04-15T13:31:47Z</time>
      </trkpt>
      <trkpt lat="45.78342" lon="4.19087">
        <ele>370.111</ele>
        <time>2019-04-15T13:31:53Z</time>
      </trkpt>
      <trkpt lat="45.78344" lon="4.19088">
        <ele>369.654</ele>
        <time>2019-04-15T13:31:59Z</time>
      </trkpt>
      <trkpt lat="45.78346" lon="4.19087">
        <ele>369.921</ele>
        <time>2019-04-15T13:32:05Z</time>
      </trkpt>
      <trkpt lat="45.78348" lon="4.19084">
        <ele>369.518</ele>
        <time>2019-04-15T13:32:10Z</time>
      </trkpt>
      <trkpt lat="45.7835" lon="4.19078">
        <ele>369.543</ele>
        <time>2019-04-15T13:32:16Z</time>
      </trkpt>
      <trkpt lat="45.78353" lon="4.19072">
        <ele>369.598</ele>
        <time>2019-04-15T13:32:22Z</time>
      </trkpt>
      <trkpt lat="45.78356" lon="4.19068">
        <ele>369.465</ele>
        <time>2019-04-15T13:32:27Z</time>
      </trkpt>
      <trkpt lat="45.78359" lon="4.19062">
        <ele>369.091</ele>
        <time>2019-04-15T13:32:33Z</time>
      </trkpt>
      <trkpt lat="45.78361" lon="4.19057">
        <ele>368.936</ele>
        <time>2019-04-15T13:32:38Z</time>
      </trkpt>
      <trkpt lat="45.78366" lon="4.19053">
        <ele>368.933</ele>
        <time>2019-04-15T13:32:44Z</time>
      </trkpt>
      <trkpt lat="45.78371" lon="4.19048">
        <ele>368.605</ele>
        <time>2019-04-15T13:32:50Z</time>
      </trkpt>
      <trkpt lat="45.78375" lon="4.19045">
        <ele>368.064</ele>
        <time>2019-04-15T13:32:55Z</time>
      </trkpt>
      <trkpt lat="45.78381" lon="4.1904">
        <ele>367.764</ele>
        <time>2019-04-15T13:33:01Z</time>
      </trkpt>
      <trkpt lat="45.78386" lon="4.19033">
        <ele>367.699</ele>
        <time>2019-04-15T13:33:06Z</time>
      </trkpt>
      <trkpt lat="45.78392" lon="4.19026">
        <ele>368.053</ele>
        <time>2019-04-15T13:33:12Z</time>
      </trkpt>
      <trkpt lat="45.78397" lon="4.19018">
        <ele>368.14</ele>
        <time>2019-04-15T13:33:18Z</time>
      </trkpt>
      <trkpt lat="45.78402" lon="4.19014">
        <ele>368.353</ele>
        <time>2019-04-15T13:33:24Z</time>
      </trkpt>
      <trkpt lat="45.7841" lon="4.19011">
        <ele>368.159</ele>
        <time>2019-04-15T13:33:30Z</time>
      </trkpt>
      <trkpt lat="45.78416" lon="4.1901">
        <ele>367.775</ele>
        <time>2019-04-15T13:33:36Z</time>
      </trkpt>
      <trkpt lat="45.78423" lon="4.1901">
        <ele>367.786</ele>
        <time>2019-04-15T13:33:42Z</time>
      </trkpt>
      <trkpt lat="45.78429" lon="4.1901">
        <ele>367.734</ele>
        <time>2019-04-15T13:33:47Z</time>
      </trkpt>
      <trkpt lat="45.78436" lon="4.1901">
        <ele>367.603</ele>
        <time>2019-04-15T13:33:53Z</time>
      </trkpt>
      <trkpt lat="45.78446" lon="4.19008">
        <ele>367.343</ele>
        <time>2019-04-15T13:33:59Z</time>
      </trkpt>
      <trkpt lat="45.78454" lon="4.19007">
        <ele>367.239</ele>
        <time>2019-04-15T13:34:05Z</time>
      </trkpt>
      <trkpt lat="45.78459" lon="4.19008">
        <ele>367.166</ele>
        <time>2019-04-15T13:34:10Z</time>
      </trkpt>
      <trkpt lat="45.78464" lon="4.19009">
        <ele>367.214</ele>
        <time>2019-04-15T13:34:15Z</time>
      </trkpt>
      <trkpt lat="45.78472" lon="4.19008">
        <ele>367.27</ele>
        <time>2019-04-15T13:34:21Z</time>
      </trkpt>
      <trkpt lat="45.7848" lon="4.19007">
        <ele>367.25</ele>
        <time>2019-04-15T13:34:27Z</time>
      </trkpt>
      <trkpt lat="45.78485" lon="4.19007">
        <ele>367.2</ele>
        <time>2019-04-15T13:34:32Z</time>
      </trkpt>
      <trkpt lat="45.78492" lon="4.19009">
        <ele>367.001</ele>
        <time>2019-04-15T13:34:38Z</time>
      </trkpt>
      <trkpt lat="45.785" lon="4.19008">
        <ele>366.888</ele>
        <time>2019-04-15T13:34:44Z</time>
      </trkpt>
      <trkpt lat="45.78507" lon="4.19008">
        <ele>366.688</ele>
        <time>2019-04-15T13:34:50Z</time>
      </trkpt>
      <trkpt lat="45.78515" lon="4.19007">
        <ele>366.31</ele>
        <time>2019-04-15T13:34:56Z</time>
      </trkpt>
      <trkpt lat="45.78521" lon="4.19006">
        <ele>366.383</ele>
        <time>2019-04-15T13:35:02Z</time>
      </trkpt>
      <trkpt lat="45.78528" lon="4.19005">
        <ele>366.772</ele>
        <time>2019-04-15T13:35:08Z</time>
      </trkpt>
      <trkpt lat="45.78535" lon="4.19005">
        <ele>367.15</ele>
        <time>2019-04-15T13:35:14Z</time>
      </trkpt>
      <trkpt lat="45.78542" lon="4.19006">
        <ele>367.305</ele>
        <time>2019-04-15T13:35:19Z</time>
      </trkpt>
      <trkpt lat="45.78549" lon="4.19005">
        <ele>367.505</ele>
        <time>2019-04-15T13:35:25Z</time>
      </trkpt>
      <trkpt lat="45.78556" lon="4.19006">
        <ele>367.264</ele>
        <time>2019-04-15T13:35:31Z</time>
      </trkpt>
      <trkpt lat="45.78563" lon="4.19005">
        <ele>366.927</ele>
        <time>2019-04-15T13:35:36Z</time>
      </trkpt>
      <trkpt lat="45.78569" lon="4.19006">
        <ele>366.648</ele>
        <time>2019-04-15T13:35:42Z</time>
      </trkpt>
      <trkpt lat="45.78577" lon="4.19005">
        <ele>366.538</ele>
        <time>2019-04-15T13:35:48Z</time>
      </trkpt>
      <trkpt lat="45.78583" lon="4.19004">
        <ele>366.476</ele>
        <time>2019-04-15T13:35:53Z</time>
      </trkpt>
      <trkpt lat="45.78588" lon="4.19004">
        <ele>366.165</ele>
        <time>2019-04-15T13:35:59Z</time>
      </trkpt>
      <trkpt lat="45.78594" lon="4.19005">
        <ele>365.974</ele>
        <time>2019-04-15T13:36:04Z</time>
      </trkpt>
      <trkpt lat="45.786" lon="4.19005">
        <ele>366.402</ele>
        <time>2019-04-15T13:36:09Z</time>
      </trkpt>
      <trkpt lat="45.78607" lon="4.19004">
        <ele>366.656</ele>
        <time>2019-04-15T13:36:14Z</time>
      </trkpt>
      <trkpt lat="45.78613" lon="4.19002">
        <ele>366.353</ele>
        <time>2019-04-15T13:36:20Z</time>
      </trkpt>
      <trkpt lat="45.7862" lon="4.19002">
        <ele>365.766</ele>
        <time>2019-04-15T13:36:25Z</time>
      </trkpt>
      <trkpt lat="45.78627" lon="4.19002">
        <ele>365.228</ele>
        <time>2019-04-15T13:36:31Z</time>
      </trkpt>
      <trkpt lat="45.78633" lon="4.19001">
        <ele>365.074</ele>
        <time>2019-04-15T13:36:36Z</time>
      </trkpt>
      <trkpt lat="45.78639" lon="4.19001">
        <ele>365.015</ele>
        <time>2019-04-15T13:36:42Z</time>
      </trkpt>
      <trkpt lat="45.78645" lon="4.19002">
        <ele>365.139</ele>
        <time>2019-04-15T13:36:48Z</time>
      </trkpt>
      <trkpt lat="45.78651" lon="4.19009">
        <ele>365.184</ele>
        <time>2019-04-15T13:36:54Z</time>
      </trkpt>
      <trkpt lat="45.78654" lon="4.19016">
        <ele>365.308</ele>
        <time>2019-04-15T13:37:00Z</time>
      </trkpt>
      <trkpt lat="45.78655" lon="4.19026">
        <ele>365.661</ele>
        <time>2019-04-15T13:37:06Z</time>
      </trkpt>
      <trkpt lat="45.78656" lon="4.19035">
        <ele>366.159</ele>
        <time>2019-04-15T13:37:12Z</time>
      </trkpt>
      <trkpt lat="45.78657" lon="4.19044">
        <ele>366.348</ele>
        <time>2019-04-15T13:37:18Z</time>
      </trkpt>
      <trkpt lat="45.78658" lon="4.19052">
        <ele>366.314</ele>
        <time>2019-04-15T13:37:24Z</time>
      </trkpt>
      <trkpt lat="45.78659" lon="4.19064">
        <ele>366.487</ele>
        <time>2019-04-15T13:37:30Z</time>
      </trkpt>
      <trkpt lat="45.78661" lon="4.19077">
        <ele>366.575</ele>
        <time>2019-04-15T13:37:36Z</time>
      </trkpt>
      <trkpt lat="45.78663" lon="4.19087">
        <ele>366.743</ele>
        <time>2019-04-15T13:37:42Z</time>
      </trkpt>
      <trkpt lat="45.78664" lon="4.19094">
        <ele>366.862</ele>
        <time>2019-04-15T13:37:47Z</time>
      </trkpt>
      <trkpt lat="45.78664" lon="4.19102">
        <ele>366.979</ele>
        <time>2019-04-15T13:37:52Z</time>
      </trkpt>
      <trkpt lat="45.78664" lon="4.19113">
        <ele>366.807</ele>
        <time>2019-04-15T13:37:58Z</time>
      </trkpt>
      <trkpt lat="45.78665" lon="4.19122">
        <ele>366.344</ele>
        <time>2019-04-15T13:38:04Z</time>
      </trkpt>
      <trkpt lat="45.78666" lon="4.1913">
        <ele>366.219</ele>
        <time>2019-04-15T13:38:09Z</time>
      </trkpt>
      <trkpt lat="45.78667" lon="4.19138">
        <ele>366.225</ele>
        <time>2019-04-15T13:38:15Z</time>
      </trkpt>
      <trkpt lat="45.78668" lon="4.19147">
        <ele>366.273</ele>
        <time>2019-04-15T13:38:21Z</time>
      </trkpt>
      <trkpt lat="45.7867" lon="4.19155">
        <ele>366.34</ele>
        <time>2019-04-15T13:38:27Z</time>
      </trkpt>
      <trkpt lat="45.78672" lon="4.19166">
        <ele>366.439</ele>
        <time>2019-04-15T13:38:33Z</time>
      </trkpt>
      <trkpt lat="45.78672" lon="4.19176">
        <ele>366.591</ele>
        <time>2019-04-15T13:38:39Z</time>
      </trkpt>
      <trkpt lat="45.78674" lon="4.19182">
        <ele>366.579</ele>
        <time>2019-04-15T13:38:45Z</time>
      </trkpt>
      <trkpt lat="45.78675" lon="4.19191">
        <ele>366.658</ele>
        <time>2019-04-15T13:38:51Z</time>
      </trkpt>
      <trkpt lat="45.78676" lon="4.19201">
        <ele>366.834</ele>
        <time>2019-04-15T13:38:57Z</time>
      </trkpt>
      <trkpt lat="45.78677" lon="4.1921">
        <ele>367.093</ele>
        <time>2019-04-15T13:39:03Z</time>
      </trkpt>
      <trkpt lat="45.78678" lon="4.19221">
        <ele>367.325</ele>
        <time>2019-04-15T13:39:09Z</time>
      </trkpt>
      <trkpt lat="45.78679" lon="4.19231">
        <ele>367.417</ele>
        <time>2019-04-15T13:39:14Z</time>
      </trkpt>
      <trkpt lat="45.78679" lon="4.19239">
        <ele>367.307</ele>
        <time>2019-04-15T13:39:20Z</time>
      </trkpt>
      <trkpt lat="45.7868" lon="4.19249">
        <ele>367.541</ele>
        <time>2019-04-15T13:39:26Z</time>
      </trkpt>
      <trkpt lat="45.78681" lon="4.19258">
        <ele>367.62</ele>
        <time>2019-04-15T13:39:32Z</time>
      </trkpt>
      <trkpt lat="45.78682" lon="4.19266">
        <ele>367.749</ele>
        <time>2019-04-15T13:39:37Z</time>
      </trkpt>
      <trkpt lat="45.78684" lon="4.19276">
        <ele>367.671</ele>
        <time>2019-04-15T13:39:43Z</time>
      </trkpt>
      <trkpt lat="45.78686" lon="4.19283">
        <ele>367.178</ele>
        <time>2019-04-15T13:39:48Z</time>
      </trkpt>
      <trkpt lat="45.78687" lon="4.19293">
        <ele>366.756</ele>
        <time>2019-04-15T13:39:54Z</time>
      </trkpt>
      <trkpt lat="45.78688" lon="4.19302">
        <ele>366.753</ele>
        <time>2019-04-15T13:39:59Z</time>
      </trkpt>
      <trkpt lat="45.78689" lon="4.19312">
        <ele>367.06</ele>
        <time>2019-04-15T13:40:05Z</time>
      </trkpt>
      <trkpt lat="45.78689" lon="4.19323">
        <ele>367.053</ele>
        <time>2019-04-15T13:40:10Z</time>
      </trkpt>
      <trkpt lat="45.78691" lon="4.19332">
        <ele>367.19</ele>
        <time>2019-04-15T13:40:16Z</time>
      </trkpt>
      <trkpt lat="45.78691" lon="4.1934">
        <ele>367.414</ele>
        <time>2019-04-15T13:40:21Z</time>
      </trkpt>
      <trkpt lat="45.78692" lon="4.19351">
        <ele>367.498</ele>
        <time>2019-04-15T13:40:27Z</time>
      </trkpt>
      <trkpt lat="45.78693" lon="4.19358">
        <ele>367.538</ele>
        <time>2019-04-15T13:40:32Z</time>
      </trkpt>
      <trkpt lat="45.78693" lon="4.19368">
        <ele>367.76</ele>
        <time>2019-04-15T13:40:38Z</time>
      </trkpt>
      <trkpt lat="45.78694" lon="4.19379">
        <ele>367.708</ele>
        <time>2019-04-15T13:40:44Z</time>
      </trkpt>
      <trkpt lat="45.78695" lon="4.19387">
        <ele>367.848</ele>
        <time>2019-04-15T13:40:49Z</time>
      </trkpt>
      <trkpt lat="45.78696" lon="4.19393">
        <ele>367.764</ele>
        <time>2019-04-15T13:40:54Z</time>
      </trkpt>
      <trkpt lat="45.78698" lon="4.19403">
        <ele>367.696</ele>
        <time>2019-04-15T13:41:00Z</time>
      </trkpt>
      <trkpt lat="45.78699" lon="4.1941">
        <ele>367.375</ele>
        <time>2019-04-15T13:41:06Z</time>
      </trkpt>
      <trkpt lat="45.78701" lon="4.19419">
        <ele>366.968</ele>
        <time>2019-04-15T13:41:12Z</time>
      </trkpt>
      <trkpt lat="45.78701" lon="4.19425">
        <ele>366.934</ele>
        <time>2019-04-15T13:41:17Z</time>
      </trkpt>
      <trkpt lat="45.78702" lon="4.19435">
        <ele>366.571</ele>
        <time>2019-04-15T13:41:23Z</time>
      </trkpt>
      <trkpt lat="45.78703" lon="4.19444">
        <ele>366.789</ele>
        <time>2019-04-15T13:41:29Z</time>
      </trkpt>
      <trkpt lat="45.78704" lon="4.19454">
        <ele>366.879</ele>
        <time>2019-04-15T13:41:34Z</time>
      </trkpt>
      <trkpt lat="45.78704" lon="4.19464">
        <ele>367.015</ele>
        <time>2019-04-15T13:41:40Z</time>
      </trkpt>
      <trkpt lat="45.78705" lon="4.19475">
        <ele>367.198</ele>
        <time>2019-04-15T13:41:46Z</time>
      </trkpt>
      <trkpt lat="45.78707" lon="4.19486">
        <ele>366.962</ele>
        <time>2019-04-15T13:41:52Z</time>
      </trkpt>
      <trkpt lat="45.78709" lon="4.19496">
        <ele>366.816</ele>
        <time>2019-04-15T13:41:58Z</time>
      </trkpt>
      <trkpt lat="45.7871" lon="4.19504">
        <ele>367.069</ele>
        <time>2019-04-15T13:42:03Z</time>
      </trkpt>
      <trkpt lat="45.7871" lon="4.19513">
        <ele>367.284</ele>
        <time>2019-04-15T13:42:09Z</time>
      </trkpt>
      <trkpt lat="45.78712" lon="4.19524">
        <ele>367.64</ele>
        <time>2019-04-15T13:42:14Z</time>
      </trkpt>
      <trkpt lat="45.78713" lon="4.19533">
        <ele>368.013</ele>
        <time>2019-04-15T13:42:20Z</time>
      </trkpt>
      <trkpt lat="45.78713" lon="4.19543">
        <ele>367.973</ele>
        <time>2019-04-15T13:42:25Z</time>
      </trkpt>
      <trkpt lat="45.78714" lon="4.19554">
        <ele>367.525</ele>
        <time>2019-04-15T13:42:31Z</time>
      </trkpt>
      <trkpt lat="45.78716" lon="4.19563">
        <ele>366.904</ele>
        <time>2019-04-15T13:42:37Z</time>
      </trkpt>
      <trkpt lat="45.78716" lon="4.19573">
        <ele>366.957</ele>
        <time>2019-04-15T13:42:43Z</time>
      </trkpt>
      <trkpt lat="45.78718" lon="4.19583">
        <ele>366.958</ele>
        <time>2019-04-15T13:42:49Z</time>
      </trkpt>
      <trkpt lat="45.78719" lon="4.1959">
        <ele>367.112</ele>
        <time>2019-04-15T13:42:54Z</time>
      </trkpt>
      <trkpt lat="45.78721" lon="4.19602">
        <ele>367.302</ele>
        <time>2019-04-15T13:43:00Z</time>
      </trkpt>
      <trkpt lat="45.78723" lon="4.19613">
        <ele>367.818</ele>
        <time>2019-04-15T13:43:06Z</time>
      </trkpt>
      <trkpt lat="45.78724" lon="4.19622">
        <ele>368.124</ele>
        <time>2019-04-15T13:43:12Z</time>
      </trkpt>
      <trkpt lat="45.78725" lon="4.19633">
        <ele>368.48</ele>
        <time>2019-04-15T13:43:18Z</time>
      </trkpt>
      <trkpt lat="45.78725" lon="4.19639">
        <ele>368.513</ele>
        <time>2019-04-15T13:43:24Z</time>
      </trkpt>
      <trkpt lat="45.78726" lon="4.1965">
        <ele>368.233</ele>
        <time>2019-04-15T13:43:30Z</time>
      </trkpt>
      <trkpt lat="45.78727" lon="4.19659">
        <ele>367.72</ele>
        <time>2019-04-15T13:43:36Z</time>
      </trkpt>
      <trkpt lat="45.78729" lon="4.19668">
        <ele>367.541</ele>
        <time>2019-04-15T13:43:42Z</time>
      </trkpt>
      <trkpt lat="45.78729" lon="4.19676">
        <ele>367.498</ele>
        <time>2019-04-15T13:43:48Z</time>
      </trkpt>
      <trkpt lat="45.7873" lon="4.19685">
        <ele>367.667</ele>
        <time>2019-04-15T13:43:54Z</time>
      </trkpt>
      <trkpt lat="45.78731" lon="4.19692">
        <ele>367.959</ele>
        <time>2019-04-15T13:43:59Z</time>
      </trkpt>
      <trkpt lat="45.78734" lon="4.19703">
        <ele>368.282</ele>
        <time>2019-04-15T13:44:05Z</time>
      </trkpt>
      <trkpt lat="45.78736" lon="4.19711">
        <ele>368.383</ele>
        <time>2019-04-15T13:44:10Z</time>
      </trkpt>
      <trkpt lat="45.78739" lon="4.19722">
        <ele>368.496</ele>
        <time>2019-04-15T13:44:16Z</time>
      </trkpt>
      <trkpt lat="45.78738" lon="4.1973">
        <ele>368.817</ele>
        <time>2019-04-15T13:44:22Z</time>
      </trkpt>
      <trkpt lat="45.78738" lon="4.19738">
        <ele>368.386</ele>
        <time>2019-04-15T13:44:28Z</time>
      </trkpt>
      <trkpt lat="45.78739" lon="4.19747">
        <ele>368.455</ele>
        <time>2019-04-15T13:44:34Z</time>
      </trkpt>
      <trkpt lat="45.7874" lon="4.19756">
        <ele>368.877</ele>
        <time>2019-04-15T13:44:39Z</time>
      </trkpt>
      <trkpt lat="45.78741" lon="4.19766">
        <ele>369.215</ele>
        <time>2019-04-15T13:44:45Z</time>
      </trkpt>
      <trkpt lat="45.78741" lon="4.19775">
        <ele>369.5</ele>
        <time>2019-04-15T13:44:51Z</time>
      </trkpt>
      <trkpt lat="45.78742" lon="4.19783">
        <ele>369.709</ele>
        <time>2019-04-15T13:44:56Z</time>
      </trkpt>
      <trkpt lat="45.78741" lon="4.19794">
        <ele>369.63</ele>
        <time>2019-04-15T13:45:02Z</time>
      </trkpt>
      <trkpt lat="45.78742" lon="4.19801">
        <ele>369.179</ele>
        <time>2019-04-15T13:45:08Z</time>
      </trkpt>
      <trkpt lat="45.78743" lon="4.19812">
        <ele>368.691</ele>
        <time>2019-04-15T13:45:14Z</time>
      </trkpt>
      <trkpt lat="45.78744" lon="4.19822">
        <ele>368.285</ele>
        <time>2019-04-15T13:45:20Z</time>
      </trkpt>
      <trkpt lat="45.78745" lon="4.19831">
        <ele>368.412</ele>
        <time>2019-04-15T13:45:26Z</time>
      </trkpt>
      <trkpt lat="45.78746" lon="4.19841">
        <ele>368.58</ele>
        <time>2019-04-15T13:45:32Z</time>
      </trkpt>
      <trkpt lat="45.78747" lon="4.19851">
        <ele>368.51</ele>
        <time>2019-04-15T13:45:38Z</time>
      </trkpt>
      <trkpt lat="45.78748" lon="4.19858">
        <ele>368.354</ele>
        <time>2019-04-15T13:45:43Z</time>
      </trkpt>
      <trkpt lat="45.78749" lon="4.19868">
        <ele>368.312</ele>
        <time>2019-04-15T13:45:49Z</time>
      </trkpt>
      <trkpt lat="45.7875" lon="4.19876">
        <ele>368.372</ele>
        <time>2019-04-15T13:45:54Z</time>
      </trkpt>
      <trkpt lat="45.78752" lon="4.19887">
        <ele>368.081</ele>
        <time>2019-04-15T13:46:00Z</time>
      </trkpt>
      <trkpt lat="45.78753" lon="4.19898">
        <ele>367.879</ele>
        <time>2019-04-15T13:46:06Z</time>
      </trkpt>
      <trkpt lat="45.78755" lon="4.19903">
        <ele>367.619</ele>
        <time>2019-04-15T13:46:11Z</time>
      </trkpt>
      <trkpt lat="45.78755" lon="4.19913">
        <ele>367.517</ele>
        <time>2019-04-15T13:46:17Z</time>
      </trkpt>
      <trkpt lat="45.78755" lon="4.19923">
        <ele>367.553</ele>
        <time>2019-04-15T13:46:23Z</time>
      </trkpt>
      <trkpt lat="45.78755" lon="4.19934">
        <ele>367.593</ele>
        <time>2019-04-15T13:46:29Z</time>
      </trkpt>
      <trkpt lat="45.78754" lon="4.19944">
        <ele>367.801</ele>
        <time>2019-04-15T13:46:35Z</time>
      </trkpt>
      <trkpt lat="45.78754" lon="4.19954">
        <ele>368.097</ele>
        <time>2019-04-15T13:46:41Z</time>
      </trkpt>
      <trkpt lat="45.78753" lon="4.19964">
        <ele>368.209</ele>
        <time>2019-04-15T13:46:47Z</time>
      </trkpt>
      <trkpt lat="45.78751" lon="4.19971">
        <ele>368.206</ele>
        <time>2019-04-15T13:46:52Z</time>
      </trkpt>
      <trkpt lat="45.78751" lon="4.19979">
        <ele>368.245</ele>
        <time>2019-04-15T13:46:57Z</time>
      </trkpt>
      <trkpt lat="45.7875" lon="4.19987">
        <ele>368.56</ele>
        <time>2019-04-15T13:47:02Z</time>
      </trkpt>
      <trkpt lat="45.7875" lon="4.19998">
        <ele>368.532</ele>
        <time>2019-04-15T13:47:08Z</time>
      </trkpt>
      <trkpt lat="45.7875" lon="4.20006">
        <ele>368.597</ele>
        <time>2019-04-15T13:47:13Z</time>
      </trkpt>
      <trkpt lat="45.78749" lon="4.20016">
        <ele>368.69</ele>
        <time>2019-04-15T13:47:19Z</time>
      </trkpt>
      <trkpt lat="45.78748" lon="4.20024">
        <ele>369.177</ele>
        <time>2019-04-15T13:47:25Z</time>
      </trkpt>
      <trkpt lat="45.78746" lon="4.20035">
        <ele>369.434</ele>
        <time>2019-04-15T13:47:31Z</time>
      </trkpt>
      <trkpt lat="45.78745" lon="4.20044">
        <ele>369.606</ele>
        <time>2019-04-15T13:47:37Z</time>
      </trkpt>
      <trkpt lat="45.78745" lon="4.20052">
        <ele>369.61</ele>
        <time>2019-04-15T13:47:43Z</time>
      </trkpt>
      <trkpt lat="45.78745" lon="4.20062">
        <ele>369.534</ele>
        <time>2019-04-15T13:47:48Z</time>
      </trkpt>
      <trkpt lat="45.78744" lon="4.2007">
        <ele>369.819</ele>
        <time>2019-04-15T13:47:54Z</time>
      </trkpt>
      <trkpt lat="45.78743" lon="4.20081">
        <ele>370.354</ele>
        <time>2019-04-15T13:48:00Z</time>
      </trkpt>
      <trkpt lat="45.78742" lon="4.20088">
        <ele>370.617</ele>
        <time>2019-04-15T13:48:05Z</time>
      </trkpt>
      <trkpt lat="45.78741" lon="4.20095">
        <ele>370.991</ele>
        <time>2019-04-15T13:48:10Z</time>
      </trkpt>
      <trkpt lat="45.78741" lon="4.20095">
        <ele>370.875</ele>
        <time>2019-04-15T13:48:15Z</time>
      </trkpt>
      <trkpt lat="45.78738" lon="4.20096">
        <ele>370.048</ele>
        <time>2019-04-15T13:48:21Z</time>
      </trkpt>
      <trkpt lat="45.78737" lon="4.20097">
        <ele>369.332</ele>
        <time>2019-04-15T13:48:27Z</time>
      </trkpt>
      <trkpt lat="45.78738" lon="4.20098">
        <ele>369.276</ele>
        <time>2019-04-15T13:48:32Z</time>
      </trkpt>
      <trkpt lat="45.78739" lon="4.20097">
        <ele>368.989</ele>
        <time>2019-04-15T13:48:38Z</time>
      </trkpt>
      <trkpt lat="45.7874" lon="4.20098">
        <ele>368.663</ele>
        <time>2019-04-15T13:48:43Z</time>
      </trkpt>
      <trkpt lat="45.78742" lon="4.20097">
        <ele>368.588</ele>
        <time>2019-04-15T13:48:49Z</time>
      </trkpt>
      <trkpt lat="45.78742" lon="4.20096">
        <ele>368.855</ele>
        <time>2019-04-15T13:48:55Z</time>
      </trkpt>
      <trkpt lat="45.78743" lon="4.20096">
        <ele>368.857</ele>
        <time>2019-04-15T13:49:01Z</time>
      </trkpt>
      <trkpt lat="45.78743" lon="4.20096">
        <ele>368.49</ele>
        <time>2019-04-15T13:49:07Z</time>
      </trkpt>
      <trkpt lat="45.78743" lon="4.20098">
        <ele>368.465</ele>
        <time>2019-04-15T13:49:12Z</time>
      </trkpt>
      <trkpt lat="45.78744" lon="4.20098">
        <ele>368.541</ele>
        <time>2019-04-15T13:49:18Z</time>
      </trkpt>
      <trkpt lat="45.78743" lon="4.20099">
        <ele>368.884</ele>
        <time>2019-04-15T13:49:23Z</time>
      </trkpt>
      <trkpt lat="45.78742" lon="4.201">
        <ele>368.767</ele>
        <time>2019-04-15T13:49:29Z</time>
      </trkpt>
      <trkpt lat="45.78742" lon="4.20101">
        <ele>368.912</ele>
        <time>2019-04-15T13:49:35Z</time>
      </trkpt>
      <trkpt lat="45.78741" lon="4.20101">
        <ele>368.639</ele>
        <time>2019-04-15T13:49:40Z</time>
      </trkpt>
      <trkpt lat="45.78741" lon="4.20103">
        <ele>368.367</ele>
        <time>2019-04-15T13:49:46Z</time>
      </trkpt>
      <trkpt lat="45.7874" lon="4.20103">
        <ele>368.075</ele>
        <time>2019-04-15T13:49:51Z</time>
      </trkpt>
      <trkpt lat="45.78741" lon="4.20102">
        <ele>368.026</ele>
        <time>2019-04-15T13:49:57Z</time>
      </trkpt>
      <trkpt lat="45.78741" lon="4.20102">
        <ele>367.997</ele>
        <time>2019-04-15T13:50:02Z</time>
      </trkpt>
      <trkpt lat="45.78741" lon="4.20102">
        <ele>367.965</ele>
        <time>2019-04-15T13:50:08Z</time>
      </trkpt>
      <trkpt lat="45.78742" lon="4.20102">
        <ele>367.341</ele>
        <time>2019-04-15T13:50:14Z</time>
      </trkpt>
      <trkpt lat="45.78742" lon="4.20101">
        <ele>366.87</ele>
        <time>2019-04-15T13:50:19Z</time>
      </trkpt>
      <trkpt lat="45.78743" lon="4.20099">
        <ele>366.888</ele>
        <time>2019-04-15T13:50:25Z</time>
      </trkpt>
      <trkpt lat="45.78744" lon="4.20096">
        <ele>366.884</ele>
        <time>2019-04-15T13:50:30Z</time>
      </trkpt>
      <trkpt lat="45.78743" lon="4.20098">
        <ele>367.038</ele>
        <time>2019-04-15T13:50:36Z</time>
      </trkpt>
      <trkpt lat="45.78742" lon="4.20099">
        <ele>367.037</ele>
        <time>2019-04-15T13:50:42Z</time>
      </trkpt>
      <trkpt lat="45.78744" lon="4.201">
        <ele>366.503</ele>
        <time>2019-04-15T13:50:48Z</time>
      </trkpt>
      <trkpt lat="45.78744" lon="4.20099">
        <ele>366.237</ele>
        <time>2019-04-15T13:50:53Z</time>
      </trkpt>
      <trkpt lat="45.78743" lon="4.20099">
        <ele>366.082</ele>
        <time>2019-04-15T13:50:59Z</time>
      </trkpt>
      <trkpt lat="45.78743" lon="4.20097">
        <ele>366.013</ele>
        <time>2019-04-15T13:51:04Z</time>
      </trkpt>
      <trkpt lat="45.78742" lon="4.20098">
        <ele>366.295</ele>
        <time>2019-04-15T13:51:10Z</time>
      </trkpt>
      <trkpt lat="45.78742" lon="4.20099">
        <ele>366.281</ele>
        <time>2019-04-15T13:51:15Z</time>
      </trkpt>
      <trkpt lat="45.78742" lon="4.20101">
        <ele>365.673</ele>
        <time>2019-04-15T13:51:21Z</time>
      </trkpt>
      <trkpt lat="45.78742" lon="4.201">
        <ele>365.522</ele>
        <time>2019-04-15T13:51:26Z</time>
      </trkpt>
      <trkpt lat="45.78741" lon="4.201">
        <ele>365.526</ele>
        <time>2019-04-15T13:51:31Z</time>
      </trkpt>
      <trkpt lat="45.78742" lon="4.20099">
        <ele>365.79</ele>
        <time>2019-04-15T13:51:36Z</time>
      </trkpt>
      <trkpt lat="45.78741" lon="4.20098">
        <ele>365.89</ele>
        <time>2019-04-15T13:51:41Z</time>
      </trkpt>
      <trkpt lat="45.78741" lon="4.20098">
        <ele>365.903</ele>
        <time>2019-04-15T13:51:47Z</time>
      </trkpt>
      <trkpt lat="45.78741" lon="4.20098">
        <ele>365.701</ele>
        <time>2019-04-15T13:51:53Z</time>
      </trkpt>
      <trkpt lat="45.78742" lon="4.20097">
        <ele>365.073</ele>
        <time>2019-04-15T13:51:58Z</time>
      </trkpt>
      <trkpt lat="45.78742" lon="4.20098">
        <ele>365.069</ele>
        <time>2019-04-15T13:52:03Z</time>
      </trkpt>
      <trkpt lat="45.78742" lon="4.20098">
        <ele>365.335</ele>
        <time>2019-04-15T13:52:09Z</time>
      </trkpt>
      <trkpt lat="45.78742" lon="4.20099">
        <ele>365.381</ele>
        <time>2019-04-15T13:52:15Z</time>
      </trkpt>
      <trkpt lat="45.78742" lon="4.20099">
        <ele>365.484</ele>
        <time>2019-04-15T13:52:20Z</time>
      </trkpt>
      <trkpt lat="45.78742" lon="4.20099">
        <ele>365.45</ele>
        <time>2019-04-15T13:52:25Z</time>
      </trkpt>
      <trkpt lat="45.78742" lon="4.20099">
        <ele>365.382</ele>
        <time>2019-04-15T13:52:31Z</time>
      </trkpt>
      <trkpt lat="45.78741" lon="4.20099">
        <ele>365.522</ele>
        <time>2019-04-15T13:52:37Z</time>
      </trkpt>
      <trkpt lat="45.78741" lon="4.201">
        <ele>365.594</ele>
        <time>2019-04-15T13:52:42Z</time>
      </trkpt>
      <trkpt lat="45.78741" lon="4.20099">
        <ele>365.477</ele>
        <time>2019-04-15T13:52:48Z</time>
      </trkpt>
      <trkpt lat="45.78741" lon="4.201">
        <ele>365.461</ele>
        <time>2019-04-15T13:52:54Z</time>
      </trkpt>
      <trkpt lat="45.78741" lon="4.201">
        <ele>365.515</ele>
        <time>2019-04-15T13:53:00Z</time>
      </trkpt>
      <trkpt lat="45.78741" lon="4.20099">
        <ele>365.402</ele>
        <time>2019-04-15T13:53:05Z</time>
      </trkpt>
      <trkpt lat="45.78742" lon="4.20098">
        <ele>365.296</ele>
        <time>2019-04-15T13:53:11Z</time>
      </trkpt>
      <trkpt lat="45.78742" lon="4.20097">
        <ele>365.28</ele>
        <time>2019-04-15T13:53:17Z</time>
      </trkpt>
      <trkpt lat="45.78743" lon="4.20096">
        <ele>364.956</ele>
        <time>2019-04-15T13:53:23Z</time>
      </trkpt>
      <trkpt lat="45.78744" lon="4.20096">
        <ele>364.827</ele>
        <time>2019-04-15T13:53:29Z</time>
      </trkpt>
      <trkpt lat="45.78744" lon="4.20098">
        <ele>365.192</ele>
        <time>2019-04-15T13:53:34Z</time>
      </trkpt>
      <trkpt lat="45.78747" lon="4.20099">
        <ele>365.563</ele>
        <time>2019-04-15T13:53:39Z</time>
      </trkpt>
      <trkpt lat="45.78753" lon="4.20101">
        <ele>366.068</ele>
        <time>2019-04-15T13:53:45Z</time>
      </trkpt>
      <trkpt lat="45.78758" lon="4.20103">
        <ele>365.972</ele>
        <time>2019-04-15T13:53:51Z</time>
      </trkpt>
      <trkpt lat="45.78765" lon="4.20106">
        <ele>365.832</ele>
        <time>2019-04-15T13:53:57Z</time>
      </trkpt>
      <trkpt lat="45.78771" lon="4.20109">
        <ele>365.71</ele>
        <time>2019-04-15T13:54:03Z</time>
      </trkpt>
      <trkpt lat="45.78777" lon="4.2011">
        <ele>365.928</ele>
        <time>2019-04-15T13:54:09Z</time>
      </trkpt>
      <trkpt lat="45.78783" lon="4.20111">
        <ele>366.241</ele>
        <time>2019-04-15T13:54:15Z</time>
      </trkpt>
      <trkpt lat="45.78789" lon="4.20113">
        <ele>366.269</ele>
        <time>2019-04-15T13:54:20Z</time>
      </trkpt>
      <trkpt lat="45.78795" lon="4.20115">
        <ele>366.078</ele>
        <time>2019-04-15T13:54:26Z</time>
      </trkpt>
      <trkpt lat="45.78801" lon="4.20117">
        <ele>365.956</ele>
        <time>2019-04-15T13:54:32Z</time>
      </trkpt>
      <trkpt lat="45.78808" lon="4.20117">
        <ele>366.251</ele>
        <time>2019-04-15T13:54:38Z</time>
      </trkpt>
      <trkpt lat="45.78816" lon="4.20116">
        <ele>366.062</ele>
        <time>2019-04-15T13:54:44Z</time>
      </trkpt>
      <trkpt lat="45.78822" lon="4.20115">
        <ele>365.88</ele>
        <time>2019-04-15T13:54:50Z</time>
      </trkpt>
      <trkpt lat="45.7883" lon="4.20113">
        <ele>365.672</ele>
        <time>2019-04-15T13:54:56Z</time>
      </trkpt>
      <trkpt lat="45.78837" lon="4.20112">
        <ele>365.608</ele>
        <time>2019-04-15T13:55:02Z</time>
      </trkpt>
      <trkpt lat="45.78842" lon="4.20112">
        <ele>365.272</ele>
        <time>2019-04-15T13:55:08Z</time>
      </trkpt>
      <trkpt lat="45.7885" lon="4.2011">
        <ele>364.803</ele>
        <time>2019-04-15T13:55:14Z</time>
      </trkpt>
      <trkpt lat="45.78856" lon="4.20108">
        <ele>364.552</ele>
        <time>2019-04-15T13:55:19Z</time>
      </trkpt>
      <trkpt lat="45.78862" lon="4.20107">
        <ele>364.739</ele>
        <time>2019-04-15T13:55:25Z</time>
      </trkpt>
      <trkpt lat="45.78867" lon="4.20106">
        <ele>364.933</ele>
        <time>2019-04-15T13:55:30Z</time>
      </trkpt>
      <trkpt lat="45.78871" lon="4.20105">
        <ele>364.917</ele>
        <time>2019-04-15T13:55:36Z</time>
      </trkpt>
      <trkpt lat="45.78879" lon="4.20104">
        <ele>364.819</ele>
        <time>2019-04-15T13:55:42Z</time>
      </trkpt>
      <trkpt lat="45.78884" lon="4.20103">
        <ele>364.992</ele>
        <time>2019-04-15T13:55:48Z</time>
      </trkpt>
      <trkpt lat="45.78892" lon="4.20102">
        <ele>364.715</ele>
        <time>2019-04-15T13:55:54Z</time>
      </trkpt>
      <trkpt lat="45.78899" lon="4.201">
        <ele>364.29</ele>
        <time>2019-04-15T13:55:59Z</time>
      </trkpt>
      <trkpt lat="45.78907" lon="4.20102">
        <ele>363.471</ele>
        <time>2019-04-15T13:56:05Z</time>
      </trkpt>
      <trkpt lat="45.78914" lon="4.20104">
        <ele>363.142</ele>
        <time>2019-04-15T13:56:11Z</time>
      </trkpt>
      <trkpt lat="45.7892" lon="4.20106">
        <ele>362.905</ele>
        <time>2019-04-15T13:56:16Z</time>
      </trkpt>
      <trkpt lat="45.78928" lon="4.20109">
        <ele>363.377</ele>
        <time>2019-04-15T13:56:22Z</time>
      </trkpt>
      <trkpt lat="45.78934" lon="4.20113">
        <ele>363.745</ele>
        <time>2019-04-15T13:56:27Z</time>
      </trkpt>
      <trkpt lat="45.78941" lon="4.20117">
        <ele>364.26</ele>
        <time>2019-04-15T13:56:33Z</time>
      </trkpt>
      <trkpt lat="45.78948" lon="4.20123">
        <ele>364.747</ele>
        <time>2019-04-15T13:56:39Z</time>
      </trkpt>
      <trkpt lat="45.7895" lon="4.20127">
        <ele>365.119</ele>
        <time>2019-04-15T13:56:44Z</time>
      </trkpt>
      <trkpt lat="45.78958" lon="4.20135">
        <ele>365.053</ele>
        <time>2019-04-15T13:56:50Z</time>
      </trkpt>
      <trkpt lat="45.78964" lon="4.2014">
        <ele>364.982</ele>
        <time>2019-04-15T13:56:56Z</time>
      </trkpt>
      <trkpt lat="45.78971" lon="4.20145">
        <ele>365.078</ele>
        <time>2019-04-15T13:57:02Z</time>
      </trkpt>
      <trkpt lat="45.78977" lon="4.20148">
        <ele>365.157</ele>
        <time>2019-04-15T13:57:08Z</time>
      </trkpt>
      <trkpt lat="45.78983" lon="4.20153">
        <ele>365.395</ele>
        <time>2019-04-15T13:57:13Z</time>
      </trkpt>
      <trkpt lat="45.7899" lon="4.2016">
        <ele>365.633</ele>
        <time>2019-04-15T13:57:19Z</time>
      </trkpt>
      <trkpt lat="45.78995" lon="4.20166">
        <ele>366.026</ele>
        <time>2019-04-15T13:57:25Z</time>
      </trkpt>
      <trkpt lat="45.79004" lon="4.20173">
        <ele>366.105</ele>
        <time>2019-04-15T13:57:31Z</time>
      </trkpt>
      <trkpt lat="45.79006" lon="4.2018">
        <ele>366.363</ele>
        <time>2019-04-15T13:57:37Z</time>
      </trkpt>
      <trkpt lat="45.79011" lon="4.20192">
        <ele>365.969</ele>
        <time>2019-04-15T13:57:43Z</time>
      </trkpt>
      <trkpt lat="45.79012" lon="4.20199">
        <ele>365.683</ele>
        <time>2019-04-15T13:57:49Z</time>
      </trkpt>
      <trkpt lat="45.79013" lon="4.20206">
        <ele>365.144</ele>
        <time>2019-04-15T13:57:55Z</time>
      </trkpt>
      <trkpt lat="45.79014" lon="4.20209">
        <ele>364.996</ele>
        <time>2019-04-15T13:58:00Z</time>
      </trkpt>
      <trkpt lat="45.79015" lon="4.2021">
        <ele>365.567</ele>
        <time>2019-04-15T13:58:06Z</time>
      </trkpt>
      <trkpt lat="45.79018" lon="4.20212">
        <ele>365.924</ele>
        <time>2019-04-15T13:58:12Z</time>
      </trkpt>
      <trkpt lat="45.79018" lon="4.20213">
        <ele>365.147</ele>
        <time>2019-04-15T13:58:17Z</time>
      </trkpt>
      <trkpt lat="45.79019" lon="4.20214">
        <ele>364.392</ele>
        <time>2019-04-15T13:58:22Z</time>
      </trkpt>
      <trkpt lat="45.79019" lon="4.20215">
        <ele>363.407</ele>
        <time>2019-04-15T13:58:28Z</time>
      </trkpt>
      <trkpt lat="45.79019" lon="4.20213">
        <ele>363.275</ele>
        <time>2019-04-15T13:58:34Z</time>
      </trkpt>
      <trkpt lat="45.7902" lon="4.20212">
        <ele>362.542</ele>
        <time>2019-04-15T13:58:40Z</time>
      </trkpt>
      <trkpt lat="45.7902" lon="4.2021">
        <ele>361.966</ele>
        <time>2019-04-15T13:58:45Z</time>
      </trkpt>
      <trkpt lat="45.79021" lon="4.20206">
        <ele>362.27</ele>
        <time>2019-04-15T13:58:51Z</time>
      </trkpt>
      <trkpt lat="45.79023" lon="4.20198">
        <ele>362.672</ele>
        <time>2019-04-15T13:58:56Z</time>
      </trkpt>
      <trkpt lat="45.79024" lon="4.20189">
        <ele>362.906</ele>
        <time>2019-04-15T13:59:02Z</time>
      </trkpt>
      <trkpt lat="45.79026" lon="4.20183">
        <ele>362.775</ele>
        <time>2019-04-15T13:59:07Z</time>
      </trkpt>
      <trkpt lat="45.79028" lon="4.20175">
        <ele>362.781</ele>
        <time>2019-04-15T13:59:12Z</time>
      </trkpt>
      <trkpt lat="45.7903" lon="4.20165">
        <ele>362.842</ele>
        <time>2019-04-15T13:59:17Z</time>
      </trkpt>
      <trkpt lat="45.79031" lon="4.20158">
        <ele>363.236</ele>
        <time>2019-04-15T13:59:23Z</time>
      </trkpt>
      <trkpt lat="45.79031" lon="4.20147">
        <ele>364.186</ele>
        <time>2019-04-15T13:59:29Z</time>
      </trkpt>
      <trkpt lat="45.79032" lon="4.20137">
        <ele>364.918</ele>
        <time>2019-04-15T13:59:35Z</time>
      </trkpt>
      <trkpt lat="45.79035" lon="4.2013">
        <ele>364.919</ele>
        <time>2019-04-15T13:59:40Z</time>
      </trkpt>
      <trkpt lat="45.79038" lon="4.20122">
        <ele>365.187</ele>
        <time>2019-04-15T13:59:45Z</time>
      </trkpt>
      <trkpt lat="45.79041" lon="4.20112">
        <ele>365.699</ele>
        <time>2019-04-15T13:59:51Z</time>
      </trkpt>
      <trkpt lat="45.79042" lon="4.20104">
        <ele>366.334</ele>
        <time>2019-04-15T13:59:56Z</time>
      </trkpt>
      <trkpt lat="45.79043" lon="4.20088">
        <ele>366.911</ele>
        <time>2019-04-15T14:00:02Z</time>
      </trkpt>
      <trkpt lat="45.79045" lon="4.20079">
        <ele>367.088</ele>
        <time>2019-04-15T14:00:07Z</time>
      </trkpt>
      <trkpt lat="45.79046" lon="4.20068">
        <ele>366.726</ele>
        <time>2019-04-15T14:00:13Z</time>
      </trkpt>
      <trkpt lat="45.79048" lon="4.20058">
        <ele>366.716</ele>
        <time>2019-04-15T14:00:18Z</time>
      </trkpt>
      <trkpt lat="45.79048" lon="4.20046">
        <ele>366.888</ele>
        <time>2019-04-15T14:00:24Z</time>
      </trkpt>
      <trkpt lat="45.7905" lon="4.20035">
        <ele>367.037</ele>
        <time>2019-04-15T14:00:29Z</time>
      </trkpt>
      <trkpt lat="45.7905" lon="4.20026">
        <ele>366.975</ele>
        <time>2019-04-15T14:00:34Z</time>
      </trkpt>
      <trkpt lat="45.79051" lon="4.20017">
        <ele>366.538</ele>
        <time>2019-04-15T14:00:40Z</time>
      </trkpt>
      <trkpt lat="45.79051" lon="4.20007">
        <ele>365.989</ele>
        <time>2019-04-15T14:00:46Z</time>
      </trkpt>
      <trkpt lat="45.79052" lon="4.19998">
        <ele>365.894</ele>
        <time>2019-04-15T14:00:51Z</time>
      </trkpt>
      <trkpt lat="45.79054" lon="4.19988">
        <ele>365.857</ele>
        <time>2019-04-15T14:00:57Z</time>
      </trkpt>
      <trkpt lat="45.79055" lon="4.19978">
        <ele>365.729</ele>
        <time>2019-04-15T14:01:03Z</time>
      </trkpt>
      <trkpt lat="45.79058" lon="4.19965">
        <ele>365.339</ele>
        <time>2019-04-15T14:01:09Z</time>
      </trkpt>
      <trkpt lat="45.79059" lon="4.19953">
        <ele>364.955</ele>
        <time>2019-04-15T14:01:15Z</time>
      </trkpt>
      <trkpt lat="45.79061" lon="4.19942">
        <ele>364.745</ele>
        <time>2019-04-15T14:01:21Z</time>
      </trkpt>
      <trkpt lat="45.79062" lon="4.1993">
        <ele>364.179</ele>
        <time>2019-04-15T14:01:27Z</time>
      </trkpt>
      <trkpt lat="45.79063" lon="4.19922">
        <ele>363.797</ele>
        <time>2019-04-15T14:01:32Z</time>
      </trkpt>
      <trkpt lat="45.79064" lon="4.19911">
        <ele>363.639</ele>
        <time>2019-04-15T14:01:38Z</time>
      </trkpt>
      <trkpt lat="45.79065" lon="4.19898">
        <ele>363.705</ele>
        <time>2019-04-15T14:01:44Z</time>
      </trkpt>
      <trkpt lat="45.79066" lon="4.19886">
        <ele>364.055</ele>
        <time>2019-04-15T14:01:50Z</time>
      </trkpt>
      <trkpt lat="45.79067" lon="4.19875">
        <ele>364.119</ele>
        <time>2019-04-15T14:01:56Z</time>
      </trkpt>
      <trkpt lat="45.79068" lon="4.19868">
        <ele>364.353</ele>
        <time>2019-04-15T14:02:01Z</time>
      </trkpt>
      <trkpt lat="45.7907" lon="4.19857">
        <ele>364.397</ele>
        <time>2019-04-15T14:02:07Z</time>
      </trkpt>
      <trkpt lat="45.79072" lon="4.19846">
        <ele>364.112</ele>
        <time>2019-04-15T14:02:13Z</time>
      </trkpt>
      <trkpt lat="45.79072" lon="4.19837">
        <ele>363.899</ele>
        <time>2019-04-15T14:02:19Z</time>
      </trkpt>
      <trkpt lat="45.79073" lon="4.19827">
        <ele>363.918</ele>
        <time>2019-04-15T14:02:24Z</time>
      </trkpt>
      <trkpt lat="45.79074" lon="4.19816">
        <ele>363.936</ele>
        <time>2019-04-15T14:02:30Z</time>
      </trkpt>
      <trkpt lat="45.79075" lon="4.19806">
        <ele>364.151</ele>
        <time>2019-04-15T14:02:35Z</time>
      </trkpt>
      <trkpt lat="45.79076" lon="4.19798">
        <ele>364.328</ele>
        <time>2019-04-15T14:02:40Z</time>
      </trkpt>
      <trkpt lat="45.79077" lon="4.19786">
        <ele>364.128</ele>
        <time>2019-04-15T14:02:46Z</time>
      </trkpt>
      <trkpt lat="45.79077" lon="4.19777">
        <ele>364.321</ele>
        <time>2019-04-15T14:02:51Z</time>
      </trkpt>
      <trkpt lat="45.79077" lon="4.19765">
        <ele>364.484</ele>
        <time>2019-04-15T14:02:57Z</time>
      </trkpt>
      <trkpt lat="45.79078" lon="4.19754">
        <ele>364.447</ele>
        <time>2019-04-15T14:03:02Z</time>
      </trkpt>
      <trkpt lat="45.79079" lon="4.19745">
        <ele>364.517</ele>
        <time>2019-04-15T14:03:07Z</time>
      </trkpt>
      <trkpt lat="45.7908" lon="4.19736">
        <ele>364.279</ele>
        <time>2019-04-15T14:03:13Z</time>
      </trkpt>
      <trkpt lat="45.79081" lon="4.19727">
        <ele>363.799</ele>
        <time>2019-04-15T14:03:18Z</time>
      </trkpt>
      <trkpt lat="45.7908" lon="4.19713">
        <ele>363.75</ele>
        <time>2019-04-15T14:03:24Z</time>
      </trkpt>
      <trkpt lat="45.79079" lon="4.19702">
        <ele>363.927</ele>
        <time>2019-04-15T14:03:29Z</time>
      </trkpt>
      <trkpt lat="45.7908" lon="4.19692">
        <ele>363.954</ele>
        <time>2019-04-15T14:03:34Z</time>
      </trkpt>
      <trkpt lat="45.7908" lon="4.19681">
        <ele>363.781</ele>
        <time>2019-04-15T14:03:40Z</time>
      </trkpt>
      <trkpt lat="45.79081" lon="4.19666">
        <ele>363.538</ele>
        <time>2019-04-15T14:03:46Z</time>
      </trkpt>
      <trkpt lat="45.79081" lon="4.19656">
        <ele>363.55</ele>
        <time>2019-04-15T14:03:51Z</time>
      </trkpt>
      <trkpt lat="45.79081" lon="4.19648">
        <ele>363.798</ele>
        <time>2019-04-15T14:03:56Z</time>
      </trkpt>
      <trkpt lat="45.79082" lon="4.19636">
        <ele>364.114</ele>
        <time>2019-04-15T14:04:02Z</time>
      </trkpt>
      <trkpt lat="45.79082" lon="4.19626">
        <ele>363.964</ele>
        <time>2019-04-15T14:04:07Z</time>
      </trkpt>
      <trkpt lat="45.79082" lon="4.19616">
        <ele>364.073</ele>
        <time>2019-04-15T14:04:12Z</time>
      </trkpt>
      <trkpt lat="45.79082" lon="4.19607">
        <ele>364.39</ele>
        <time>2019-04-15T14:04:18Z</time>
      </trkpt>
      <trkpt lat="45.79082" lon="4.19597">
        <ele>364.517</ele>
        <time>2019-04-15T14:04:23Z</time>
      </trkpt>
      <trkpt lat="45.79083" lon="4.19585">
        <ele>363.92</ele>
        <time>2019-04-15T14:04:29Z</time>
      </trkpt>
      <trkpt lat="45.79085" lon="4.19573">
        <ele>363.962</ele>
        <time>2019-04-15T14:04:34Z</time>
      </trkpt>
      <trkpt lat="45.79087" lon="4.19559">
        <ele>365.409</ele>
        <time>2019-04-15T14:04:40Z</time>
      </trkpt>
      <trkpt lat="45.79087" lon="4.19549">
        <ele>366.089</ele>
        <time>2019-04-15T14:04:45Z</time>
      </trkpt>
      <trkpt lat="45.79086" lon="4.19539">
        <ele>366.935</ele>
        <time>2019-04-15T14:04:51Z</time>
      </trkpt>
      <trkpt lat="45.79085" lon="4.19529">
        <ele>367.221</ele>
        <time>2019-04-15T14:04:56Z</time>
      </trkpt>
      <trkpt lat="45.79085" lon="4.19517">
        <ele>366.661</ele>
        <time>2019-04-15T14:05:02Z</time>
      </trkpt>
      <trkpt lat="45.79083" lon="4.19505">
        <ele>367.315</ele>
        <time>2019-04-15T14:05:08Z</time>
      </trkpt>
      <trkpt lat="45.79083" lon="4.19496">
        <ele>368.197</ele>
        <time>2019-04-15T14:05:13Z</time>
      </trkpt>
      <trkpt lat="45.79083" lon="4.19484">
        <ele>369.3</ele>
        <time>2019-04-15T14:05:19Z</time>
      </trkpt>
      <trkpt lat="45.79083" lon="4.19472">
        <ele>370.231</ele>
        <time>2019-04-15T14:05:25Z</time>
      </trkpt>
      <trkpt lat="45.79084" lon="4.19461">
        <ele>370.132</ele>
        <time>2019-04-15T14:05:31Z</time>
      </trkpt>
      <trkpt lat="45.79084" lon="4.1945">
        <ele>370.042</ele>
        <time>2019-04-15T14:05:36Z</time>
      </trkpt>
      <trkpt lat="45.79086" lon="4.19437">
        <ele>370.233</ele>
        <time>2019-04-15T14:05:42Z</time>
      </trkpt>
      <trkpt lat="45.79085" lon="4.19428">
        <ele>370.192</ele>
        <time>2019-04-15T14:05:48Z</time>
      </trkpt>
      <trkpt lat="45.79084" lon="4.19421">
        <ele>369.849</ele>
        <time>2019-04-15T14:05:53Z</time>
      </trkpt>
      <trkpt lat="45.79082" lon="4.1941">
        <ele>369.817</ele>
        <time>2019-04-15T14:05:58Z</time>
      </trkpt>
      <trkpt lat="45.7908" lon="4.19397">
        <ele>369.963</ele>
        <time>2019-04-15T14:06:04Z</time>
      </trkpt>
      <trkpt lat="45.79079" lon="4.19387">
        <ele>369.702</ele>
        <time>2019-04-15T14:06:09Z</time>
      </trkpt>
      <trkpt lat="45.79079" lon="4.19376">
        <ele>368.577</ele>
        <time>2019-04-15T14:06:15Z</time>
      </trkpt>
      <trkpt lat="45.7908" lon="4.19363">
        <ele>367.177</ele>
        <time>2019-04-15T14:06:21Z</time>
      </trkpt>
      <trkpt lat="45.7908" lon="4.19352">
        <ele>366.091</ele>
        <time>2019-04-15T14:06:26Z</time>
      </trkpt>
      <trkpt lat="45.79078" lon="4.19344">
        <ele>365.557</ele>
        <time>2019-04-15T14:06:32Z</time>
      </trkpt>
      <trkpt lat="45.79077" lon="4.19335">
        <ele>365.312</ele>
        <time>2019-04-15T14:06:37Z</time>
      </trkpt>
      <trkpt lat="45.79075" lon="4.19324">
        <ele>364.985</ele>
        <time>2019-04-15T14:06:43Z</time>
      </trkpt>
      <trkpt lat="45.79075" lon="4.19315">
        <ele>364.606</ele>
        <time>2019-04-15T14:06:48Z</time>
      </trkpt>
      <trkpt lat="45.79075" lon="4.19301">
        <ele>364.308</ele>
        <time>2019-04-15T14:06:54Z</time>
      </trkpt>
      <trkpt lat="45.79074" lon="4.19291">
        <ele>364.335</ele>
        <time>2019-04-15T14:07:00Z</time>
      </trkpt>
      <trkpt lat="45.7907" lon="4.19282">
        <ele>364.164</ele>
        <time>2019-04-15T14:07:06Z</time>
      </trkpt>
      <trkpt lat="45.79067" lon="4.19273">
        <ele>364.161</ele>
        <time>2019-04-15T14:07:11Z</time>
      </trkpt>
      <trkpt lat="45.79062" lon="4.19261">
        <ele>364.459</ele>
        <time>2019-04-15T14:07:17Z</time>
      </trkpt>
      <trkpt lat="45.7906" lon="4.19256">
        <ele>364.426</ele>
        <time>2019-04-15T14:07:22Z</time>
      </trkpt>
      <trkpt lat="45.79055" lon="4.19247">
        <ele>364.522</ele>
        <time>2019-04-15T14:07:28Z</time>
      </trkpt>
      <trkpt lat="45.79051" lon="4.19236">
        <ele>364.57</ele>
        <time>2019-04-15T14:07:33Z</time>
      </trkpt>
      <trkpt lat="45.79048" lon="4.19226">
        <ele>364.973</ele>
        <time>2019-04-15T14:07:39Z</time>
      </trkpt>
      <trkpt lat="45.79043" lon="4.19216">
        <ele>364.312</ele>
        <time>2019-04-15T14:07:45Z</time>
      </trkpt>
      <trkpt lat="45.7904" lon="4.19207">
        <ele>363.794</ele>
        <time>2019-04-15T14:07:50Z</time>
      </trkpt>
      <trkpt lat="45.79036" lon="4.19196">
        <ele>363.17</ele>
        <time>2019-04-15T14:07:56Z</time>
      </trkpt>
      <trkpt lat="45.79032" lon="4.19188">
        <ele>362.815</ele>
        <time>2019-04-15T14:08:01Z</time>
      </trkpt>
      <trkpt lat="45.7903" lon="4.19181">
        <ele>362.467</ele>
        <time>2019-04-15T14:08:07Z</time>
      </trkpt>
      <trkpt lat="45.79028" lon="4.19172">
        <ele>361.885</ele>
        <time>2019-04-15T14:08:13Z</time>
      </trkpt>
      <trkpt lat="45.79024" lon="4.19164">
        <ele>361.433</ele>
        <time>2019-04-15T14:08:18Z</time>
      </trkpt>
      <trkpt lat="45.79021" lon="4.19157">
        <ele>360.764</ele>
        <time>2019-04-15T14:08:23Z</time>
      </trkpt>
      <trkpt lat="45.79018" lon="4.19149">
        <ele>359.598</ele>
        <time>2019-04-15T14:08:29Z</time>
      </trkpt>
      <trkpt lat="45.79014" lon="4.19142">
        <ele>358.637</ele>
        <time>2019-04-15T14:08:34Z</time>
      </trkpt>
      <trkpt lat="45.7901" lon="4.19133">
        <ele>357.54</ele>
        <time>2019-04-15T14:08:40Z</time>
      </trkpt>
      <trkpt lat="45.79006" lon="4.19124">
        <ele>356.398</ele>
        <time>2019-04-15T14:08:46Z</time>
      </trkpt>
      <trkpt lat="45.79" lon="4.19116">
        <ele>355.631</ele>
        <time>2019-04-15T14:08:52Z</time>
      </trkpt>
      <trkpt lat="45.78995" lon="4.19109">
        <ele>355.218</ele>
        <time>2019-04-15T14:08:58Z</time>
      </trkpt>
      <trkpt lat="45.78991" lon="4.19102">
        <ele>354.614</ele>
        <time>2019-04-15T14:09:03Z</time>
      </trkpt>
      <trkpt lat="45.78987" lon="4.19094">
        <ele>354.204</ele>
        <time>2019-04-15T14:09:08Z</time>
      </trkpt>
      <trkpt lat="45.78982" lon="4.19084">
        <ele>353.78</ele>
        <time>2019-04-15T14:09:14Z</time>
      </trkpt>
      <trkpt lat="45.78979" lon="4.19076">
        <ele>353.606</ele>
        <time>2019-04-15T14:09:19Z</time>
      </trkpt>
      <trkpt lat="45.78975" lon="4.19068">
        <ele>353.966</ele>
        <time>2019-04-15T14:09:25Z</time>
      </trkpt>
      <trkpt lat="45.7897" lon="4.19056">
        <ele>354.417</ele>
        <time>2019-04-15T14:09:31Z</time>
      </trkpt>
      <trkpt lat="45.78967" lon="4.19047">
        <ele>355.375</ele>
        <time>2019-04-15T14:09:36Z</time>
      </trkpt>
      <trkpt lat="45.78963" lon="4.19035">
        <ele>356.593</ele>
        <time>2019-04-15T14:09:41Z</time>
      </trkpt>
      <trkpt lat="45.78959" lon="4.19024">
        <ele>358.258</ele>
        <time>2019-04-15T14:09:47Z</time>
      </trkpt>
      <trkpt lat="45.78958" lon="4.19014">
        <ele>359.734</ele>
        <time>2019-04-15T14:09:52Z</time>
      </trkpt>
      <trkpt lat="45.78957" lon="4.19004">
        <ele>360.672</ele>
        <time>2019-04-15T14:09:58Z</time>
      </trkpt>
      <trkpt lat="45.78958" lon="4.18995">
        <ele>360.559</ele>
        <time>2019-04-15T14:10:03Z</time>
      </trkpt>
      <trkpt lat="45.78959" lon="4.18993">
        <ele>359.601</ele>
        <time>2019-04-15T14:10:09Z</time>
      </trkpt>
      <trkpt lat="45.7896" lon="4.18976">
        <ele>359.293</ele>
        <time>2019-04-15T14:10:15Z</time>
      </trkpt>
      <trkpt lat="45.78958" lon="4.18966">
        <ele>358.968</ele>
        <time>2019-04-15T14:10:21Z</time>
      </trkpt>
      <trkpt lat="45.78956" lon="4.1896">
        <ele>358.667</ele>
        <time>2019-04-15T14:10:27Z</time>
      </trkpt>
      <trkpt lat="45.78953" lon="4.18952">
        <ele>358.307</ele>
        <time>2019-04-15T14:10:32Z</time>
      </trkpt>
      <trkpt lat="45.78951" lon="4.18944">
        <ele>357.823</ele>
        <time>2019-04-15T14:10:38Z</time>
      </trkpt>
      <trkpt lat="45.78947" lon="4.18931">
        <ele>356.927</ele>
        <time>2019-04-15T14:10:44Z</time>
      </trkpt>
      <trkpt lat="45.78946" lon="4.1892">
        <ele>356.066</ele>
        <time>2019-04-15T14:10:50Z</time>
      </trkpt>
      <trkpt lat="45.78946" lon="4.18902">
        <ele>355.066</ele>
        <time>2019-04-15T14:10:56Z</time>
      </trkpt>
      <trkpt lat="45.78945" lon="4.18891">
        <ele>353.99</ele>
        <time>2019-04-15T14:11:01Z</time>
      </trkpt>
      <trkpt lat="45.78945" lon="4.18879">
        <ele>353.124</ele>
        <time>2019-04-15T14:11:07Z</time>
      </trkpt>
      <trkpt lat="45.78945" lon="4.18872">
        <ele>352.972</ele>
        <time>2019-04-15T14:11:12Z</time>
      </trkpt>
      <trkpt lat="45.78943" lon="4.18863">
        <ele>352.596</ele>
        <time>2019-04-15T14:11:18Z</time>
      </trkpt>
      <trkpt lat="45.78939" lon="4.18848">
        <ele>351.838</ele>
        <time>2019-04-15T14:11:24Z</time>
      </trkpt>
      <trkpt lat="45.78941" lon="4.18838">
        <ele>351.831</ele>
        <time>2019-04-15T14:11:30Z</time>
      </trkpt>
      <trkpt lat="45.78944" lon="4.18827">
        <ele>353.173</ele>
        <time>2019-04-15T14:11:36Z</time>
      </trkpt>
      <trkpt lat="45.78944" lon="4.18816">
        <ele>354.846</ele>
        <time>2019-04-15T14:11:42Z</time>
      </trkpt>
      <trkpt lat="45.78946" lon="4.18807">
        <ele>357.088</ele>
        <time>2019-04-15T14:11:48Z</time>
      </trkpt>
      <trkpt lat="45.78949" lon="4.18802">
        <ele>359.196</ele>
        <time>2019-04-15T14:11:54Z</time>
      </trkpt>
      <trkpt lat="45.7895" lon="4.18802">
        <ele>360.367</ele>
        <time>2019-04-15T14:11:59Z</time>
      </trkpt>
      <trkpt lat="45.7895" lon="4.18802">
        <ele>360.726</ele>
        <time>2019-04-15T14:12:05Z</time>
      </trkpt>
      <trkpt lat="45.7895" lon="4.18803">
        <ele>361.384</ele>
        <time>2019-04-15T14:12:10Z</time>
      </trkpt>
      <trkpt lat="45.78951" lon="4.18802">
        <ele>362.301</ele>
        <time>2019-04-15T14:12:15Z</time>
      </trkpt>
      <trkpt lat="45.78951" lon="4.18802">
        <ele>362.464</ele>
        <time>2019-04-15T14:12:21Z</time>
      </trkpt>
      <trkpt lat="45.78951" lon="4.18802">
        <ele>362.65</ele>
        <time>2019-04-15T14:12:26Z</time>
      </trkpt>
      <trkpt lat="45.78951" lon="4.18802">
        <ele>362.884</ele>
        <time>2019-04-15T14:12:32Z</time>
      </trkpt>
      <trkpt lat="45.78951" lon="4.18802">
        <ele>363.24</ele>
        <time>2019-04-15T14:12:37Z</time>
      </trkpt>
      <trkpt lat="45.78951" lon="4.18802">
        <ele>363.295</ele>
        <time>2019-04-15T14:12:42Z</time>
      </trkpt>
      <trkpt lat="45.78951" lon="4.18802">
        <ele>363.43</ele>
        <time>2019-04-15T14:12:48Z</time>
      </trkpt>
      <trkpt lat="45.78951" lon="4.18802">
        <ele>363.67</ele>
        <time>2019-04-15T14:12:53Z</time>
      </trkpt>
      <trkpt lat="45.78951" lon="4.18802">
        <ele>363.811</ele>
        <time>2019-04-15T14:12:59Z</time>
      </trkpt>
      <trkpt lat="45.78951" lon="4.18802">
        <ele>363.887</ele>
        <time>2019-04-15T14:13:04Z</time>
      </trkpt>
      <trkpt lat="45.78951" lon="4.18802">
        <ele>363.802</ele>
        <time>2019-04-15T14:13:10Z</time>
      </trkpt>
      <trkpt lat="45.78951" lon="4.18802">
        <ele>363.586</ele>
        <time>2019-04-15T14:13:16Z</time>
      </trkpt>
      <trkpt lat="45.78951" lon="4.18802">
        <ele>363.365</ele>
        <time>2019-04-15T14:13:21Z</time>
      </trkpt>
      <trkpt lat="45.78951" lon="4.18802">
        <ele>363.488</ele>
        <time>2019-04-15T14:13:27Z</time>
      </trkpt>
      <trkpt lat="45.78951" lon="4.18802">
        <ele>363.754</ele>
        <time>2019-04-15T14:13:32Z</time>
      </trkpt>
      <trkpt lat="45.78951" lon="4.18802">
        <ele>363.932</ele>
        <time>2019-04-15T14:13:37Z</time>
      </trkpt>
      <trkpt lat="45.78951" lon="4.18802">
        <ele>364.121</ele>
        <time>2019-04-15T14:13:42Z</time>
      </trkpt>
      <trkpt lat="45.78951" lon="4.18802">
        <ele>364.327</ele>
        <time>2019-04-15T14:13:48Z</time>
      </trkpt>
      <trkpt lat="45.78951" lon="4.18802">
        <ele>364.459</ele>
        <time>2019-04-15T14:13:53Z</time>
      </trkpt>
      <trkpt lat="45.78951" lon="4.18802">
        <ele>364.604</ele>
        <time>2019-04-15T14:13:59Z</time>
      </trkpt>
      <trkpt lat="45.78951" lon="4.18802">
        <ele>364.706</ele>
        <time>2019-04-15T14:14:05Z</time>
      </trkpt>
      <trkpt lat="45.78951" lon="4.18802">
        <ele>364.781</ele>
        <time>2019-04-15T14:14:11Z</time>
      </trkpt>
      <trkpt lat="45.78951" lon="4.18804">
        <ele>365.126</ele>
        <time>2019-04-15T14:14:17Z</time>
      </trkpt>
      <trkpt lat="45.78951" lon="4.18804">
        <ele>365.263</ele>
        <time>2019-04-15T14:14:22Z</time>
      </trkpt>
      <trkpt lat="45.78951" lon="4.18804">
        <ele>365.349</ele>
        <time>2019-04-15T14:14:28Z</time>
      </trkpt>
      <trkpt lat="45.78951" lon="4.18804">
        <ele>365.513</ele>
        <time>2019-04-15T14:14:34Z</time>
      </trkpt>
      <trkpt lat="45.78951" lon="4.18804">
        <ele>365.618</ele>
        <time>2019-04-15T14:14:40Z</time>
      </trkpt>
      <trkpt lat="45.78951" lon="4.18805">
        <ele>366.682</ele>
        <time>2019-04-15T14:14:47Z</time>
      </trkpt>
      <trkpt lat="45.78952" lon="4.18806">
        <ele>366.791</ele>
        <time>2019-04-15T14:14:53Z</time>
      </trkpt>
      <trkpt lat="45.78955" lon="4.18808">
        <ele>367.139</ele>
        <time>2019-04-15T14:14:59Z</time>
      </trkpt>
      <trkpt lat="45.78962" lon="4.18814">
        <ele>367.572</ele>
        <time>2019-04-15T14:15:04Z</time>
      </trkpt>
      <trkpt lat="45.78965" lon="4.1882">
        <ele>367.561</ele>
        <time>2019-04-15T14:15:10Z</time>
      </trkpt>
      <trkpt lat="45.78968" lon="4.18822">
        <ele>367.98</ele>
        <time>2019-04-15T14:15:16Z</time>
      </trkpt>
      <trkpt lat="45.78973" lon="4.18829">
        <ele>367.944</ele>
        <time>2019-04-15T14:15:22Z</time>
      </trkpt>
      <trkpt lat="45.7898" lon="4.18837">
        <ele>368.191</ele>
        <time>2019-04-15T14:15:27Z</time>
      </trkpt>
      <trkpt lat="45.78983" lon="4.1884">
        <ele>368.408</ele>
        <time>2019-04-15T14:15:33Z</time>
      </trkpt>
      <trkpt lat="45.78986" lon="4.18845">
        <ele>368.303</ele>
        <time>2019-04-15T14:15:39Z</time>
      </trkpt>
      <trkpt lat="45.78989" lon="4.18849">
        <ele>368.204</ele>
        <time>2019-04-15T14:15:45Z</time>
      </trkpt>
      <trkpt lat="45.78994" lon="4.18855">
        <ele>368.033</ele>
        <time>2019-04-15T14:15:51Z</time>
      </trkpt>
      <trkpt lat="45.79" lon="4.18863">
        <ele>367.884</ele>
        <time>2019-04-15T14:15:57Z</time>
      </trkpt>
      <trkpt lat="45.79008" lon="4.18869">
        <ele>367.973</ele>
        <time>2019-04-15T14:16:03Z</time>
      </trkpt>
      <trkpt lat="45.79013" lon="4.18874">
        <ele>367.553</ele>
        <time>2019-04-15T14:16:08Z</time>
      </trkpt>
      <trkpt lat="45.79018" lon="4.18881">
        <ele>367.269</ele>
        <time>2019-04-15T14:16:14Z</time>
      </trkpt>
      <trkpt lat="45.79024" lon="4.18889">
        <ele>367.314</ele>
        <time>2019-04-15T14:16:20Z</time>
      </trkpt>
      <trkpt lat="45.79028" lon="4.18894">
        <ele>367.361</ele>
        <time>2019-04-15T14:16:25Z</time>
      </trkpt>
      <trkpt lat="45.79031" lon="4.18903">
        <ele>367.344</ele>
        <time>2019-04-15T14:16:31Z</time>
      </trkpt>
      <trkpt lat="45.79036" lon="4.18908">
        <ele>367.126</ele>
        <time>2019-04-15T14:16:37Z</time>
      </trkpt>
      <trkpt lat="45.79043" lon="4.18912">
        <ele>367.264</ele>
        <time>2019-04-15T14:16:42Z</time>
      </trkpt>
      <trkpt lat="45.79053" lon="4.18923">
        <ele>367.601</ele>
        <time>2019-04-15T14:16:48Z</time>
      </trkpt>
      <trkpt lat="45.79058" lon="4.18928">
        <ele>367.581</ele>
        <time>2019-04-15T14:16:53Z</time>
      </trkpt>
      <trkpt lat="45.79058" lon="4.18927">
        <ele>367.854</ele>
        <time>2019-04-15T14:16:59Z</time>
      </trkpt>
      <trkpt lat="45.7906" lon="4.18928">
        <ele>367.949</ele>
        <time>2019-04-15T14:17:05Z</time>
      </trkpt>
      <trkpt lat="45.79063" lon="4.18933">
        <ele>367.766</ele>
        <time>2019-04-15T14:17:10Z</time>
      </trkpt>
      <trkpt lat="45.79068" lon="4.1894">
        <ele>367.71</ele>
        <time>2019-04-15T14:17:16Z</time>
      </trkpt>
      <trkpt lat="45.79073" lon="4.18948">
        <ele>367.797</ele>
        <time>2019-04-15T14:17:21Z</time>
      </trkpt>
      <trkpt lat="45.79079" lon="4.18955">
        <ele>367.837</ele>
        <time>2019-04-15T14:17:27Z</time>
      </trkpt>
      <trkpt lat="45.79085" lon="4.18961">
        <ele>367.655</ele>
        <time>2019-04-15T14:17:32Z</time>
      </trkpt>
      <trkpt lat="45.79089" lon="4.18967">
        <ele>367.714</ele>
        <time>2019-04-15T14:17:38Z</time>
      </trkpt>
      <trkpt lat="45.79095" lon="4.18971">
        <ele>367.873</ele>
        <time>2019-04-15T14:17:44Z</time>
      </trkpt>
      <trkpt lat="45.79102" lon="4.18976">
        <ele>367.572</ele>
        <time>2019-04-15T14:17:50Z</time>
      </trkpt>
      <trkpt lat="45.79109" lon="4.18982">
        <ele>367.377</ele>
        <time>2019-04-15T14:17:55Z</time>
      </trkpt>
      <trkpt lat="45.79116" lon="4.18988">
        <ele>367.328</ele>
        <time>2019-04-15T14:18:01Z</time>
      </trkpt>
      <trkpt lat="45.79122" lon="4.18994">
        <ele>367.296</ele>
        <time>2019-04-15T14:18:07Z</time>
      </trkpt>
      <trkpt lat="45.79127" lon="4.19002">
        <ele>367.443</ele>
        <time>2019-04-15T14:18:13Z</time>
      </trkpt>
      <trkpt lat="45.79131" lon="4.19007">
        <ele>367.833</ele>
        <time>2019-04-15T14:18:18Z</time>
      </trkpt>
      <trkpt lat="45.79137" lon="4.19012">
        <ele>367.963</ele>
        <time>2019-04-15T14:18:23Z</time>
      </trkpt>
      <trkpt lat="45.79145" lon="4.1902">
        <ele>368.245</ele>
        <time>2019-04-15T14:18:29Z</time>
      </trkpt>
      <trkpt lat="45.79149" lon="4.19026">
        <ele>368.186</ele>
        <time>2019-04-15T14:18:34Z</time>
      </trkpt>
      <trkpt lat="45.79156" lon="4.19033">
        <ele>368.174</ele>
        <time>2019-04-15T14:18:40Z</time>
      </trkpt>
      <trkpt lat="45.79162" lon="4.19039">
        <ele>368.109</ele>
        <time>2019-04-15T14:18:46Z</time>
      </trkpt>
      <trkpt lat="45.79167" lon="4.19045">
        <ele>368.083</ele>
        <time>2019-04-15T14:18:51Z</time>
      </trkpt>
      <trkpt lat="45.79173" lon="4.19053">
        <ele>368.033</ele>
        <time>2019-04-15T14:18:57Z</time>
      </trkpt>
      <trkpt lat="45.79178" lon="4.19061">
        <ele>368.119</ele>
        <time>2019-04-15T14:19:03Z</time>
      </trkpt>
      <trkpt lat="45.79181" lon="4.19068">
        <ele>368.105</ele>
        <time>2019-04-15T14:19:08Z</time>
      </trkpt>
      <trkpt lat="45.79186" lon="4.19076">
        <ele>368.611</ele>
        <time>2019-04-15T14:19:14Z</time>
      </trkpt>
      <trkpt lat="45.7919" lon="4.19084">
        <ele>368.804</ele>
        <time>2019-04-15T14:19:19Z</time>
      </trkpt>
      <trkpt lat="45.79197" lon="4.19094">
        <ele>368.998</ele>
        <time>2019-04-15T14:19:25Z</time>
      </trkpt>
      <trkpt lat="45.79201" lon="4.19101">
        <ele>369.039</ele>
        <time>2019-04-15T14:19:30Z</time>
      </trkpt>
      <trkpt lat="45.79205" lon="4.19111">
        <ele>369.035</ele>
        <time>2019-04-15T14:19:36Z</time>
      </trkpt>
      <trkpt lat="45.79208" lon="4.19117">
        <ele>369.143</ele>
        <time>2019-04-15T14:19:41Z</time>
      </trkpt>
      <trkpt lat="45.79211" lon="4.19127">
        <ele>369.129</ele>
        <time>2019-04-15T14:19:47Z</time>
      </trkpt>
      <trkpt lat="45.79216" lon="4.19135">
        <ele>369.415</ele>
        <time>2019-04-15T14:19:52Z</time>
      </trkpt>
      <trkpt lat="45.7922" lon="4.19144">
        <ele>369.132</ele>
        <time>2019-04-15T14:19:58Z</time>
      </trkpt>
      <trkpt lat="45.79223" lon="4.19151">
        <ele>369.013</ele>
        <time>2019-04-15T14:20:03Z</time>
      </trkpt>
      <trkpt lat="45.79226" lon="4.19159">
        <ele>368.864</ele>
        <time>2019-04-15T14:20:09Z</time>
      </trkpt>
      <trkpt lat="45.7923" lon="4.19168">
        <ele>368.603</ele>
        <time>2019-04-15T14:20:15Z</time>
      </trkpt>
      <trkpt lat="45.79234" lon="4.19172">
        <ele>368.514</ele>
        <time>2019-04-15T14:20:20Z</time>
      </trkpt>
      <trkpt lat="45.79241" lon="4.19177">
        <ele>368.502</ele>
        <time>2019-04-15T14:20:26Z</time>
      </trkpt>
      <trkpt lat="45.79247" lon="4.19181">
        <ele>368.502</ele>
        <time>2019-04-15T14:20:32Z</time>
      </trkpt>
      <trkpt lat="45.79254" lon="4.19185">
        <ele>368.291</ele>
        <time>2019-04-15T14:20:38Z</time>
      </trkpt>
      <trkpt lat="45.79262" lon="4.19188">
        <ele>368.473</ele>
        <time>2019-04-15T14:20:44Z</time>
      </trkpt>
      <trkpt lat="45.79271" lon="4.19191">
        <ele>368.314</ele>
        <time>2019-04-15T14:20:50Z</time>
      </trkpt>
      <trkpt lat="45.79277" lon="4.19193">
        <ele>368.183</ele>
        <time>2019-04-15T14:20:55Z</time>
      </trkpt>
      <trkpt lat="45.79283" lon="4.19195">
        <ele>367.853</ele>
        <time>2019-04-15T14:21:00Z</time>
      </trkpt>
      <trkpt lat="45.79289" lon="4.19197">
        <ele>367.945</ele>
        <time>2019-04-15T14:21:06Z</time>
      </trkpt>
      <trkpt lat="45.79296" lon="4.192">
        <ele>368.041</ele>
        <time>2019-04-15T14:21:11Z</time>
      </trkpt>
      <trkpt lat="45.79304" lon="4.19203">
        <ele>368.075</ele>
        <time>2019-04-15T14:21:17Z</time>
      </trkpt>
      <trkpt lat="45.79312" lon="4.19205">
        <ele>368.113</ele>
        <time>2019-04-15T14:21:23Z</time>
      </trkpt>
      <trkpt lat="45.79318" lon="4.19208">
        <ele>368.119</ele>
        <time>2019-04-15T14:21:29Z</time>
      </trkpt>
      <trkpt lat="45.79324" lon="4.19209">
        <ele>368.162</ele>
        <time>2019-04-15T14:21:34Z</time>
      </trkpt>
      <trkpt lat="45.79332" lon="4.19213">
        <ele>368.057</ele>
        <time>2019-04-15T14:21:40Z</time>
      </trkpt>
      <trkpt lat="45.79339" lon="4.19217">
        <ele>367.922</ele>
        <time>2019-04-15T14:21:45Z</time>
      </trkpt>
      <trkpt lat="45.79346" lon="4.1922">
        <ele>368.062</ele>
        <time>2019-04-15T14:21:51Z</time>
      </trkpt>
      <trkpt lat="45.79352" lon="4.19227">
        <ele>368.21</ele>
        <time>2019-04-15T14:21:56Z</time>
      </trkpt>
      <trkpt lat="45.79356" lon="4.19234">
        <ele>368.19</ele>
        <time>2019-04-15T14:22:02Z</time>
      </trkpt>
      <trkpt lat="45.79362" lon="4.19244">
        <ele>368.089</ele>
        <time>2019-04-15T14:22:08Z</time>
      </trkpt>
      <trkpt lat="45.79367" lon="4.19252">
        <ele>368.264</ele>
        <time>2019-04-15T14:22:14Z</time>
      </trkpt>
      <trkpt lat="45.79371" lon="4.19257">
        <ele>368.524</ele>
        <time>2019-04-15T14:22:19Z</time>
      </trkpt>
      <trkpt lat="45.79378" lon="4.19264">
        <ele>368.598</ele>
        <time>2019-04-15T14:22:25Z</time>
      </trkpt>
      <trkpt lat="45.79384" lon="4.19268">
        <ele>368.379</ele>
        <time>2019-04-15T14:22:31Z</time>
      </trkpt>
      <trkpt lat="45.7939" lon="4.1927">
        <ele>368.306</ele>
        <time>2019-04-15T14:22:36Z</time>
      </trkpt>
      <trkpt lat="45.79398" lon="4.19273">
        <ele>368.019</ele>
        <time>2019-04-15T14:22:42Z</time>
      </trkpt>
      <trkpt lat="45.79403" lon="4.19276">
        <ele>368.056</ele>
        <time>2019-04-15T14:22:47Z</time>
      </trkpt>
      <trkpt lat="45.7941" lon="4.19279">
        <ele>367.841</ele>
        <time>2019-04-15T14:22:53Z</time>
      </trkpt>
      <trkpt lat="45.79416" lon="4.19283">
        <ele>367.669</ele>
        <time>2019-04-15T14:22:59Z</time>
      </trkpt>
      <trkpt lat="45.79423" lon="4.19289">
        <ele>367.433</ele>
        <time>2019-04-15T14:23:05Z</time>
      </trkpt>
      <trkpt lat="45.79428" lon="4.19293">
        <ele>367.448</ele>
        <time>2019-04-15T14:23:10Z</time>
      </trkpt>
      <trkpt lat="45.79434" lon="4.19301">
        <ele>367.648</ele>
        <time>2019-04-15T14:23:16Z</time>
      </trkpt>
      <trkpt lat="45.79441" lon="4.1931">
        <ele>367.873</ele>
        <time>2019-04-15T14:23:22Z</time>
      </trkpt>
      <trkpt lat="45.79449" lon="4.19317">
        <ele>368.049</ele>
        <time>2019-04-15T14:23:27Z</time>
      </trkpt>
      <trkpt lat="45.79456" lon="4.19325">
        <ele>368.207</ele>
        <time>2019-04-15T14:23:33Z</time>
      </trkpt>
      <trkpt lat="45.7946" lon="4.19331">
        <ele>368.091</ele>
        <time>2019-04-15T14:23:39Z</time>
      </trkpt>
      <trkpt lat="45.79464" lon="4.19339">
        <ele>368.104</ele>
        <time>2019-04-15T14:23:44Z</time>
      </trkpt>
      <trkpt lat="45.79471" lon="4.19346">
        <ele>368.252</ele>
        <time>2019-04-15T14:23:50Z</time>
      </trkpt>
      <trkpt lat="45.79475" lon="4.1935">
        <ele>368.575</ele>
        <time>2019-04-15T14:23:55Z</time>
      </trkpt>
      <trkpt lat="45.79481" lon="4.19359">
        <ele>368.479</ele>
        <time>2019-04-15T14:24:01Z</time>
      </trkpt>
      <trkpt lat="45.79485" lon="4.19365">
        <ele>368.54</ele>
        <time>2019-04-15T14:24:06Z</time>
      </trkpt>
      <trkpt lat="45.79491" lon="4.19374">
        <ele>368.538</ele>
        <time>2019-04-15T14:24:12Z</time>
      </trkpt>
      <trkpt lat="45.79496" lon="4.19381">
        <ele>368.433</ele>
        <time>2019-04-15T14:24:18Z</time>
      </trkpt>
      <trkpt lat="45.79502" lon="4.19388">
        <ele>368.382</ele>
        <time>2019-04-15T14:24:24Z</time>
      </trkpt>
      <trkpt lat="45.79507" lon="4.19394">
        <ele>368.604</ele>
        <time>2019-04-15T14:24:29Z</time>
      </trkpt>
      <trkpt lat="45.79512" lon="4.19401">
        <ele>368.811</ele>
        <time>2019-04-15T14:24:35Z</time>
      </trkpt>
      <trkpt lat="45.79518" lon="4.1941">
        <ele>368.983</ele>
        <time>2019-04-15T14:24:41Z</time>
      </trkpt>
      <trkpt lat="45.79525" lon="4.19418">
        <ele>369.202</ele>
        <time>2019-04-15T14:24:47Z</time>
      </trkpt>
      <trkpt lat="45.79528" lon="4.19424">
        <ele>369.308</ele>
        <time>2019-04-15T14:24:52Z</time>
      </trkpt>
      <trkpt lat="45.79532" lon="4.19431">
        <ele>369.198</ele>
        <time>2019-04-15T14:24:58Z</time>
      </trkpt>
      <trkpt lat="45.79536" lon="4.19439">
        <ele>369.235</ele>
        <time>2019-04-15T14:25:03Z</time>
      </trkpt>
      <trkpt lat="45.79542" lon="4.19448">
        <ele>369.28</ele>
        <time>2019-04-15T14:25:09Z</time>
      </trkpt>
      <trkpt lat="45.79549" lon="4.19456">
        <ele>369.101</ele>
        <time>2019-04-15T14:25:15Z</time>
      </trkpt>
      <trkpt lat="45.79555" lon="4.19463">
        <ele>369.179</ele>
        <time>2019-04-15T14:25:20Z</time>
      </trkpt>
      <trkpt lat="45.7956" lon="4.1947">
        <ele>369.548</ele>
        <time>2019-04-15T14:25:26Z</time>
      </trkpt>
      <trkpt lat="45.79566" lon="4.19477">
        <ele>369.577</ele>
        <time>2019-04-15T14:25:32Z</time>
      </trkpt>
      <trkpt lat="45.79571" lon="4.19483">
        <ele>369.53</ele>
        <time>2019-04-15T14:25:37Z</time>
      </trkpt>
      <trkpt lat="45.79577" lon="4.1949">
        <ele>369.669</ele>
        <time>2019-04-15T14:25:43Z</time>
      </trkpt>
      <trkpt lat="45.79584" lon="4.19498">
        <ele>369.934</ele>
        <time>2019-04-15T14:25:49Z</time>
      </trkpt>
      <trkpt lat="45.79588" lon="4.19503">
        <ele>369.977</ele>
        <time>2019-04-15T14:25:54Z</time>
      </trkpt>
      <trkpt lat="45.79593" lon="4.19509">
        <ele>369.932</ele>
        <time>2019-04-15T14:26:00Z</time>
      </trkpt>
      <trkpt lat="45.79599" lon="4.19515">
        <ele>369.799</ele>
        <time>2019-04-15T14:26:05Z</time>
      </trkpt>
      <trkpt lat="45.79606" lon="4.19523">
        <ele>369.582</ele>
        <time>2019-04-15T14:26:11Z</time>
      </trkpt>
      <trkpt lat="45.79612" lon="4.1953">
        <ele>369.471</ele>
        <time>2019-04-15T14:26:17Z</time>
      </trkpt>
      <trkpt lat="45.79619" lon="4.19537">
        <ele>369.552</ele>
        <time>2019-04-15T14:26:23Z</time>
      </trkpt>
      <trkpt lat="45.79625" lon="4.19542">
        <ele>369.679</ele>
        <time>2019-04-15T14:26:29Z</time>
      </trkpt>
      <trkpt lat="45.79631" lon="4.19546">
        <ele>369.617</ele>
        <time>2019-04-15T14:26:34Z</time>
      </trkpt>
      <trkpt lat="45.79638" lon="4.19553">
        <ele>369.432</ele>
        <time>2019-04-15T14:26:40Z</time>
      </trkpt>
      <trkpt lat="45.79642" lon="4.1956">
        <ele>369.258</ele>
        <time>2019-04-15T14:26:45Z</time>
      </trkpt>
      <trkpt lat="45.79645" lon="4.19568">
        <ele>369.214</ele>
        <time>2019-04-15T14:26:51Z</time>
      </trkpt>
      <trkpt lat="45.79651" lon="4.19576">
        <ele>369.349</ele>
        <time>2019-04-15T14:26:57Z</time>
      </trkpt>
      <trkpt lat="45.79655" lon="4.19585">
        <ele>369.553</ele>
        <time>2019-04-15T14:27:03Z</time>
      </trkpt>
      <trkpt lat="45.7966" lon="4.19592">
        <ele>369.628</ele>
        <time>2019-04-15T14:27:08Z</time>
      </trkpt>
      <trkpt lat="45.79666" lon="4.19601">
        <ele>369.558</ele>
        <time>2019-04-15T14:27:14Z</time>
      </trkpt>
      <trkpt lat="45.7967" lon="4.19607">
        <ele>369.307</ele>
        <time>2019-04-15T14:27:19Z</time>
      </trkpt>
      <trkpt lat="45.79674" lon="4.19615">
        <ele>369.217</ele>
        <time>2019-04-15T14:27:24Z</time>
      </trkpt>
      <trkpt lat="45.79678" lon="4.19623">
        <ele>368.986</ele>
        <time>2019-04-15T14:27:29Z</time>
      </trkpt>
      <trkpt lat="45.79683" lon="4.19633">
        <ele>368.983</ele>
        <time>2019-04-15T14:27:35Z</time>
      </trkpt>
      <trkpt lat="45.79686" lon="4.19639">
        <ele>369.148</ele>
        <time>2019-04-15T14:27:40Z</time>
      </trkpt>
      <trkpt lat="45.79695" lon="4.1965">
        <ele>369.176</ele>
        <time>2019-04-15T14:27:46Z</time>
      </trkpt>
      <trkpt lat="45.79699" lon="4.19657">
        <ele>369.157</ele>
        <time>2019-04-15T14:27:51Z</time>
      </trkpt>
      <trkpt lat="45.79703" lon="4.19664">
        <ele>369.13</ele>
        <time>2019-04-15T14:27:56Z</time>
      </trkpt>
      <trkpt lat="45.79709" lon="4.19672">
        <ele>369.101</ele>
        <time>2019-04-15T14:28:02Z</time>
      </trkpt>
      <trkpt lat="45.79713" lon="4.1968">
        <ele>369.103</ele>
        <time>2019-04-15T14:28:08Z</time>
      </trkpt>
      <trkpt lat="45.79718" lon="4.19686">
        <ele>369.262</ele>
        <time>2019-04-15T14:28:13Z</time>
      </trkpt>
      <trkpt lat="45.79721" lon="4.19694">
        <ele>369.225</ele>
        <time>2019-04-15T14:28:18Z</time>
      </trkpt>
      <trkpt lat="45.79726" lon="4.19704">
        <ele>369.168</ele>
        <time>2019-04-15T14:28:24Z</time>
      </trkpt>
      <trkpt lat="45.79731" lon="4.19712">
        <ele>369.182</ele>
        <time>2019-04-15T14:28:30Z</time>
      </trkpt>
      <trkpt lat="45.79735" lon="4.19721">
        <ele>369.245</ele>
        <time>2019-04-15T14:28:36Z</time>
      </trkpt>
      <trkpt lat="45.79739" lon="4.19728">
        <ele>369.395</ele>
        <time>2019-04-15T14:28:41Z</time>
      </trkpt>
      <trkpt lat="45.79745" lon="4.19736">
        <ele>369.773</ele>
        <time>2019-04-15T14:28:47Z</time>
      </trkpt>
      <trkpt lat="45.79749" lon="4.1974">
        <ele>370.23</ele>
        <time>2019-04-15T14:28:53Z</time>
      </trkpt>
      <trkpt lat="45.79751" lon="4.19743">
        <ele>370.519</ele>
        <time>2019-04-15T14:28:59Z</time>
      </trkpt>
      <trkpt lat="45.79753" lon="4.19746">
        <ele>370.784</ele>
        <time>2019-04-15T14:29:04Z</time>
      </trkpt>
      <trkpt lat="45.79757" lon="4.1975">
        <ele>370.946</ele>
        <time>2019-04-15T14:29:10Z</time>
      </trkpt>
      <trkpt lat="45.79756" lon="4.19752">
        <ele>370.965</ele>
        <time>2019-04-15T14:29:16Z</time>
      </trkpt>
      <trkpt lat="45.79756" lon="4.19751">
        <ele>371.149</ele>
        <time>2019-04-15T14:29:21Z</time>
      </trkpt>
      <trkpt lat="45.79755" lon="4.1975">
        <ele>371.278</ele>
        <time>2019-04-15T14:29:27Z</time>
      </trkpt>
      <trkpt lat="45.79756" lon="4.1975">
        <ele>371.084</ele>
        <time>2019-04-15T14:29:32Z</time>
      </trkpt>
      <trkpt lat="45.79756" lon="4.19751">
        <ele>371.038</ele>
        <time>2019-04-15T14:29:37Z</time>
      </trkpt>
      <trkpt lat="45.79756" lon="4.19753">
        <ele>371.157</ele>
        <time>2019-04-15T14:29:43Z</time>
      </trkpt>
      <trkpt lat="45.79756" lon="4.19753">
        <ele>371.47</ele>
        <time>2019-04-15T14:29:49Z</time>
      </trkpt>
      <trkpt lat="45.79755" lon="4.19753">
        <ele>371.796</ele>
        <time>2019-04-15T14:29:54Z</time>
      </trkpt>
      <trkpt lat="45.79756" lon="4.19755">
        <ele>372.082</ele>
        <time>2019-04-15T14:29:59Z</time>
      </trkpt>
      <trkpt lat="45.79758" lon="4.19758">
        <ele>372.529</ele>
        <time>2019-04-15T14:30:05Z</time>
      </trkpt>
      <trkpt lat="45.79763" lon="4.19765">
        <ele>373.031</ele>
        <time>2019-04-15T14:30:11Z</time>
      </trkpt>
      <trkpt lat="45.79769" lon="4.19773">
        <ele>373.5</ele>
        <time>2019-04-15T14:30:16Z</time>
      </trkpt>
      <trkpt lat="45.79772" lon="4.19779">
        <ele>374.06</ele>
        <time>2019-04-15T14:30:22Z</time>
      </trkpt>
      <trkpt lat="45.79777" lon="4.19786">
        <ele>374.592</ele>
        <time>2019-04-15T14:30:28Z</time>
      </trkpt>
      <trkpt lat="45.79782" lon="4.19795">
        <ele>374.688</ele>
        <time>2019-04-15T14:30:34Z</time>
      </trkpt>
      <trkpt lat="45.79788" lon="4.19806">
        <ele>374.861</ele>
        <time>2019-04-15T14:30:40Z</time>
      </trkpt>
      <trkpt lat="45.79792" lon="4.19813">
        <ele>375.062</ele>
        <time>2019-04-15T14:30:45Z</time>
      </trkpt>
      <trkpt lat="45.79797" lon="4.19822">
        <ele>375.273</ele>
        <time>2019-04-15T14:30:51Z</time>
      </trkpt>
      <trkpt lat="45.79799" lon="4.1983">
        <ele>375.482</ele>
        <time>2019-04-15T14:30:56Z</time>
      </trkpt>
      <trkpt lat="45.79804" lon="4.19838">
        <ele>375.938</ele>
        <time>2019-04-15T14:31:02Z</time>
      </trkpt>
      <trkpt lat="45.79808" lon="4.19844">
        <ele>376.246</ele>
        <time>2019-04-15T14:31:08Z</time>
      </trkpt>
      <trkpt lat="45.79813" lon="4.19853">
        <ele>376.552</ele>
        <time>2019-04-15T14:31:14Z</time>
      </trkpt>
      <trkpt lat="45.79817" lon="4.19859">
        <ele>376.587</ele>
        <time>2019-04-15T14:31:20Z</time>
      </trkpt>
      <trkpt lat="45.79819" lon="4.1986">
        <ele>376.785</ele>
        <time>2019-04-15T14:31:26Z</time>
      </trkpt>
      <trkpt lat="45.79821" lon="4.19864">
        <ele>376.639</ele>
        <time>2019-04-15T14:31:31Z</time>
      </trkpt>
      <trkpt lat="45.79825" lon="4.19869">
        <ele>376.397</ele>
        <time>2019-04-15T14:31:36Z</time>
      </trkpt>
      <trkpt lat="45.79829" lon="4.19873">
        <ele>376.324</ele>
        <time>2019-04-15T14:31:41Z</time>
      </trkpt>
      <trkpt lat="45.79835" lon="4.1988">
        <ele>376.168</ele>
        <time>2019-04-15T14:31:47Z</time>
      </trkpt>
      <trkpt lat="45.7984" lon="4.19888">
        <ele>376.07</ele>
        <time>2019-04-15T14:31:53Z</time>
      </trkpt>
      <trkpt lat="45.79844" lon="4.19897">
        <ele>376.28</ele>
        <time>2019-04-15T14:31:59Z</time>
      </trkpt>
      <trkpt lat="45.79849" lon="4.19904">
        <ele>376.271</ele>
        <time>2019-04-15T14:32:04Z</time>
      </trkpt>
      <trkpt lat="45.79853" lon="4.19912">
        <ele>376.098</ele>
        <time>2019-04-15T14:32:10Z</time>
      </trkpt>
      <trkpt lat="45.79858" lon="4.19918">
        <ele>376.04</ele>
        <time>2019-04-15T14:32:16Z</time>
      </trkpt>
      <trkpt lat="45.79863" lon="4.19924">
        <ele>376.083</ele>
        <time>2019-04-15T14:32:22Z</time>
      </trkpt>
      <trkpt lat="45.79865" lon="4.19925">
        <ele>376.014</ele>
        <time>2019-04-15T14:32:27Z</time>
      </trkpt>
      <trkpt lat="45.7987" lon="4.19932">
        <ele>376.248</ele>
        <time>2019-04-15T14:32:33Z</time>
      </trkpt>
      <trkpt lat="45.79874" lon="4.19938">
        <ele>376.208</ele>
        <time>2019-04-15T14:32:39Z</time>
      </trkpt>
      <trkpt lat="45.79873" lon="4.19939">
        <ele>376.437</ele>
        <time>2019-04-15T14:32:45Z</time>
      </trkpt>
      <trkpt lat="45.79874" lon="4.19939">
        <ele>376.584</ele>
        <time>2019-04-15T14:32:50Z</time>
      </trkpt>
      <trkpt lat="45.79875" lon="4.19938">
        <ele>376.873</ele>
        <time>2019-04-15T14:32:55Z</time>
      </trkpt>
      <trkpt lat="45.79876" lon="4.19937">
        <ele>376.613</ele>
        <time>2019-04-15T14:33:01Z</time>
      </trkpt>
      <trkpt lat="45.79877" lon="4.19945">
        <ele>376.051</ele>
        <time>2019-04-15T14:33:07Z</time>
      </trkpt>
      <trkpt lat="45.79879" lon="4.19954">
        <ele>376.071</ele>
        <time>2019-04-15T14:33:13Z</time>
      </trkpt>
      <trkpt lat="45.79881" lon="4.19961">
        <ele>376.058</ele>
        <time>2019-04-15T14:33:19Z</time>
      </trkpt>
      <trkpt lat="45.79884" lon="4.19961">
        <ele>375.923</ele>
        <time>2019-04-15T14:33:24Z</time>
      </trkpt>
      <trkpt lat="45.7989" lon="4.19964">
        <ele>376.22</ele>
        <time>2019-04-15T14:33:30Z</time>
      </trkpt>
      <trkpt lat="45.79895" lon="4.19969">
        <ele>376.459</ele>
        <time>2019-04-15T14:33:35Z</time>
      </trkpt>
      <trkpt lat="45.79897" lon="4.19972">
        <ele>376.574</ele>
        <time>2019-04-15T14:33:41Z</time>
      </trkpt>
      <trkpt lat="45.79899" lon="4.19975">
        <ele>376.667</ele>
        <time>2019-04-15T14:33:46Z</time>
      </trkpt>
      <trkpt lat="45.79903" lon="4.19978">
        <ele>376.462</ele>
        <time>2019-04-15T14:33:51Z</time>
      </trkpt>
      <trkpt lat="45.79909" lon="4.19986">
        <ele>376.302</ele>
        <time>2019-04-15T14:33:57Z</time>
      </trkpt>
      <trkpt lat="45.79915" lon="4.19994">
        <ele>376.215</ele>
        <time>2019-04-15T14:34:03Z</time>
      </trkpt>
      <trkpt lat="45.79921" lon="4.2">
        <ele>376.57</ele>
        <time>2019-04-15T14:34:09Z</time>
      </trkpt>
      <trkpt lat="45.79925" lon="4.20006">
        <ele>376.842</ele>
        <time>2019-04-15T14:34:14Z</time>
      </trkpt>
      <trkpt lat="45.79929" lon="4.20012">
        <ele>376.833</ele>
        <time>2019-04-15T14:34:20Z</time>
      </trkpt>
      <trkpt lat="45.79934" lon="4.20018">
        <ele>376.525</ele>
        <time>2019-04-15T14:34:25Z</time>
      </trkpt>
      <trkpt lat="45.7994" lon="4.20024">
        <ele>376.347</ele>
        <time>2019-04-15T14:34:30Z</time>
      </trkpt>
      <trkpt lat="45.79945" lon="4.20032">
        <ele>375.821</ele>
        <time>2019-04-15T14:34:36Z</time>
      </trkpt>
      <trkpt lat="45.79949" lon="4.20037">
        <ele>375.017</ele>
        <time>2019-04-15T14:34:42Z</time>
      </trkpt>
      <trkpt lat="45.79953" lon="4.20043">
        <ele>374.341</ele>
        <time>2019-04-15T14:34:48Z</time>
      </trkpt>
      <trkpt lat="45.79959" lon="4.20052">
        <ele>373.945</ele>
        <time>2019-04-15T14:34:54Z</time>
      </trkpt>
      <trkpt lat="45.79963" lon="4.2006">
        <ele>374.096</ele>
        <time>2019-04-15T14:34:59Z</time>
      </trkpt>
      <trkpt lat="45.79968" lon="4.20065">
        <ele>374.343</ele>
        <time>2019-04-15T14:35:04Z</time>
      </trkpt>
      <trkpt lat="45.79973" lon="4.20073">
        <ele>374.2</ele>
        <time>2019-04-15T14:35:10Z</time>
      </trkpt>
      <trkpt lat="45.79976" lon="4.20078">
        <ele>374.029</ele>
        <time>2019-04-15T14:35:16Z</time>
      </trkpt>
      <trkpt lat="45.79981" lon="4.20085">
        <ele>374.234</ele>
        <time>2019-04-15T14:35:22Z</time>
      </trkpt>
      <trkpt lat="45.79986" lon="4.20094">
        <ele>374.24</ele>
        <time>2019-04-15T14:35:27Z</time>
      </trkpt>
      <trkpt lat="45.79992" lon="4.20104">
        <ele>373.983</ele>
        <time>2019-04-15T14:35:33Z</time>
      </trkpt>
      <trkpt lat="45.79996" lon="4.2011">
        <ele>374.011</ele>
        <time>2019-04-15T14:35:38Z</time>
      </trkpt>
      <trkpt lat="45.8" lon="4.20116">
        <ele>374.112</ele>
        <time>2019-04-15T14:35:43Z</time>
      </trkpt>
      <trkpt lat="45.80007" lon="4.20123">
        <ele>374.081</ele>
        <time>2019-04-15T14:35:49Z</time>
      </trkpt>
      <trkpt lat="45.80011" lon="4.20126">
        <ele>374.104</ele>
        <time>2019-04-15T14:35:55Z</time>
      </trkpt>
      <trkpt lat="45.80017" lon="4.20135">
        <ele>374.431</ele>
        <time>2019-04-15T14:36:01Z</time>
      </trkpt>
      <trkpt lat="45.80023" lon="4.20143">
        <ele>374.71</ele>
        <time>2019-04-15T14:36:07Z</time>
      </trkpt>
      <trkpt lat="45.80028" lon="4.20148">
        <ele>374.918</ele>
        <time>2019-04-15T14:36:12Z</time>
      </trkpt>
      <trkpt lat="45.80033" lon="4.20156">
        <ele>374.978</ele>
        <time>2019-04-15T14:36:18Z</time>
      </trkpt>
      <trkpt lat="45.80038" lon="4.20162">
        <ele>374.764</ele>
        <time>2019-04-15T14:36:23Z</time>
      </trkpt>
      <trkpt lat="45.80044" lon="4.2017">
        <ele>374.54</ele>
        <time>2019-04-15T14:36:29Z</time>
      </trkpt>
      <trkpt lat="45.80048" lon="4.20177">
        <ele>374.134</ele>
        <time>2019-04-15T14:36:34Z</time>
      </trkpt>
      <trkpt lat="45.80051" lon="4.20181">
        <ele>373.59</ele>
        <time>2019-04-15T14:36:39Z</time>
      </trkpt>
      <trkpt lat="45.80058" lon="4.20189">
        <ele>373.076</ele>
        <time>2019-04-15T14:36:45Z</time>
      </trkpt>
      <trkpt lat="45.80065" lon="4.20197">
        <ele>372.583</ele>
        <time>2019-04-15T14:36:51Z</time>
      </trkpt>
      <trkpt lat="45.8007" lon="4.20202">
        <ele>371.974</ele>
        <time>2019-04-15T14:36:57Z</time>
      </trkpt>
      <trkpt lat="45.80073" lon="4.2021">
        <ele>371.325</ele>
        <time>2019-04-15T14:37:02Z</time>
      </trkpt>
      <trkpt lat="45.80077" lon="4.20217">
        <ele>371.048</ele>
        <time>2019-04-15T14:37:08Z</time>
      </trkpt>
      <trkpt lat="45.80081" lon="4.20226">
        <ele>370.891</ele>
        <time>2019-04-15T14:37:14Z</time>
      </trkpt>
      <trkpt lat="45.80084" lon="4.20231">
        <ele>370.994</ele>
        <time>2019-04-15T14:37:19Z</time>
      </trkpt>
      <trkpt lat="45.80089" lon="4.2024">
        <ele>371.365</ele>
        <time>2019-04-15T14:37:25Z</time>
      </trkpt>
      <trkpt lat="45.80093" lon="4.20248">
        <ele>371.476</ele>
        <time>2019-04-15T14:37:30Z</time>
      </trkpt>
      <trkpt lat="45.80096" lon="4.20252">
        <ele>371.796</ele>
        <time>2019-04-15T14:37:35Z</time>
      </trkpt>
      <trkpt lat="45.80099" lon="4.20259">
        <ele>372.983</ele>
        <time>2019-04-15T14:37:41Z</time>
      </trkpt>
      <trkpt lat="45.80105" lon="4.2027">
        <ele>373.809</ele>
        <time>2019-04-15T14:37:47Z</time>
      </trkpt>
      <trkpt lat="45.80108" lon="4.20277">
        <ele>374.67</ele>
        <time>2019-04-15T14:37:53Z</time>
      </trkpt>
      <trkpt lat="45.80113" lon="4.20284">
        <ele>375.376</ele>
        <time>2019-04-15T14:37:58Z</time>
      </trkpt>
      <trkpt lat="45.80119" lon="4.2029">
        <ele>376.054</ele>
        <time>2019-04-15T14:38:04Z</time>
      </trkpt>
      <trkpt lat="45.80123" lon="4.20296">
        <ele>376.773</ele>
        <time>2019-04-15T14:38:09Z</time>
      </trkpt>
      <trkpt lat="45.80128" lon="4.203">
        <ele>377.518</ele>
        <time>2019-04-15T14:38:15Z</time>
      </trkpt>
      <trkpt lat="45.80134" lon="4.20306">
        <ele>378.167</ele>
        <time>2019-04-15T14:38:21Z</time>
      </trkpt>
      <trkpt lat="45.80142" lon="4.20309">
        <ele>378.683</ele>
        <time>2019-04-15T14:38:27Z</time>
      </trkpt>
      <trkpt lat="45.8015" lon="4.2031">
        <ele>379.071</ele>
        <time>2019-04-15T14:38:33Z</time>
      </trkpt>
      <trkpt lat="45.80156" lon="4.20309">
        <ele>379.397</ele>
        <time>2019-04-15T14:38:38Z</time>
      </trkpt>
      <trkpt lat="45.80163" lon="4.20309">
        <ele>380.019</ele>
        <time>2019-04-15T14:38:44Z</time>
      </trkpt>
      <trkpt lat="45.8017" lon="4.2031">
        <ele>380.715</ele>
        <time>2019-04-15T14:38:50Z</time>
      </trkpt>
      <trkpt lat="45.80173" lon="4.2031">
        <ele>381.541</ele>
        <time>2019-04-15T14:38:56Z</time>
      </trkpt>
      <trkpt lat="45.80183" lon="4.20311">
        <ele>382.341</ele>
        <time>2019-04-15T14:39:02Z</time>
      </trkpt>
      <trkpt lat="45.8019" lon="4.2031">
        <ele>382.983</ele>
        <time>2019-04-15T14:39:08Z</time>
      </trkpt>
      <trkpt lat="45.80199" lon="4.20311">
        <ele>383.335</ele>
        <time>2019-04-15T14:39:14Z</time>
      </trkpt>
      <trkpt lat="45.80205" lon="4.20312">
        <ele>383.766</ele>
        <time>2019-04-15T14:39:19Z</time>
      </trkpt>
      <trkpt lat="45.8021" lon="4.20313">
        <ele>384.016</ele>
        <time>2019-04-15T14:39:25Z</time>
      </trkpt>
      <trkpt lat="45.80216" lon="4.20322">
        <ele>384.005</ele>
        <time>2019-04-15T14:39:31Z</time>
      </trkpt>
      <trkpt lat="45.80218" lon="4.20329">
        <ele>383.792</ele>
        <time>2019-04-15T14:39:37Z</time>
      </trkpt>
      <trkpt lat="45.80218" lon="4.20336">
        <ele>383.714</ele>
        <time>2019-04-15T14:39:42Z</time>
      </trkpt>
      <trkpt lat="45.80221" lon="4.20345">
        <ele>383.898</ele>
        <time>2019-04-15T14:39:48Z</time>
      </trkpt>
      <trkpt lat="45.80224" lon="4.20356">
        <ele>384.102</ele>
        <time>2019-04-15T14:39:54Z</time>
      </trkpt>
      <trkpt lat="45.80224" lon="4.20362">
        <ele>384.001</ele>
        <time>2019-04-15T14:39:59Z</time>
      </trkpt>
      <trkpt lat="45.80224" lon="4.20366">
        <ele>384.149</ele>
        <time>2019-04-15T14:40:05Z</time>
      </trkpt>
      <trkpt lat="45.80221" lon="4.20369">
        <ele>384.648</ele>
        <time>2019-04-15T14:40:11Z</time>
      </trkpt>
      <trkpt lat="45.80221" lon="4.20373">
        <ele>384.756</ele>
        <time>2019-04-15T14:40:16Z</time>
      </trkpt>
      <trkpt lat="45.80223" lon="4.20381">
        <ele>385.008</ele>
        <time>2019-04-15T14:40:22Z</time>
      </trkpt>
      <trkpt lat="45.80223" lon="4.2039">
        <ele>385.05</ele>
        <time>2019-04-15T14:40:28Z</time>
      </trkpt>
      <trkpt lat="45.80223" lon="4.20399">
        <ele>385.156</ele>
        <time>2019-04-15T14:40:33Z</time>
      </trkpt>
      <trkpt lat="45.80222" lon="4.20407">
        <ele>385.488</ele>
        <time>2019-04-15T14:40:39Z</time>
      </trkpt>
      <trkpt lat="45.80222" lon="4.20419">
        <ele>385.245</ele>
        <time>2019-04-15T14:40:45Z</time>
      </trkpt>
      <trkpt lat="45.80222" lon="4.20429">
        <ele>385.041</ele>
        <time>2019-04-15T14:40:51Z</time>
      </trkpt>
      <trkpt lat="45.8022" lon="4.20436">
        <ele>384.973</ele>
        <time>2019-04-15T14:40:56Z</time>
      </trkpt>
      <trkpt lat="45.80219" lon="4.20447">
        <ele>385.176</ele>
        <time>2019-04-15T14:41:02Z</time>
      </trkpt>
      <trkpt lat="45.8022" lon="4.20457">
        <ele>385.503</ele>
        <time>2019-04-15T14:41:08Z</time>
      </trkpt>
      <trkpt lat="45.80221" lon="4.20466">
        <ele>385.937</ele>
        <time>2019-04-15T14:41:14Z</time>
      </trkpt>
      <trkpt lat="45.80221" lon="4.20477">
        <ele>386.089</ele>
        <time>2019-04-15T14:41:20Z</time>
      </trkpt>
      <trkpt lat="45.80223" lon="4.20483">
        <ele>386.359</ele>
        <time>2019-04-15T14:41:25Z</time>
      </trkpt>
      <trkpt lat="45.80226" lon="4.20495">
        <ele>386.409</ele>
        <time>2019-04-15T14:41:31Z</time>
      </trkpt>
      <trkpt lat="45.80227" lon="4.20504">
        <ele>386.436</ele>
        <time>2019-04-15T14:41:36Z</time>
      </trkpt>
      <trkpt lat="45.80225" lon="4.2051">
        <ele>386.569</ele>
        <time>2019-04-15T14:41:42Z</time>
      </trkpt>
      <trkpt lat="45.80226" lon="4.20518">
        <ele>386.745</ele>
        <time>2019-04-15T14:41:48Z</time>
      </trkpt>
      <trkpt lat="45.80229" lon="4.2053">
        <ele>386.748</ele>
        <time>2019-04-15T14:41:54Z</time>
      </trkpt>
      <trkpt lat="45.80231" lon="4.2054">
        <ele>386.928</ele>
        <time>2019-04-15T14:41:59Z</time>
      </trkpt>
      <trkpt lat="45.80234" lon="4.20548">
        <ele>386.626</ele>
        <time>2019-04-15T14:42:05Z</time>
      </trkpt>
      <trkpt lat="45.80236" lon="4.20559">
        <ele>386.133</ele>
        <time>2019-04-15T14:42:11Z</time>
      </trkpt>
      <trkpt lat="45.80238" lon="4.20569">
        <ele>385.742</ele>
        <time>2019-04-15T14:42:17Z</time>
      </trkpt>
      <trkpt lat="45.8024" lon="4.20579">
        <ele>385.645</ele>
        <time>2019-04-15T14:42:23Z</time>
      </trkpt>
      <trkpt lat="45.80242" lon="4.20588">
        <ele>385.992</ele>
        <time>2019-04-15T14:42:29Z</time>
      </trkpt>
      <trkpt lat="45.80244" lon="4.20595">
        <ele>385.976</ele>
        <time>2019-04-15T14:42:34Z</time>
      </trkpt>
      <trkpt lat="45.80247" lon="4.20604">
        <ele>386.233</ele>
        <time>2019-04-15T14:42:40Z</time>
      </trkpt>
      <trkpt lat="45.80249" lon="4.20615">
        <ele>386.483</ele>
        <time>2019-04-15T14:42:46Z</time>
      </trkpt>
      <trkpt lat="45.80251" lon="4.20623">
        <ele>386.246</ele>
        <time>2019-04-15T14:42:51Z</time>
      </trkpt>
      <trkpt lat="45.80253" lon="4.20635">
        <ele>385.941</ele>
        <time>2019-04-15T14:42:57Z</time>
      </trkpt>
      <trkpt lat="45.80253" lon="4.20643">
        <ele>386.057</ele>
        <time>2019-04-15T14:43:02Z</time>
      </trkpt>
      <trkpt lat="45.80254" lon="4.20652">
        <ele>386.143</ele>
        <time>2019-04-15T14:43:08Z</time>
      </trkpt>
      <trkpt lat="45.80254" lon="4.20658">
        <ele>386.109</ele>
        <time>2019-04-15T14:43:13Z</time>
      </trkpt>
      <trkpt lat="45.80253" lon="4.20667">
        <ele>386.192</ele>
        <time>2019-04-15T14:43:19Z</time>
      </trkpt>
      <trkpt lat="45.80253" lon="4.20676">
        <ele>386.029</ele>
        <time>2019-04-15T14:43:24Z</time>
      </trkpt>
      <trkpt lat="45.80254" lon="4.20689">
        <ele>385.992</ele>
        <time>2019-04-15T14:43:30Z</time>
      </trkpt>
      <trkpt lat="45.80255" lon="4.20699">
        <ele>385.947</ele>
        <time>2019-04-15T14:43:36Z</time>
      </trkpt>
      <trkpt lat="45.80259" lon="4.2071">
        <ele>385.804</ele>
        <time>2019-04-15T14:43:42Z</time>
      </trkpt>
      <trkpt lat="45.80262" lon="4.20719">
        <ele>385.957</ele>
        <time>2019-04-15T14:43:48Z</time>
      </trkpt>
      <trkpt lat="45.80265" lon="4.20729">
        <ele>385.917</ele>
        <time>2019-04-15T14:43:54Z</time>
      </trkpt>
      <trkpt lat="45.80267" lon="4.20739">
        <ele>386.064</ele>
        <time>2019-04-15T14:44:00Z</time>
      </trkpt>
      <trkpt lat="45.80268" lon="4.20751">
        <ele>386.458</ele>
        <time>2019-04-15T14:44:06Z</time>
      </trkpt>
      <trkpt lat="45.80269" lon="4.20762">
        <ele>387.001</ele>
        <time>2019-04-15T14:44:12Z</time>
      </trkpt>
      <trkpt lat="45.80268" lon="4.2077">
        <ele>387.328</ele>
        <time>2019-04-15T14:44:17Z</time>
      </trkpt>
      <trkpt lat="45.80268" lon="4.20771">
        <ele>387.668</ele>
        <time>2019-04-15T14:44:22Z</time>
      </trkpt>
      <trkpt lat="45.80268" lon="4.20773">
        <ele>387.247</ele>
        <time>2019-04-15T14:44:28Z</time>
      </trkpt>
      <trkpt lat="45.80268" lon="4.20774">
        <ele>387.092</ele>
        <time>2019-04-15T14:44:34Z</time>
      </trkpt>
      <trkpt lat="45.80268" lon="4.20774">
        <ele>387.027</ele>
        <time>2019-04-15T14:44:40Z</time>
      </trkpt>
      <trkpt lat="45.80268" lon="4.20774">
        <ele>386.898</ele>
        <time>2019-04-15T14:44:45Z</time>
      </trkpt>
      <trkpt lat="45.80267" lon="4.20774">
        <ele>386.608</ele>
        <time>2019-04-15T14:44:51Z</time>
      </trkpt>
      <trkpt lat="45.80267" lon="4.20774">
        <ele>386.495</ele>
        <time>2019-04-15T14:44:56Z</time>
      </trkpt>
      <trkpt lat="45.80266" lon="4.20775">
        <ele>386.541</ele>
        <time>2019-04-15T14:45:02Z</time>
      </trkpt>
      <trkpt lat="45.80266" lon="4.20775">
        <ele>386.515</ele>
        <time>2019-04-15T14:45:08Z</time>
      </trkpt>
      <trkpt lat="45.80266" lon="4.20775">
        <ele>386.387</ele>
        <time>2019-04-15T14:45:13Z</time>
      </trkpt>
      <trkpt lat="45.80257" lon="4.20784">
        <ele>386.559</ele>
        <time>2019-04-15T14:45:19Z</time>
      </trkpt>
      <trkpt lat="45.80252" lon="4.20789">
        <ele>386.791</ele>
        <time>2019-04-15T14:45:24Z</time>
      </trkpt>
      <trkpt lat="45.80247" lon="4.20792">
        <ele>387.162</ele>
        <time>2019-04-15T14:45:29Z</time>
      </trkpt>
      <trkpt lat="45.80242" lon="4.20796">
        <ele>387.792</ele>
        <time>2019-04-15T14:45:35Z</time>
      </trkpt>
      <trkpt lat="45.80241" lon="4.20798">
        <ele>388.473</ele>
        <time>2019-04-15T14:45:40Z</time>
      </trkpt>
      <trkpt lat="45.80241" lon="4.20798">
        <ele>388.423</ele>
        <time>2019-04-15T14:45:46Z</time>
      </trkpt>
      <trkpt lat="45.80241" lon="4.20798">
        <ele>388.256</ele>
        <time>2019-04-15T14:45:51Z</time>
      </trkpt>
      <trkpt lat="45.80241" lon="4.20798">
        <ele>388.047</ele>
        <time>2019-04-15T14:45:57Z</time>
      </trkpt>
      <trkpt lat="45.80241" lon="4.20798">
        <ele>387.953</ele>
        <time>2019-04-15T14:46:02Z</time>
      </trkpt>
      <trkpt lat="45.80241" lon="4.20798">
        <ele>387.879</ele>
        <time>2019-04-15T14:46:08Z</time>
      </trkpt>
      <trkpt lat="45.80241" lon="4.20798">
        <ele>387.812</ele>
        <time>2019-04-15T14:46:13Z</time>
      </trkpt>
      <trkpt lat="45.80241" lon="4.20798">
        <ele>387.722</ele>
        <time>2019-04-15T14:46:19Z</time>
      </trkpt>
      <trkpt lat="45.80241" lon="4.20798">
        <ele>387.649</ele>
        <time>2019-04-15T14:46:24Z</time>
      </trkpt>
      <trkpt lat="45.80241" lon="4.20798">
        <ele>387.57</ele>
        <time>2019-04-15T14:46:30Z</time>
      </trkpt>
      <trkpt lat="45.80241" lon="4.20798">
        <ele>387.509</ele>
        <time>2019-04-15T14:46:36Z</time>
      </trkpt>
      <trkpt lat="45.80241" lon="4.20798">
        <ele>387.47</ele>
        <time>2019-04-15T14:46:42Z</time>
      </trkpt>
      <trkpt lat="45.80241" lon="4.20798">
        <ele>387.452</ele>
        <time>2019-04-15T14:46:48Z</time>
      </trkpt>
      <trkpt lat="45.80241" lon="4.20798">
        <ele>387.394</ele>
        <time>2019-04-15T14:46:54Z</time>
      </trkpt>
      <trkpt lat="45.80241" lon="4.20798">
        <ele>387.351</ele>
        <time>2019-04-15T14:47:00Z</time>
      </trkpt>
      <trkpt lat="45.80241" lon="4.20798">
        <ele>387.331</ele>
        <time>2019-04-15T14:47:06Z</time>
      </trkpt>
      <trkpt lat="45.80241" lon="4.20798">
        <ele>387.343</ele>
        <time>2019-04-15T14:47:12Z</time>
      </trkpt>
      <trkpt lat="45.80241" lon="4.20798">
        <ele>387.354</ele>
        <time>2019-04-15T14:47:18Z</time>
      </trkpt>
      <trkpt lat="45.80241" lon="4.20798">
        <ele>387.37</ele>
        <time>2019-04-15T14:47:24Z</time>
      </trkpt>
      <trkpt lat="45.80241" lon="4.20798">
        <ele>387.381</ele>
        <time>2019-04-15T14:47:30Z</time>
      </trkpt>
      <trkpt lat="45.80241" lon="4.20798">
        <ele>387.395</ele>
        <time>2019-04-15T14:47:36Z</time>
      </trkpt>
      <trkpt lat="45.80241" lon="4.20798">
        <ele>387.397</ele>
        <time>2019-04-15T14:47:42Z</time>
      </trkpt>
      <trkpt lat="45.80241" lon="4.20798">
        <ele>387.39</ele>
        <time>2019-04-15T14:47:48Z</time>
      </trkpt>
      <trkpt lat="45.80241" lon="4.20798">
        <ele>387.382</ele>
        <time>2019-04-15T14:47:53Z</time>
      </trkpt>
      <trkpt lat="45.80241" lon="4.20798">
        <ele>387.412</ele>
        <time>2019-04-15T14:47:58Z</time>
      </trkpt>
      <trkpt lat="45.80241" lon="4.20798">
        <ele>387.4</ele>
        <time>2019-04-15T14:48:04Z</time>
      </trkpt>
      <trkpt lat="45.80241" lon="4.20799">
        <ele>387.271</ele>
        <time>2019-04-15T14:48:10Z</time>
      </trkpt>
      <trkpt lat="45.80241" lon="4.20799">
        <ele>387.262</ele>
        <time>2019-04-15T14:48:15Z</time>
      </trkpt>
      <trkpt lat="45.80241" lon="4.20799">
        <ele>387.313</ele>
        <time>2019-04-15T14:48:21Z</time>
      </trkpt>
      <trkpt lat="45.80242" lon="4.20798">
        <ele>387.074</ele>
        <time>2019-04-15T14:48:27Z</time>
      </trkpt>
      <trkpt lat="45.80242" lon="4.20798">
        <ele>387.089</ele>
        <time>2019-04-15T14:48:33Z</time>
      </trkpt>
      <trkpt lat="45.80242" lon="4.20798">
        <ele>387.166</ele>
        <time>2019-04-15T14:48:38Z</time>
      </trkpt>
      <trkpt lat="45.80238" lon="4.20805">
        <ele>387.939</ele>
        <time>2019-04-15T14:48:44Z</time>
      </trkpt>
      <trkpt lat="45.80236" lon="4.20814">
        <ele>388.227</ele>
        <time>2019-04-15T14:48:50Z</time>
      </trkpt>
      <trkpt lat="45.8023" lon="4.20821">
        <ele>388.004</ele>
        <time>2019-04-15T14:48:56Z</time>
      </trkpt>
      <trkpt lat="45.80228" lon="4.20822">
        <ele>387.795</ele>
        <time>2019-04-15T14:49:02Z</time>
      </trkpt>
      <trkpt lat="45.80222" lon="4.20827">
        <ele>388.422</ele>
        <time>2019-04-15T14:49:08Z</time>
      </trkpt>
      <trkpt lat="45.80214" lon="4.2083">
        <ele>389.244</ele>
        <time>2019-04-15T14:49:13Z</time>
      </trkpt>
      <trkpt lat="45.80208" lon="4.20835">
        <ele>390.349</ele>
        <time>2019-04-15T14:49:19Z</time>
      </trkpt>
      <trkpt lat="45.80203" lon="4.2084">
        <ele>391.333</ele>
        <time>2019-04-15T14:49:25Z</time>
      </trkpt>
      <trkpt lat="45.80198" lon="4.20846">
        <ele>391.899</ele>
        <time>2019-04-15T14:49:31Z</time>
      </trkpt>
      <trkpt lat="45.80192" lon="4.20853">
        <ele>392.362</ele>
        <time>2019-04-15T14:49:36Z</time>
      </trkpt>
      <trkpt lat="45.80186" lon="4.20863">
        <ele>392.876</ele>
        <time>2019-04-15T14:49:42Z</time>
      </trkpt>
      <trkpt lat="45.80182" lon="4.2087">
        <ele>393.322</ele>
        <time>2019-04-15T14:49:47Z</time>
      </trkpt>
      <trkpt lat="45.80179" lon="4.20879">
        <ele>393.446</ele>
        <time>2019-04-15T14:49:52Z</time>
      </trkpt>
      <trkpt lat="45.80175" lon="4.20886">
        <ele>394.011</ele>
        <time>2019-04-15T14:49:57Z</time>
      </trkpt>
      <trkpt lat="45.80171" lon="4.20893">
        <ele>394.721</ele>
        <time>2019-04-15T14:50:03Z</time>
      </trkpt>
      <trkpt lat="45.80166" lon="4.209">
        <ele>395.421</ele>
        <time>2019-04-15T14:50:09Z</time>
      </trkpt>
      <trkpt lat="45.8016" lon="4.20908">
        <ele>396.438</ele>
        <time>2019-04-15T14:50:15Z</time>
      </trkpt>
      <trkpt lat="45.80154" lon="4.20916">
        <ele>396.971</ele>
        <time>2019-04-15T14:50:21Z</time>
      </trkpt>
      <trkpt lat="45.80144" lon="4.20927">
        <ele>397.127</ele>
        <time>2019-04-15T14:50:26Z</time>
      </trkpt>
      <trkpt lat="45.80139" lon="4.20936">
        <ele>397.042</ele>
        <time>2019-04-15T14:50:32Z</time>
      </trkpt>
      <trkpt lat="45.80133" lon="4.20943">
        <ele>396.499</ele>
        <time>2019-04-15T14:50:38Z</time>
      </trkpt>
      <trkpt lat="45.80127" lon="4.20953">
        <ele>396.182</ele>
        <time>2019-04-15T14:50:44Z</time>
      </trkpt>
      <trkpt lat="45.80122" lon="4.2096">
        <ele>396.051</ele>
        <time>2019-04-15T14:50:50Z</time>
      </trkpt>
      <trkpt lat="45.80117" lon="4.20965">
        <ele>396.034</ele>
        <time>2019-04-15T14:50:55Z</time>
      </trkpt>
      <trkpt lat="45.80111" lon="4.20973">
        <ele>395.909</ele>
        <time>2019-04-15T14:51:01Z</time>
      </trkpt>
      <trkpt lat="45.80106" lon="4.20978">
        <ele>395.672</ele>
        <time>2019-04-15T14:51:06Z</time>
      </trkpt>
      <trkpt lat="45.80099" lon="4.20985">
        <ele>395.382</ele>
        <time>2019-04-15T14:51:12Z</time>
      </trkpt>
      <trkpt lat="45.80093" lon="4.20991">
        <ele>394.77</ele>
        <time>2019-04-15T14:51:17Z</time>
      </trkpt>
      <trkpt lat="45.80087" lon="4.21">
        <ele>394.439</ele>
        <time>2019-04-15T14:51:23Z</time>
      </trkpt>
      <trkpt lat="45.8008" lon="4.21008">
        <ele>394.348</ele>
        <time>2019-04-15T14:51:29Z</time>
      </trkpt>
      <trkpt lat="45.80074" lon="4.21014">
        <ele>394.393</ele>
        <time>2019-04-15T14:51:35Z</time>
      </trkpt>
      <trkpt lat="45.80069" lon="4.2102">
        <ele>394.359</ele>
        <time>2019-04-15T14:51:40Z</time>
      </trkpt>
      <trkpt lat="45.80064" lon="4.21031">
        <ele>394.213</ele>
        <time>2019-04-15T14:51:46Z</time>
      </trkpt>
      <trkpt lat="45.80059" lon="4.21037">
        <ele>394.149</ele>
        <time>2019-04-15T14:51:52Z</time>
      </trkpt>
      <trkpt lat="45.80055" lon="4.21043">
        <ele>394.335</ele>
        <time>2019-04-15T14:51:57Z</time>
      </trkpt>
      <trkpt lat="45.80049" lon="4.21051">
        <ele>394.334</ele>
        <time>2019-04-15T14:52:02Z</time>
      </trkpt>
      <trkpt lat="45.80045" lon="4.21058">
        <ele>394.457</ele>
        <time>2019-04-15T14:52:07Z</time>
      </trkpt>
      <trkpt lat="45.8004" lon="4.21067">
        <ele>394.451</ele>
        <time>2019-04-15T14:52:13Z</time>
      </trkpt>
      <trkpt lat="45.80033" lon="4.21073">
        <ele>394.3</ele>
        <time>2019-04-15T14:52:19Z</time>
      </trkpt>
      <trkpt lat="45.80027" lon="4.21081">
        <ele>394.027</ele>
        <time>2019-04-15T14:52:25Z</time>
      </trkpt>
      <trkpt lat="45.80019" lon="4.21089">
        <ele>394.07</ele>
        <time>2019-04-15T14:52:31Z</time>
      </trkpt>
      <trkpt lat="45.80013" lon="4.21096">
        <ele>394.388</ele>
        <time>2019-04-15T14:52:37Z</time>
      </trkpt>
      <trkpt lat="45.80007" lon="4.21102">
        <ele>394.622</ele>
        <time>2019-04-15T14:52:42Z</time>
      </trkpt>
      <trkpt lat="45.80001" lon="4.21109">
        <ele>395.041</ele>
        <time>2019-04-15T14:52:48Z</time>
      </trkpt>
      <trkpt lat="45.79997" lon="4.21115">
        <ele>395.068</ele>
        <time>2019-04-15T14:52:53Z</time>
      </trkpt>
      <trkpt lat="45.79991" lon="4.21124">
        <ele>395.514</ele>
        <time>2019-04-15T14:52:59Z</time>
      </trkpt>
      <trkpt lat="45.79986" lon="4.21131">
        <ele>395.953</ele>
        <time>2019-04-15T14:53:04Z</time>
      </trkpt>
      <trkpt lat="45.79982" lon="4.21138">
        <ele>396.092</ele>
        <time>2019-04-15T14:53:10Z</time>
      </trkpt>
      <trkpt lat="45.79976" lon="4.21146">
        <ele>396.468</ele>
        <time>2019-04-15T14:53:16Z</time>
      </trkpt>
      <trkpt lat="45.79972" lon="4.21152">
        <ele>396.458</ele>
        <time>2019-04-15T14:53:21Z</time>
      </trkpt>
      <trkpt lat="45.79966" lon="4.21162">
        <ele>396.178</ele>
        <time>2019-04-15T14:53:27Z</time>
      </trkpt>
      <trkpt lat="45.79958" lon="4.2117">
        <ele>395.939</ele>
        <time>2019-04-15T14:53:33Z</time>
      </trkpt>
      <trkpt lat="45.79953" lon="4.21178">
        <ele>396.028</ele>
        <time>2019-04-15T14:53:38Z</time>
      </trkpt>
      <trkpt lat="45.79947" lon="4.21185">
        <ele>395.774</ele>
        <time>2019-04-15T14:53:44Z</time>
      </trkpt>
      <trkpt lat="45.79941" lon="4.21191">
        <ele>395.667</ele>
        <time>2019-04-15T14:53:49Z</time>
      </trkpt>
      <trkpt lat="45.79934" lon="4.21197">
        <ele>395.528</ele>
        <time>2019-04-15T14:53:55Z</time>
      </trkpt>
      <trkpt lat="45.79928" lon="4.21203">
        <ele>395.09</ele>
        <time>2019-04-15T14:54:00Z</time>
      </trkpt>
      <trkpt lat="45.79922" lon="4.2121">
        <ele>395.21</ele>
        <time>2019-04-15T14:54:06Z</time>
      </trkpt>
      <trkpt lat="45.79913" lon="4.21216">
        <ele>395.327</ele>
        <time>2019-04-15T14:54:12Z</time>
      </trkpt>
      <trkpt lat="45.79905" lon="4.21224">
        <ele>395.607</ele>
        <time>2019-04-15T14:54:18Z</time>
      </trkpt>
      <trkpt lat="45.79901" lon="4.21228">
        <ele>395.691</ele>
        <time>2019-04-15T14:54:23Z</time>
      </trkpt>
      <trkpt lat="45.79896" lon="4.21235">
        <ele>395.738</ele>
        <time>2019-04-15T14:54:29Z</time>
      </trkpt>
      <trkpt lat="45.79894" lon="4.21245">
        <ele>395.276</ele>
        <time>2019-04-15T14:54:35Z</time>
      </trkpt>
      <trkpt lat="45.79896" lon="4.21254">
        <ele>394.773</ele>
        <time>2019-04-15T14:54:40Z</time>
      </trkpt>
      <trkpt lat="45.79897" lon="4.21264">
        <ele>394.231</ele>
        <time>2019-04-15T14:54:45Z</time>
      </trkpt>
      <trkpt lat="45.79896" lon="4.21272">
        <ele>393.509</ele>
        <time>2019-04-15T14:54:51Z</time>
      </trkpt>
      <trkpt lat="45.79892" lon="4.21281">
        <ele>392.999</ele>
        <time>2019-04-15T14:54:57Z</time>
      </trkpt>
      <trkpt lat="45.79886" lon="4.2129">
        <ele>392.622</ele>
        <time>2019-04-15T14:55:03Z</time>
      </trkpt>
      <trkpt lat="45.79882" lon="4.21296">
        <ele>392.56</ele>
        <time>2019-04-15T14:55:08Z</time>
      </trkpt>
      <trkpt lat="45.79878" lon="4.21302">
        <ele>392.698</ele>
        <time>2019-04-15T14:55:13Z</time>
      </trkpt>
      <trkpt lat="45.79873" lon="4.21312">
        <ele>392.951</ele>
        <time>2019-04-15T14:55:19Z</time>
      </trkpt>
      <trkpt lat="45.79869" lon="4.21318">
        <ele>393.189</ele>
        <time>2019-04-15T14:55:24Z</time>
      </trkpt>
      <trkpt lat="45.79863" lon="4.21326">
        <ele>393.222</ele>
        <time>2019-04-15T14:55:30Z</time>
      </trkpt>
      <trkpt lat="45.79857" lon="4.21333">
        <ele>393.929</ele>
        <time>2019-04-15T14:55:36Z</time>
      </trkpt>
      <trkpt lat="45.79853" lon="4.21343">
        <ele>394.658</ele>
        <time>2019-04-15T14:55:42Z</time>
      </trkpt>
      <trkpt lat="45.79846" lon="4.2135">
        <ele>395.227</ele>
        <time>2019-04-15T14:55:48Z</time>
      </trkpt>
      <trkpt lat="45.79841" lon="4.21357">
        <ele>395.17</ele>
        <time>2019-04-15T14:55:53Z</time>
      </trkpt>
      <trkpt lat="45.79835" lon="4.21365">
        <ele>394.45</ele>
        <time>2019-04-15T14:55:59Z</time>
      </trkpt>
      <trkpt lat="45.79829" lon="4.21372">
        <ele>393.755</ele>
        <time>2019-04-15T14:56:04Z</time>
      </trkpt>
      <trkpt lat="45.79825" lon="4.21375">
        <ele>392.848</ele>
        <time>2019-04-15T14:56:09Z</time>
      </trkpt>
      <trkpt lat="45.79818" lon="4.21381">
        <ele>392.509</ele>
        <time>2019-04-15T14:56:15Z</time>
      </trkpt>
      <trkpt lat="45.79814" lon="4.2139">
        <ele>392.297</ele>
        <time>2019-04-15T14:56:21Z</time>
      </trkpt>
      <trkpt lat="45.79808" lon="4.214">
        <ele>392.337</ele>
        <time>2019-04-15T14:56:27Z</time>
      </trkpt>
      <trkpt lat="45.79807" lon="4.21404">
        <ele>392.524</ele>
        <time>2019-04-15T14:56:32Z</time>
      </trkpt>
      <trkpt lat="45.79808" lon="4.21418">
        <ele>393.168</ele>
        <time>2019-04-15T14:56:38Z</time>
      </trkpt>
      <trkpt lat="45.79809" lon="4.21428">
        <ele>393.53</ele>
        <time>2019-04-15T14:56:43Z</time>
      </trkpt>
      <trkpt lat="45.7981" lon="4.21435">
        <ele>393.952</ele>
        <time>2019-04-15T14:56:49Z</time>
      </trkpt>
      <trkpt lat="45.7981" lon="4.21448">
        <ele>393.805</ele>
        <time>2019-04-15T14:56:55Z</time>
      </trkpt>
      <trkpt lat="45.79811" lon="4.21456">
        <ele>393.691</ele>
        <time>2019-04-15T14:57:00Z</time>
      </trkpt>
      <trkpt lat="45.7981" lon="4.21467">
        <ele>393.698</ele>
        <time>2019-04-15T14:57:06Z</time>
      </trkpt>
      <trkpt lat="45.79811" lon="4.21478">
        <ele>393.702</ele>
        <time>2019-04-15T14:57:12Z</time>
      </trkpt>
      <trkpt lat="45.79814" lon="4.2149">
        <ele>393.944</ele>
        <time>2019-04-15T14:57:18Z</time>
      </trkpt>
      <trkpt lat="45.79818" lon="4.21502">
        <ele>394.367</ele>
        <time>2019-04-15T14:57:24Z</time>
      </trkpt>
      <trkpt lat="45.7982" lon="4.21512">
        <ele>394.69</ele>
        <time>2019-04-15T14:57:29Z</time>
      </trkpt>
      <trkpt lat="45.79822" lon="4.21519">
        <ele>394.893</ele>
        <time>2019-04-15T14:57:34Z</time>
      </trkpt>
      <trkpt lat="45.79823" lon="4.21531">
        <ele>395.09</ele>
        <time>2019-04-15T14:57:40Z</time>
      </trkpt>
      <trkpt lat="45.79824" lon="4.21541">
        <ele>395.192</ele>
        <time>2019-04-15T14:57:46Z</time>
      </trkpt>
      <trkpt lat="45.79826" lon="4.21554">
        <ele>395.223</ele>
        <time>2019-04-15T14:57:52Z</time>
      </trkpt>
      <trkpt lat="45.79828" lon="4.21562">
        <ele>395.679</ele>
        <time>2019-04-15T14:57:57Z</time>
      </trkpt>
      <trkpt lat="45.79831" lon="4.21571">
        <ele>396.197</ele>
        <time>2019-04-15T14:58:03Z</time>
      </trkpt>
      <trkpt lat="45.79832" lon="4.2158">
        <ele>396.677</ele>
        <time>2019-04-15T14:58:08Z</time>
      </trkpt>
      <trkpt lat="45.79835" lon="4.21595">
        <ele>396.878</ele>
        <time>2019-04-15T14:58:14Z</time>
      </trkpt>
      <trkpt lat="45.79835" lon="4.21605">
        <ele>397.047</ele>
        <time>2019-04-15T14:58:19Z</time>
      </trkpt>
      <trkpt lat="45.79838" lon="4.21614">
        <ele>397.674</ele>
        <time>2019-04-15T14:58:25Z</time>
      </trkpt>
      <trkpt lat="45.7984" lon="4.21623">
        <ele>398.28</ele>
        <time>2019-04-15T14:58:31Z</time>
      </trkpt>
      <trkpt lat="45.79843" lon="4.21632">
        <ele>398.628</ele>
        <time>2019-04-15T14:58:37Z</time>
      </trkpt>
      <trkpt lat="45.79842" lon="4.21638">
        <ele>399.004</ele>
        <time>2019-04-15T14:58:42Z</time>
      </trkpt>
      <trkpt lat="45.79838" lon="4.21642">
        <ele>399.812</ele>
        <time>2019-04-15T14:58:48Z</time>
      </trkpt>
      <trkpt lat="45.79832" lon="4.21646">
        <ele>400.35</ele>
        <time>2019-04-15T14:58:53Z</time>
      </trkpt>
      <trkpt lat="45.79825" lon="4.21647">
        <ele>401.071</ele>
        <time>2019-04-15T14:58:59Z</time>
      </trkpt>
      <trkpt lat="45.79816" lon="4.21646">
        <ele>401.676</ele>
        <time>2019-04-15T14:59:05Z</time>
      </trkpt>
      <trkpt lat="45.79807" lon="4.21645">
        <ele>401.557</ele>
        <time>2019-04-15T14:59:10Z</time>
      </trkpt>
      <trkpt lat="45.798" lon="4.21646">
        <ele>400.861</ele>
        <time>2019-04-15T14:59:16Z</time>
      </trkpt>
      <trkpt lat="45.79793" lon="4.21649">
        <ele>400.124</ele>
        <time>2019-04-15T14:59:21Z</time>
      </trkpt>
      <trkpt lat="45.79785" lon="4.21649">
        <ele>399.643</ele>
        <time>2019-04-15T14:59:27Z</time>
      </trkpt>
      <trkpt lat="45.79779" lon="4.21649">
        <ele>399.516</ele>
        <time>2019-04-15T14:59:32Z</time>
      </trkpt>
      <trkpt lat="45.79773" lon="4.21653">
        <ele>399.901</ele>
        <time>2019-04-15T14:59:38Z</time>
      </trkpt>
      <trkpt lat="45.79767" lon="4.21654">
        <ele>400.065</ele>
        <time>2019-04-15T14:59:43Z</time>
      </trkpt>
      <trkpt lat="45.79758" lon="4.21657">
        <ele>399.692</ele>
        <time>2019-04-15T14:59:49Z</time>
      </trkpt>
      <trkpt lat="45.79752" lon="4.21659">
        <ele>399.509</ele>
        <time>2019-04-15T14:59:54Z</time>
      </trkpt>
      <trkpt lat="45.79744" lon="4.21661">
        <ele>399.461</ele>
        <time>2019-04-15T15:00:00Z</time>
      </trkpt>
      <trkpt lat="45.79736" lon="4.21661">
        <ele>398.735</ele>
        <time>2019-04-15T15:00:06Z</time>
      </trkpt>
      <trkpt lat="45.7973" lon="4.21664">
        <ele>398.804</ele>
        <time>2019-04-15T15:00:12Z</time>
      </trkpt>
      <trkpt lat="45.79723" lon="4.21668">
        <ele>399.083</ele>
        <time>2019-04-15T15:00:17Z</time>
      </trkpt>
      <trkpt lat="45.79716" lon="4.2167">
        <ele>399.182</ele>
        <time>2019-04-15T15:00:23Z</time>
      </trkpt>
      <trkpt lat="45.79707" lon="4.21672">
        <ele>398.893</ele>
        <time>2019-04-15T15:00:29Z</time>
      </trkpt>
      <trkpt lat="45.79701" lon="4.21675">
        <ele>398.411</ele>
        <time>2019-04-15T15:00:34Z</time>
      </trkpt>
      <trkpt lat="45.79694" lon="4.21678">
        <ele>398.504</ele>
        <time>2019-04-15T15:00:40Z</time>
      </trkpt>
      <trkpt lat="45.79685" lon="4.2168">
        <ele>399.247</ele>
        <time>2019-04-15T15:00:46Z</time>
      </trkpt>
      <trkpt lat="45.79676" lon="4.21679">
        <ele>399.914</ele>
        <time>2019-04-15T15:00:52Z</time>
      </trkpt>
      <trkpt lat="45.79669" lon="4.21681">
        <ele>400.048</ele>
        <time>2019-04-15T15:00:57Z</time>
      </trkpt>
      <trkpt lat="45.79661" lon="4.21681">
        <ele>400.44</ele>
        <time>2019-04-15T15:01:03Z</time>
      </trkpt>
      <trkpt lat="45.79653" lon="4.21681">
        <ele>400.654</ele>
        <time>2019-04-15T15:01:09Z</time>
      </trkpt>
      <trkpt lat="45.79645" lon="4.21682">
        <ele>400.523</ele>
        <time>2019-04-15T15:01:14Z</time>
      </trkpt>
      <trkpt lat="45.79637" lon="4.21682">
        <ele>399.778</ele>
        <time>2019-04-15T15:01:20Z</time>
      </trkpt>
      <trkpt lat="45.7963" lon="4.21681">
        <ele>399.49</ele>
        <time>2019-04-15T15:01:26Z</time>
      </trkpt>
      <trkpt lat="45.79621" lon="4.21678">
        <ele>399.486</ele>
        <time>2019-04-15T15:01:32Z</time>
      </trkpt>
      <trkpt lat="45.79615" lon="4.21674">
        <ele>399.566</ele>
        <time>2019-04-15T15:01:37Z</time>
      </trkpt>
      <trkpt lat="45.79607" lon="4.21672">
        <ele>399.884</ele>
        <time>2019-04-15T15:01:43Z</time>
      </trkpt>
      <trkpt lat="45.796" lon="4.21672">
        <ele>399.834</ele>
        <time>2019-04-15T15:01:48Z</time>
      </trkpt>
      <trkpt lat="45.79593" lon="4.21671">
        <ele>399.832</ele>
        <time>2019-04-15T15:01:53Z</time>
      </trkpt>
      <trkpt lat="45.79588" lon="4.21672">
        <ele>399.628</ele>
        <time>2019-04-15T15:01:58Z</time>
      </trkpt>
      <trkpt lat="45.7958" lon="4.21675">
        <ele>399.499</ele>
        <time>2019-04-15T15:02:04Z</time>
      </trkpt>
      <trkpt lat="45.79572" lon="4.21683">
        <ele>399.449</ele>
        <time>2019-04-15T15:02:10Z</time>
      </trkpt>
      <trkpt lat="45.79567" lon="4.21687">
        <ele>399.055</ele>
        <time>2019-04-15T15:02:15Z</time>
      </trkpt>
      <trkpt lat="45.7956" lon="4.21694">
        <ele>398.601</ele>
        <time>2019-04-15T15:02:21Z</time>
      </trkpt>
      <trkpt lat="45.79554" lon="4.21701">
        <ele>398.16</ele>
        <time>2019-04-15T15:02:26Z</time>
      </trkpt>
      <trkpt lat="45.79549" lon="4.21708">
        <ele>397.11</ele>
        <time>2019-04-15T15:02:32Z</time>
      </trkpt>
      <trkpt lat="45.79546" lon="4.21712">
        <ele>396.115</ele>
        <time>2019-04-15T15:02:37Z</time>
      </trkpt>
      <trkpt lat="45.79538" lon="4.21718">
        <ele>395.687</ele>
        <time>2019-04-15T15:02:43Z</time>
      </trkpt>
      <trkpt lat="45.79533" lon="4.21722">
        <ele>396.268</ele>
        <time>2019-04-15T15:02:48Z</time>
      </trkpt>
      <trkpt lat="45.79526" lon="4.21729">
        <ele>396.677</ele>
        <time>2019-04-15T15:02:54Z</time>
      </trkpt>
      <trkpt lat="45.79519" lon="4.21735">
        <ele>396.466</ele>
        <time>2019-04-15T15:03:00Z</time>
      </trkpt>
      <trkpt lat="45.79513" lon="4.21739">
        <ele>396.402</ele>
        <time>2019-04-15T15:03:05Z</time>
      </trkpt>
      <trkpt lat="45.79508" lon="4.21742">
        <ele>396.342</ele>
        <time>2019-04-15T15:03:10Z</time>
      </trkpt>
      <trkpt lat="45.795" lon="4.21748">
        <ele>396.15</ele>
        <time>2019-04-15T15:03:16Z</time>
      </trkpt>
      <trkpt lat="45.79492" lon="4.21751">
        <ele>395.917</ele>
        <time>2019-04-15T15:03:21Z</time>
      </trkpt>
      <trkpt lat="45.79487" lon="4.21752">
        <ele>395.514</ele>
        <time>2019-04-15T15:03:26Z</time>
      </trkpt>
      <trkpt lat="45.79482" lon="4.21753">
        <ele>394.955</ele>
        <time>2019-04-15T15:03:32Z</time>
      </trkpt>
      <trkpt lat="45.79474" lon="4.21757">
        <ele>394.468</ele>
        <time>2019-04-15T15:03:38Z</time>
      </trkpt>
      <trkpt lat="45.79469" lon="4.21758">
        <ele>393.82</ele>
        <time>2019-04-15T15:03:43Z</time>
      </trkpt>
      <trkpt lat="45.79461" lon="4.21761">
        <ele>393.048</ele>
        <time>2019-04-15T15:03:49Z</time>
      </trkpt>
      <trkpt lat="45.79453" lon="4.21765">
        <ele>392.541</ele>
        <time>2019-04-15T15:03:54Z</time>
      </trkpt>
      <trkpt lat="45.79445" lon="4.21771">
        <ele>391.816</ele>
        <time>2019-04-15T15:04:00Z</time>
      </trkpt>
      <trkpt lat="45.79439" lon="4.21773">
        <ele>391.576</ele>
        <time>2019-04-15T15:04:06Z</time>
      </trkpt>
      <trkpt lat="45.79433" lon="4.21776">
        <ele>391.572</ele>
        <time>2019-04-15T15:04:12Z</time>
      </trkpt>
      <trkpt lat="45.79427" lon="4.21779">
        <ele>391.209</ele>
        <time>2019-04-15T15:04:18Z</time>
      </trkpt>
      <trkpt lat="45.79419" lon="4.21784">
        <ele>390.858</ele>
        <time>2019-04-15T15:04:24Z</time>
      </trkpt>
      <trkpt lat="45.79413" lon="4.2179">
        <ele>391.482</ele>
        <time>2019-04-15T15:04:30Z</time>
      </trkpt>
      <trkpt lat="45.79407" lon="4.21795">
        <ele>391.999</ele>
        <time>2019-04-15T15:04:36Z</time>
      </trkpt>
      <trkpt lat="45.79403" lon="4.21796">
        <ele>392.784</ele>
        <time>2019-04-15T15:04:41Z</time>
      </trkpt>
      <trkpt lat="45.79395" lon="4.21798">
        <ele>394.431</ele>
        <time>2019-04-15T15:04:47Z</time>
      </trkpt>
      <trkpt lat="45.79388" lon="4.21804">
        <ele>396.105</ele>
        <time>2019-04-15T15:04:53Z</time>
      </trkpt>
      <trkpt lat="45.79381" lon="4.21807">
        <ele>397.048</ele>
        <time>2019-04-15T15:04:59Z</time>
      </trkpt>
      <trkpt lat="45.79373" lon="4.21811">
        <ele>397.245</ele>
        <time>2019-04-15T15:05:05Z</time>
      </trkpt>
      <trkpt lat="45.79366" lon="4.21817">
        <ele>397.206</ele>
        <time>2019-04-15T15:05:10Z</time>
      </trkpt>
      <trkpt lat="45.79363" lon="4.2182">
        <ele>397.222</ele>
        <time>2019-04-15T15:05:15Z</time>
      </trkpt>
      <trkpt lat="45.79356" lon="4.21825">
        <ele>396.926</ele>
        <time>2019-04-15T15:05:21Z</time>
      </trkpt>
      <trkpt lat="45.79349" lon="4.21829">
        <ele>396.787</ele>
        <time>2019-04-15T15:05:27Z</time>
      </trkpt>
      <trkpt lat="45.79342" lon="4.21833">
        <ele>396.887</ele>
        <time>2019-04-15T15:05:33Z</time>
      </trkpt>
      <trkpt lat="45.79338" lon="4.21834">
        <ele>397.455</ele>
        <time>2019-04-15T15:05:38Z</time>
      </trkpt>
      <trkpt lat="45.79331" lon="4.21837">
        <ele>398.687</ele>
        <time>2019-04-15T15:05:44Z</time>
      </trkpt>
      <trkpt lat="45.79322" lon="4.2184">
        <ele>399.152</ele>
        <time>2019-04-15T15:05:49Z</time>
      </trkpt>
      <trkpt lat="45.79314" lon="4.21843">
        <ele>399.491</ele>
        <time>2019-04-15T15:05:55Z</time>
      </trkpt>
      <trkpt lat="45.79308" lon="4.21844">
        <ele>399.157</ele>
        <time>2019-04-15T15:06:00Z</time>
      </trkpt>
      <trkpt lat="45.79301" lon="4.21847">
        <ele>398.934</ele>
        <time>2019-04-15T15:06:06Z</time>
      </trkpt>
      <trkpt lat="45.79292" lon="4.2185">
        <ele>398.866</ele>
        <time>2019-04-15T15:06:12Z</time>
      </trkpt>
      <trkpt lat="45.79285" lon="4.2185">
        <ele>398.634</ele>
        <time>2019-04-15T15:06:18Z</time>
      </trkpt>
      <trkpt lat="45.79279" lon="4.2185">
        <ele>398.401</ele>
        <time>2019-04-15T15:06:23Z</time>
      </trkpt>
      <trkpt lat="45.79271" lon="4.21853">
        <ele>397.633</ele>
        <time>2019-04-15T15:06:29Z</time>
      </trkpt>
      <trkpt lat="45.79266" lon="4.21854">
        <ele>397.134</ele>
        <time>2019-04-15T15:06:34Z</time>
      </trkpt>
      <trkpt lat="45.79263" lon="4.21853">
        <ele>396.934</ele>
        <time>2019-04-15T15:06:40Z</time>
      </trkpt>
      <trkpt lat="45.7926" lon="4.21847">
        <ele>396.672</ele>
        <time>2019-04-15T15:06:45Z</time>
      </trkpt>
      <trkpt lat="45.79259" lon="4.21839">
        <ele>396.6</ele>
        <time>2019-04-15T15:06:50Z</time>
      </trkpt>
      <trkpt lat="45.79257" lon="4.21828">
        <ele>396.857</ele>
        <time>2019-04-15T15:06:56Z</time>
      </trkpt>
      <trkpt lat="45.79257" lon="4.21816">
        <ele>397.274</ele>
        <time>2019-04-15T15:07:01Z</time>
      </trkpt>
      <trkpt lat="45.79255" lon="4.21809">
        <ele>397.926</ele>
        <time>2019-04-15T15:07:06Z</time>
      </trkpt>
      <trkpt lat="45.79253" lon="4.218">
        <ele>398.658</ele>
        <time>2019-04-15T15:07:12Z</time>
      </trkpt>
      <trkpt lat="45.79253" lon="4.21792">
        <ele>399.046</ele>
        <time>2019-04-15T15:07:17Z</time>
      </trkpt>
      <trkpt lat="45.7925" lon="4.21782">
        <ele>399.126</ele>
        <time>2019-04-15T15:07:23Z</time>
      </trkpt>
      <trkpt lat="45.79248" lon="4.2177">
        <ele>399.216</ele>
        <time>2019-04-15T15:07:29Z</time>
      </trkpt>
      <trkpt lat="45.79246" lon="4.21758">
        <ele>399.173</ele>
        <time>2019-04-15T15:07:35Z</time>
      </trkpt>
      <trkpt lat="45.79244" lon="4.21748">
        <ele>399.014</ele>
        <time>2019-04-15T15:07:40Z</time>
      </trkpt>
      <trkpt lat="45.79243" lon="4.21737">
        <ele>398.857</ele>
        <time>2019-04-15T15:07:46Z</time>
      </trkpt>
      <trkpt lat="45.79242" lon="4.21725">
        <ele>398.304</ele>
        <time>2019-04-15T15:07:52Z</time>
      </trkpt>
      <trkpt lat="45.7924" lon="4.21716">
        <ele>397.872</ele>
        <time>2019-04-15T15:07:58Z</time>
      </trkpt>
      <trkpt lat="45.7924" lon="4.21706">
        <ele>397.482</ele>
        <time>2019-04-15T15:08:04Z</time>
      </trkpt>
      <trkpt lat="45.79239" lon="4.21698">
        <ele>397.314</ele>
        <time>2019-04-15T15:08:09Z</time>
      </trkpt>
      <trkpt lat="45.79237" lon="4.21686">
        <ele>397.298</ele>
        <time>2019-04-15T15:08:15Z</time>
      </trkpt>
      <trkpt lat="45.79235" lon="4.21677">
        <ele>397.062</ele>
        <time>2019-04-15T15:08:20Z</time>
      </trkpt>
      <trkpt lat="45.79234" lon="4.21666">
        <ele>396.418</ele>
        <time>2019-04-15T15:08:26Z</time>
      </trkpt>
      <trkpt lat="45.79234" lon="4.21658">
        <ele>395.995</ele>
        <time>2019-04-15T15:08:31Z</time>
      </trkpt>
      <trkpt lat="45.79231" lon="4.21647">
        <ele>395.685</ele>
        <time>2019-04-15T15:08:37Z</time>
      </trkpt>
      <trkpt lat="45.7923" lon="4.21636">
        <ele>395.582</ele>
        <time>2019-04-15T15:08:43Z</time>
      </trkpt>
      <trkpt lat="45.79228" lon="4.21626">
        <ele>395.946</ele>
        <time>2019-04-15T15:08:49Z</time>
      </trkpt>
      <trkpt lat="45.79226" lon="4.21613">
        <ele>396.21</ele>
        <time>2019-04-15T15:08:55Z</time>
      </trkpt>
      <trkpt lat="45.79225" lon="4.21603">
        <ele>396.474</ele>
        <time>2019-04-15T15:09:00Z</time>
      </trkpt>
      <trkpt lat="45.79223" lon="4.21592">
        <ele>396.631</ele>
        <time>2019-04-15T15:09:05Z</time>
      </trkpt>
      <trkpt lat="45.79221" lon="4.21581">
        <ele>396.927</ele>
        <time>2019-04-15T15:09:10Z</time>
      </trkpt>
      <trkpt lat="45.7922" lon="4.21573">
        <ele>396.972</ele>
        <time>2019-04-15T15:09:15Z</time>
      </trkpt>
      <trkpt lat="45.79217" lon="4.21564">
        <ele>396.767</ele>
        <time>2019-04-15T15:09:20Z</time>
      </trkpt>
      <trkpt lat="45.79215" lon="4.21558">
        <ele>396.466</ele>
        <time>2019-04-15T15:09:25Z</time>
      </trkpt>
      <trkpt lat="45.79213" lon="4.21547">
        <ele>396.031</ele>
        <time>2019-04-15T15:09:31Z</time>
      </trkpt>
      <trkpt lat="45.79212" lon="4.21534">
        <ele>395.897</ele>
        <time>2019-04-15T15:09:36Z</time>
      </trkpt>
      <trkpt lat="45.79213" lon="4.21523">
        <ele>395.572</ele>
        <time>2019-04-15T15:09:42Z</time>
      </trkpt>
      <trkpt lat="45.79212" lon="4.21516">
        <ele>395.614</ele>
        <time>2019-04-15T15:09:47Z</time>
      </trkpt>
      <trkpt lat="45.79209" lon="4.21504">
        <ele>395.478</ele>
        <time>2019-04-15T15:09:53Z</time>
      </trkpt>
      <trkpt lat="45.79208" lon="4.21495">
        <ele>395.314</ele>
        <time>2019-04-15T15:09:58Z</time>
      </trkpt>
      <trkpt lat="45.79207" lon="4.21486">
        <ele>395.005</ele>
        <time>2019-04-15T15:10:04Z</time>
      </trkpt>
      <trkpt lat="45.79206" lon="4.21474">
        <ele>394.8</ele>
        <time>2019-04-15T15:10:10Z</time>
      </trkpt>
      <trkpt lat="45.79205" lon="4.21464">
        <ele>394.377</ele>
        <time>2019-04-15T15:10:16Z</time>
      </trkpt>
      <trkpt lat="45.79203" lon="4.21453">
        <ele>394.041</ele>
        <time>2019-04-15T15:10:22Z</time>
      </trkpt>
      <trkpt lat="45.79201" lon="4.21445">
        <ele>393.821</ele>
        <time>2019-04-15T15:10:28Z</time>
      </trkpt>
      <trkpt lat="45.792" lon="4.21435">
        <ele>393.88</ele>
        <time>2019-04-15T15:10:33Z</time>
      </trkpt>
      <trkpt lat="45.79197" lon="4.21424">
        <ele>393.909</ele>
        <time>2019-04-15T15:10:39Z</time>
      </trkpt>
      <trkpt lat="45.79197" lon="4.21417">
        <ele>393.92</ele>
        <time>2019-04-15T15:10:45Z</time>
      </trkpt>
      <trkpt lat="45.79202" lon="4.21408">
        <ele>394.059</ele>
        <time>2019-04-15T15:10:51Z</time>
      </trkpt>
      <trkpt lat="45.79212" lon="4.214">
        <ele>393.826</ele>
        <time>2019-04-15T15:10:57Z</time>
      </trkpt>
      <trkpt lat="45.79215" lon="4.21398">
        <ele>393.791</ele>
        <time>2019-04-15T15:11:03Z</time>
      </trkpt>
      <trkpt lat="45.79217" lon="4.21388">
        <ele>393.486</ele>
        <time>2019-04-15T15:11:09Z</time>
      </trkpt>
      <trkpt lat="45.79215" lon="4.21378">
        <ele>393.589</ele>
        <time>2019-04-15T15:11:15Z</time>
      </trkpt>
      <trkpt lat="45.79212" lon="4.21366">
        <ele>393.673</ele>
        <time>2019-04-15T15:11:21Z</time>
      </trkpt>
      <trkpt lat="45.79211" lon="4.21358">
        <ele>393.486</ele>
        <time>2019-04-15T15:11:26Z</time>
      </trkpt>
      <trkpt lat="45.79208" lon="4.21354">
        <ele>392.494</ele>
        <time>2019-04-15T15:11:33Z</time>
      </trkpt>
      <trkpt lat="45.79211" lon="4.2135">
        <ele>391.667</ele>
        <time>2019-04-15T15:11:38Z</time>
      </trkpt>
      <trkpt lat="45.79214" lon="4.21342">
        <ele>391.279</ele>
        <time>2019-04-15T15:11:43Z</time>
      </trkpt>
      <trkpt lat="45.79215" lon="4.21331">
        <ele>390.848</ele>
        <time>2019-04-15T15:11:49Z</time>
      </trkpt>
      <trkpt lat="45.79221" lon="4.21324">
        <ele>390.191</ele>
        <time>2019-04-15T15:11:55Z</time>
      </trkpt>
      <trkpt lat="45.79226" lon="4.21318">
        <ele>389.485</ele>
        <time>2019-04-15T15:12:01Z</time>
      </trkpt>
      <trkpt lat="45.7923" lon="4.2131">
        <ele>389.106</ele>
        <time>2019-04-15T15:12:06Z</time>
      </trkpt>
      <trkpt lat="45.79233" lon="4.21299">
        <ele>388.901</ele>
        <time>2019-04-15T15:12:12Z</time>
      </trkpt>
      <trkpt lat="45.79233" lon="4.21293">
        <ele>388.727</ele>
        <time>2019-04-15T15:12:17Z</time>
      </trkpt>
      <trkpt lat="45.79236" lon="4.21281">
        <ele>388.889</ele>
        <time>2019-04-15T15:12:23Z</time>
      </trkpt>
      <trkpt lat="45.79238" lon="4.21274">
        <ele>388.816</ele>
        <time>2019-04-15T15:12:29Z</time>
      </trkpt>
      <trkpt lat="45.79242" lon="4.21269">
        <ele>388.529</ele>
        <time>2019-04-15T15:12:35Z</time>
      </trkpt>
      <trkpt lat="45.7925" lon="4.21265">
        <ele>388.082</ele>
        <time>2019-04-15T15:12:41Z</time>
      </trkpt>
      <trkpt lat="45.79254" lon="4.21263">
        <ele>387.756</ele>
        <time>2019-04-15T15:12:46Z</time>
      </trkpt>
      <trkpt lat="45.79262" lon="4.21262">
        <ele>387.004</ele>
        <time>2019-04-15T15:12:52Z</time>
      </trkpt>
      <trkpt lat="45.79268" lon="4.21259">
        <ele>386.59</ele>
        <time>2019-04-15T15:12:57Z</time>
      </trkpt>
      <trkpt lat="45.79271" lon="4.21248">
        <ele>386.394</ele>
        <time>2019-04-15T15:13:03Z</time>
      </trkpt>
      <trkpt lat="45.79271" lon="4.21242">
        <ele>386.084</ele>
        <time>2019-04-15T15:13:08Z</time>
      </trkpt>
      <trkpt lat="45.79269" lon="4.21232">
        <ele>385.842</ele>
        <time>2019-04-15T15:13:14Z</time>
      </trkpt>
      <trkpt lat="45.79272" lon="4.21224">
        <ele>385.925</ele>
        <time>2019-04-15T15:13:20Z</time>
      </trkpt>
      <trkpt lat="45.79272" lon="4.21223">
        <ele>386.039</ele>
        <time>2019-04-15T15:13:25Z</time>
      </trkpt>
      <trkpt lat="45.79272" lon="4.21219">
        <ele>387.211</ele>
        <time>2019-04-15T15:13:31Z</time>
      </trkpt>
      <trkpt lat="45.79274" lon="4.21218">
        <ele>387.859</ele>
        <time>2019-04-15T15:13:36Z</time>
      </trkpt>
    </trkseg>
  </trk>
</gpx>